<?xml version='1.0' encoding='UTF-8'?><gpx version="1.1" creator="JPX - https://github.com/jenetics/jpx" xmlns="http://www.topografix.com/GPX/1/1"><trk><trkseg><trkpt lat="45.6805062" lon="8.7033268"><ele>270.0</ele><time>2026-04-19T13:39:19.571Z</time></trkpt><trkpt lat="45.6804823" lon="8.7032091"><ele>270.0</ele><time>2026-04-19T13:39:29.571Z</time></trkpt><trkpt lat="45.6804241" lon="8.7031546"><ele>270.0</ele><time>2026-04-19T13:39:31.57Z</time></trkpt><trkpt lat="45.6803635" lon="8.7030933"><ele>270.0</ele><time>2026-04-19T13:39:33.571Z</time></trkpt><trkpt lat="45.6803121" lon="8.7030108"><ele>270.0</ele><time>2026-04-19T13:39:35.57Z</time></trkpt><trkpt lat="45.6802585" lon="8.7029002"><ele>270.0</ele><time>2026-04-19T13:39:37.571Z</time></trkpt><trkpt lat="45.680145" lon="8.7027101"><ele>269.8333333333333</ele><time>2026-04-19T13:39:40.571Z</time></trkpt><trkpt lat="45.6800724" lon="8.7025741"><ele>269.6666666666667</ele><time>2026-04-19T13:39:42.571Z</time></trkpt><trkpt lat="45.6799899" lon="8.7024445"><ele>269.5</ele><time>2026-04-19T13:39:44.571Z</time></trkpt><trkpt lat="45.6799469" lon="8.7023752"><ele>269.33333333333337</ele><time>2026-04-19T13:39:45.57Z</time></trkpt><trkpt lat="45.6799065" lon="8.7023037"><ele>269.1666666666667</ele><time>2026-04-19T13:39:46.571Z</time></trkpt><trkpt lat="45.679862" lon="8.7022334"><ele>269.0</ele><time>2026-04-19T13:39:47.57Z</time></trkpt><trkpt lat="45.6798204" lon="8.7021614"><ele>269.0</ele><time>2026-04-19T13:39:48.571Z</time></trkpt><trkpt lat="45.6797796" lon="8.7020876"><ele>269.0</ele><time>2026-04-19T13:39:49.571Z</time></trkpt><trkpt lat="45.6797365" lon="8.7020135"><ele>269.0</ele><time>2026-04-19T13:39:50.571Z</time></trkpt><trkpt lat="45.6796968" lon="8.7019332"><ele>269.0</ele><time>2026-04-19T13:39:51.571Z</time></trkpt><trkpt lat="45.679653" lon="8.7018583"><ele>269.0</ele><time>2026-04-19T13:39:52.571Z</time></trkpt><trkpt lat="45.6796116" lon="8.7017816"><ele>269.0</ele><time>2026-04-19T13:39:53.571Z</time></trkpt><trkpt lat="45.679568" lon="8.7017055"><ele>269.0</ele><time>2026-04-19T13:39:54.571Z</time></trkpt><trkpt lat="45.6795252" lon="8.7016273"><ele>269.0</ele><time>2026-04-19T13:39:55.57Z</time></trkpt><trkpt lat="45.6794815" lon="8.7015495"><ele>269.0</ele><time>2026-04-19T13:39:56.57Z</time></trkpt><trkpt lat="45.6794374" lon="8.7014736"><ele>269.0</ele><time>2026-04-19T13:39:57.57Z</time></trkpt><trkpt lat="45.6793927" lon="8.7013975"><ele>269.0</ele><time>2026-04-19T13:39:58.571Z</time></trkpt><trkpt lat="45.6793474" lon="8.7013245"><ele>269.0</ele><time>2026-04-19T13:39:59.571Z</time></trkpt><trkpt lat="45.6793019" lon="8.7012505"><ele>269.0</ele><time>2026-04-19T13:40:00.571Z</time></trkpt><trkpt lat="45.6792558" lon="8.7011779"><ele>269.0</ele><time>2026-04-19T13:40:01.57Z</time></trkpt><trkpt lat="45.6792105" lon="8.7011036"><ele>268.83333333333337</ele><time>2026-04-19T13:40:02.571Z</time></trkpt><trkpt lat="45.6791662" lon="8.7010282"><ele>268.6666666666667</ele><time>2026-04-19T13:40:03.571Z</time></trkpt><trkpt lat="45.6791256" lon="8.7009569"><ele>268.5</ele><time>2026-04-19T13:40:04.571Z</time></trkpt><trkpt lat="45.6790557" lon="8.7008498"><ele>268.3333333333333</ele><time>2026-04-19T13:40:06.571Z</time></trkpt><trkpt lat="45.679074" lon="8.7007262"><ele>268.16666666666663</ele><time>2026-04-19T13:40:08.571Z</time></trkpt><trkpt lat="45.6791537" lon="8.7006589"><ele>268.0</ele><time>2026-04-19T13:40:10.57Z</time></trkpt><trkpt lat="45.6792382" lon="8.7005717"><ele>268.0</ele><time>2026-04-19T13:40:12.571Z</time></trkpt><trkpt lat="45.6793233" lon="8.7004796"><ele>268.0</ele><time>2026-04-19T13:40:14.571Z</time></trkpt><trkpt lat="45.6794105" lon="8.7003953"><ele>268.0</ele><time>2026-04-19T13:40:16.571Z</time></trkpt><trkpt lat="45.6794981" lon="8.7003081"><ele>268.0</ele><time>2026-04-19T13:40:18.572Z</time></trkpt><trkpt lat="45.6795913" lon="8.7002306"><ele>268.0</ele><time>2026-04-19T13:40:20.571Z</time></trkpt><trkpt lat="45.6796713" lon="8.7001613"><ele>268.16666666666663</ele><time>2026-04-19T13:40:22.57Z</time></trkpt><trkpt lat="45.6797306" lon="8.7000736"><ele>268.3333333333333</ele><time>2026-04-19T13:40:24.571Z</time></trkpt><trkpt lat="45.6798079" lon="8.6999969"><ele>268.5</ele><time>2026-04-19T13:40:26.571Z</time></trkpt><trkpt lat="45.6798379" lon="8.6998906"><ele>268.6666666666667</ele><time>2026-04-19T13:40:28.571Z</time></trkpt><trkpt lat="45.6798233" lon="8.6997804"><ele>268.83333333333337</ele><time>2026-04-19T13:40:30.571Z</time></trkpt><trkpt lat="45.6797672" lon="8.6996718"><ele>269.0</ele><time>2026-04-19T13:40:32.572Z</time></trkpt><trkpt lat="45.6796925" lon="8.6995581"><ele>269.0</ele><time>2026-04-19T13:40:34.571Z</time></trkpt><trkpt lat="45.6796294" lon="8.6994464"><ele>269.0</ele><time>2026-04-19T13:40:36.57Z</time></trkpt><trkpt lat="45.6795634" lon="8.6993273"><ele>269.0</ele><time>2026-04-19T13:40:38.571Z</time></trkpt><trkpt lat="45.6794784" lon="8.6992121"><ele>269.0</ele><time>2026-04-19T13:40:40.571Z</time></trkpt><trkpt lat="45.6794047" lon="8.699091"><ele>269.0</ele><time>2026-04-19T13:40:42.571Z</time></trkpt><trkpt lat="45.6793415" lon="8.6989636"><ele>269.2</ele><time>2026-04-19T13:40:44.572Z</time></trkpt><trkpt lat="45.67927" lon="8.6988321"><ele>269.4</ele><time>2026-04-19T13:40:46.571Z</time></trkpt><trkpt lat="45.6791861" lon="8.6987075"><ele>269.6</ele><time>2026-04-19T13:40:48.571Z</time></trkpt><trkpt lat="45.679144" lon="8.6986382"><ele>269.8</ele><time>2026-04-19T13:40:49.571Z</time></trkpt><trkpt lat="45.6790735" lon="8.6984939"><ele>270.0</ele><time>2026-04-19T13:40:51.571Z</time></trkpt><trkpt lat="45.679046" lon="8.6984109"><ele>269.42857142857144</ele><time>2026-04-19T13:40:52.571Z</time></trkpt><trkpt lat="45.6790192" lon="8.6983236"><ele>268.85714285714283</ele><time>2026-04-19T13:40:53.572Z</time></trkpt><trkpt lat="45.6790034" lon="8.6982324"><ele>268.2857142857143</ele><time>2026-04-19T13:40:54.57Z</time></trkpt><trkpt lat="45.6790198" lon="8.6981336"><ele>267.7142857142857</ele><time>2026-04-19T13:40:55.571Z</time></trkpt><trkpt lat="45.6790543" lon="8.6980541"><ele>267.1428571428571</ele><time>2026-04-19T13:40:56.572Z</time></trkpt><trkpt lat="45.6791095" lon="8.6980084"><ele>266.57142857142856</ele><time>2026-04-19T13:40:57.57Z</time></trkpt><trkpt lat="45.6791733" lon="8.698002"><ele>266.0</ele><time>2026-04-19T13:40:58.57Z</time></trkpt><trkpt lat="45.679292" lon="8.6979659"><ele>266.0</ele><time>2026-04-19T13:41:00.571Z</time></trkpt><trkpt lat="45.6794067" lon="8.6979165"><ele>266.0</ele><time>2026-04-19T13:41:02.57Z</time></trkpt><trkpt lat="45.6795201" lon="8.6978731"><ele>266.0</ele><time>2026-04-19T13:41:04.57Z</time></trkpt><trkpt lat="45.6796315" lon="8.6978334"><ele>266.0</ele><time>2026-04-19T13:41:06.571Z</time></trkpt><trkpt lat="45.6797431" lon="8.6977967"><ele>266.8</ele><time>2026-04-19T13:41:08.57Z</time></trkpt><trkpt lat="45.679851" lon="8.6977476"><ele>267.6</ele><time>2026-04-19T13:41:10.57Z</time></trkpt><trkpt lat="45.6799529" lon="8.6977092"><ele>268.4</ele><time>2026-04-19T13:41:12.57Z</time></trkpt><trkpt lat="45.6800495" lon="8.6976644"><ele>269.2</ele><time>2026-04-19T13:41:14.571Z</time></trkpt><trkpt lat="45.6801463" lon="8.6976264"><ele>270.0</ele><time>2026-04-19T13:41:16.571Z</time></trkpt><trkpt lat="45.6802415" lon="8.6975643"><ele>270.0</ele><time>2026-04-19T13:41:18.57Z</time></trkpt><trkpt lat="45.6803354" lon="8.6974806"><ele>270.0</ele><time>2026-04-19T13:41:20.572Z</time></trkpt><trkpt lat="45.6804351" lon="8.6974348"><ele>270.0</ele><time>2026-04-19T13:41:22.571Z</time></trkpt><trkpt lat="45.6805357" lon="8.6973758"><ele>270.0</ele><time>2026-04-19T13:41:24.57Z</time></trkpt><trkpt lat="45.6806511" lon="8.6973253"><ele>270.0</ele><time>2026-04-19T13:41:26.571Z</time></trkpt><trkpt lat="45.6807552" lon="8.6972608"><ele>270.0</ele><time>2026-04-19T13:41:28.571Z</time></trkpt><trkpt lat="45.6808669" lon="8.6972242"><ele>270.0</ele><time>2026-04-19T13:41:30.57Z</time></trkpt><trkpt lat="45.6809658" lon="8.6971697"><ele>270.0</ele><time>2026-04-19T13:41:32.571Z</time></trkpt><trkpt lat="45.6810575" lon="8.6971269"><ele>270.0</ele><time>2026-04-19T13:41:34.57Z</time></trkpt><trkpt lat="45.6811604" lon="8.6970852"><ele>270.0</ele><time>2026-04-19T13:41:36.571Z</time></trkpt><trkpt lat="45.6812536" lon="8.6970254"><ele>270.0</ele><time>2026-04-19T13:41:38.571Z</time></trkpt><trkpt lat="45.6813344" lon="8.6970098"><ele>270.0</ele><time>2026-04-19T13:41:40.571Z</time></trkpt><trkpt lat="45.6814369" lon="8.6969588"><ele>270.0</ele><time>2026-04-19T13:41:42.571Z</time></trkpt><trkpt lat="45.681527" lon="8.696925"><ele>270.0</ele><time>2026-04-19T13:41:44.57Z</time></trkpt><trkpt lat="45.6816123" lon="8.6968873"><ele>270.0</ele><time>2026-04-19T13:41:46.571Z</time></trkpt><trkpt lat="45.68166" lon="8.6968245"><ele>270.0</ele><time>2026-04-19T13:41:48.571Z</time></trkpt><trkpt lat="45.6816673" lon="8.696716"><ele>269.8</ele><time>2026-04-19T13:41:50.571Z</time></trkpt><trkpt lat="45.6816658" lon="8.6965813"><ele>269.6</ele><time>2026-04-19T13:41:52.571Z</time></trkpt><trkpt lat="45.6816508" lon="8.6964457"><ele>269.4</ele><time>2026-04-19T13:41:54.571Z</time></trkpt><trkpt lat="45.6816183" lon="8.6963054"><ele>269.2</ele><time>2026-04-19T13:41:56.571Z</time></trkpt><trkpt lat="45.6815771" lon="8.6961596"><ele>269.0</ele><time>2026-04-19T13:41:58.571Z</time></trkpt><trkpt lat="45.6815433" lon="8.6960199"><ele>269.0</ele><time>2026-04-19T13:42:00.571Z</time></trkpt><trkpt lat="45.68151" lon="8.6958766"><ele>269.0</ele><time>2026-04-19T13:42:02.571Z</time></trkpt><trkpt lat="45.6814681" lon="8.6957283"><ele>269.0</ele><time>2026-04-19T13:42:04.572Z</time></trkpt><trkpt lat="45.6814214" lon="8.6955711"><ele>269.0</ele><time>2026-04-19T13:42:06.571Z</time></trkpt><trkpt lat="45.6813759" lon="8.6954219"><ele>269.0</ele><time>2026-04-19T13:42:08.571Z</time></trkpt><trkpt lat="45.6813337" lon="8.6952631"><ele>269.0</ele><time>2026-04-19T13:42:10.571Z</time></trkpt><trkpt lat="45.6812771" lon="8.6951148"><ele>269.0</ele><time>2026-04-19T13:42:12.57Z</time></trkpt><trkpt lat="45.6812363" lon="8.6949583"><ele>269.0</ele><time>2026-04-19T13:42:14.571Z</time></trkpt><trkpt lat="45.6811909" lon="8.6948036"><ele>269.0</ele><time>2026-04-19T13:42:16.571Z</time></trkpt><trkpt lat="45.681142" lon="8.6946474"><ele>269.0</ele><time>2026-04-19T13:42:18.571Z</time></trkpt><trkpt lat="45.6811196" lon="8.694563"><ele>269.0</ele><time>2026-04-19T13:42:19.571Z</time></trkpt><trkpt lat="45.6811031" lon="8.6944748"><ele>269.0</ele><time>2026-04-19T13:42:20.571Z</time></trkpt><trkpt lat="45.6810932" lon="8.6943819"><ele>269.0</ele><time>2026-04-19T13:42:21.571Z</time></trkpt><trkpt lat="45.6810491" lon="8.6942123"><ele>269.0</ele><time>2026-04-19T13:42:23.571Z</time></trkpt><trkpt lat="45.68101" lon="8.6940448"><ele>269.0</ele><time>2026-04-19T13:42:25.572Z</time></trkpt><trkpt lat="45.6809738" lon="8.6938814"><ele>269.0</ele><time>2026-04-19T13:42:27.57Z</time></trkpt><trkpt lat="45.6809398" lon="8.6937343"><ele>269.0</ele><time>2026-04-19T13:42:29.571Z</time></trkpt><trkpt lat="45.6809043" lon="8.6935753"><ele>269.0</ele><time>2026-04-19T13:42:31.571Z</time></trkpt><trkpt lat="45.6808734" lon="8.6934134"><ele>269.0</ele><time>2026-04-19T13:42:33.571Z</time></trkpt><trkpt lat="45.680834" lon="8.6932608"><ele>269.0</ele><time>2026-04-19T13:42:35.57Z</time></trkpt><trkpt lat="45.6808108" lon="8.6930968"><ele>269.0</ele><time>2026-04-19T13:42:37.571Z</time></trkpt><trkpt lat="45.680754" lon="8.6929759"><ele>269.0</ele><time>2026-04-19T13:42:39.572Z</time></trkpt><trkpt lat="45.680718" lon="8.6928167"><ele>269.0</ele><time>2026-04-19T13:42:41.57Z</time></trkpt><trkpt lat="45.6806706" lon="8.6926615"><ele>268.25</ele><time>2026-04-19T13:42:43.571Z</time></trkpt><trkpt lat="45.6806369" lon="8.6925026"><ele>267.5</ele><time>2026-04-19T13:42:45.57Z</time></trkpt><trkpt lat="45.6805977" lon="8.6923416"><ele>266.75</ele><time>2026-04-19T13:42:47.571Z</time></trkpt><trkpt lat="45.6805644" lon="8.6921797"><ele>266.0</ele><time>2026-04-19T13:42:49.57Z</time></trkpt><trkpt lat="45.6805194" lon="8.6920199"><ele>265.6</ele><time>2026-04-19T13:42:51.571Z</time></trkpt><trkpt lat="45.68048" lon="8.6918556"><ele>265.20000000000005</ele><time>2026-04-19T13:42:53.57Z</time></trkpt><trkpt lat="45.6804451" lon="8.6916962"><ele>264.79999999999995</ele><time>2026-04-19T13:42:55.572Z</time></trkpt><trkpt lat="45.6804182" lon="8.6916132"><ele>264.4</ele><time>2026-04-19T13:42:56.571Z</time></trkpt><trkpt lat="45.6803941" lon="8.6914474"><ele>264.0</ele><time>2026-04-19T13:42:58.573Z</time></trkpt><trkpt lat="45.6803762" lon="8.6913572"><ele>264.0</ele><time>2026-04-19T13:42:59.57Z</time></trkpt><trkpt lat="45.6803535" lon="8.6912677"><ele>264.0</ele><time>2026-04-19T13:43:00.571Z</time></trkpt><trkpt lat="45.680302" lon="8.6910971"><ele>264.0</ele><time>2026-04-19T13:43:02.572Z</time></trkpt><trkpt lat="45.6802685" lon="8.6909308"><ele>264.0</ele><time>2026-04-19T13:43:04.57Z</time></trkpt><trkpt lat="45.6802363" lon="8.6907841"><ele>264.0</ele><time>2026-04-19T13:43:06.57Z</time></trkpt><trkpt lat="45.6802442" lon="8.6906318"><ele>264.8</ele><time>2026-04-19T13:43:08.571Z</time></trkpt><trkpt lat="45.6803309" lon="8.690541"><ele>265.59999999999997</ele><time>2026-04-19T13:43:10.571Z</time></trkpt><trkpt lat="45.6804419" lon="8.6905007"><ele>266.4</ele><time>2026-04-19T13:43:12.571Z</time></trkpt><trkpt lat="45.6805464" lon="8.6904588"><ele>267.2</ele><time>2026-04-19T13:43:14.57Z</time></trkpt><trkpt lat="45.6806548" lon="8.6904096"><ele>268.0</ele><time>2026-04-19T13:43:16.571Z</time></trkpt><trkpt lat="45.6807559" lon="8.6903635"><ele>268.0</ele><time>2026-04-19T13:43:18.571Z</time></trkpt><trkpt lat="45.6808301" lon="8.6903344"><ele>268.0</ele><time>2026-04-19T13:43:20.572Z</time></trkpt><trkpt lat="45.6809173" lon="8.6902687"><ele>268.0</ele><time>2026-04-19T13:43:23.571Z</time></trkpt><trkpt lat="45.6809609" lon="8.6901987"><ele>268.0</ele><time>2026-04-19T13:43:26.57Z</time></trkpt><trkpt lat="45.6809807" lon="8.6901001"><ele>268.0</ele><time>2026-04-19T13:43:28.571Z</time></trkpt><trkpt lat="45.6810085" lon="8.6900015"><ele>268.0</ele><time>2026-04-19T13:43:30.571Z</time></trkpt><trkpt lat="45.6810697" lon="8.6899238"><ele>270.4</ele><time>2026-04-19T13:43:32.571Z</time></trkpt><trkpt lat="45.6811642" lon="8.6898733"><ele>272.8</ele><time>2026-04-19T13:43:34.571Z</time></trkpt><trkpt lat="45.6812555" lon="8.689824"><ele>275.2</ele><time>2026-04-19T13:43:36.57Z</time></trkpt><trkpt lat="45.6813362" lon="8.6897347"><ele>277.6</ele><time>2026-04-19T13:43:38.571Z</time></trkpt><trkpt lat="45.6814386" lon="8.6896824"><ele>280.0</ele><time>2026-04-19T13:43:40.571Z</time></trkpt><trkpt lat="45.6815254" lon="8.6896332"><ele>280.0</ele><time>2026-04-19T13:43:42.571Z</time></trkpt><trkpt lat="45.6816366" lon="8.6895527"><ele>280.0</ele><time>2026-04-19T13:43:44.571Z</time></trkpt><trkpt lat="45.6816984" lon="8.6895293"><ele>280.0</ele><time>2026-04-19T13:43:45.57Z</time></trkpt><trkpt lat="45.6817718" lon="8.6894968"><ele>280.0</ele><time>2026-04-19T13:43:46.57Z</time></trkpt><trkpt lat="45.6818763" lon="8.6894341"><ele>280.0</ele><time>2026-04-19T13:43:48.571Z</time></trkpt><trkpt lat="45.6820139" lon="8.6894888"><ele>279.3333333333333</ele><time>2026-04-19T13:43:50.572Z</time></trkpt><trkpt lat="45.6820743" lon="8.6894565"><ele>278.66666666666663</ele><time>2026-04-19T13:43:51.571Z</time></trkpt><trkpt lat="45.6821405" lon="8.6894477"><ele>278.0</ele><time>2026-04-19T13:43:52.571Z</time></trkpt><trkpt lat="45.6822079" lon="8.6894451"><ele>277.3333333333333</ele><time>2026-04-19T13:43:53.571Z</time></trkpt><trkpt lat="45.682328" lon="8.6894165"><ele>276.6666666666667</ele><time>2026-04-19T13:43:55.57Z</time></trkpt><trkpt lat="45.6823943" lon="8.6894184"><ele>276.0</ele><time>2026-04-19T13:43:56.571Z</time></trkpt><trkpt lat="45.6824719" lon="8.6894331"><ele>276.0</ele><time>2026-04-19T13:43:57.57Z</time></trkpt><trkpt lat="45.6825785" lon="8.689441"><ele>276.0</ele><time>2026-04-19T13:43:59.571Z</time></trkpt><trkpt lat="45.6826943" lon="8.689442"><ele>276.0</ele><time>2026-04-19T13:44:01.57Z</time></trkpt><trkpt lat="45.6827597" lon="8.6894543"><ele>276.0</ele><time>2026-04-19T13:44:02.571Z</time></trkpt><trkpt lat="45.6828827" lon="8.6895041"><ele>276.0</ele><time>2026-04-19T13:44:04.571Z</time></trkpt><trkpt lat="45.6829466" lon="8.6895105"><ele>275.8</ele><time>2026-04-19T13:44:05.571Z</time></trkpt><trkpt lat="45.6830665" lon="8.6895512"><ele>275.6</ele><time>2026-04-19T13:44:07.571Z</time></trkpt><trkpt lat="45.6831882" lon="8.6896165"><ele>275.4</ele><time>2026-04-19T13:44:09.57Z</time></trkpt><trkpt lat="45.6832623" lon="8.6896351"><ele>275.2</ele><time>2026-04-19T13:44:10.571Z</time></trkpt><trkpt lat="45.6833282" lon="8.6896455"><ele>275.0</ele><time>2026-04-19T13:44:11.571Z</time></trkpt><trkpt lat="45.6833914" lon="8.6896703"><ele>275.0</ele><time>2026-04-19T13:44:12.571Z</time></trkpt><trkpt lat="45.6835076" lon="8.6897241"><ele>275.0</ele><time>2026-04-19T13:44:14.571Z</time></trkpt><trkpt lat="45.6836284" lon="8.6897832"><ele>275.0</ele><time>2026-04-19T13:44:16.57Z</time></trkpt><trkpt lat="45.6837495" lon="8.6898234"><ele>275.0</ele><time>2026-04-19T13:44:18.57Z</time></trkpt><trkpt lat="45.6838637" lon="8.6898815"><ele>272.75</ele><time>2026-04-19T13:44:20.572Z</time></trkpt><trkpt lat="45.6839711" lon="8.6899299"><ele>270.5</ele><time>2026-04-19T13:44:22.572Z</time></trkpt><trkpt lat="45.684089" lon="8.6899675"><ele>268.25</ele><time>2026-04-19T13:44:24.57Z</time></trkpt><trkpt lat="45.6842048" lon="8.6900227"><ele>266.0</ele><time>2026-04-19T13:44:26.571Z</time></trkpt><trkpt lat="45.6843199" lon="8.6900701"><ele>266.0</ele><time>2026-04-19T13:44:28.571Z</time></trkpt><trkpt lat="45.6844265" lon="8.6901289"><ele>266.0</ele><time>2026-04-19T13:44:30.57Z</time></trkpt><trkpt lat="45.6845375" lon="8.6901578"><ele>266.0</ele><time>2026-04-19T13:44:32.571Z</time></trkpt><trkpt lat="45.6846234" lon="8.6902113"><ele>266.0</ele><time>2026-04-19T13:44:34.571Z</time></trkpt><trkpt lat="45.6846968" lon="8.6902398"><ele>266.0</ele><time>2026-04-19T13:44:36.571Z</time></trkpt><trkpt lat="45.6847727" lon="8.6902703"><ele>268.0</ele><time>2026-04-19T13:44:38.571Z</time></trkpt><trkpt lat="45.6848589" lon="8.6903139"><ele>270.0</ele><time>2026-04-19T13:44:40.571Z</time></trkpt><trkpt lat="45.6849622" lon="8.6903351"><ele>272.0</ele><time>2026-04-19T13:44:42.571Z</time></trkpt><trkpt lat="45.6850608" lon="8.6903315"><ele>274.0</ele><time>2026-04-19T13:44:44.571Z</time></trkpt><trkpt lat="45.6851654" lon="8.6903423"><ele>276.0</ele><time>2026-04-19T13:44:46.57Z</time></trkpt><trkpt lat="45.6852255" lon="8.6903719"><ele>274.8</ele><time>2026-04-19T13:44:47.571Z</time></trkpt><trkpt lat="45.6853154" lon="8.6904471"><ele>273.6</ele><time>2026-04-19T13:44:49.571Z</time></trkpt><trkpt lat="45.6854185" lon="8.6904851"><ele>272.4</ele><time>2026-04-19T13:44:51.571Z</time></trkpt><trkpt lat="45.6855312" lon="8.6905262"><ele>271.2</ele><time>2026-04-19T13:44:53.571Z</time></trkpt><trkpt lat="45.6856401" lon="8.6905534"><ele>270.0</ele><time>2026-04-19T13:44:55.571Z</time></trkpt><trkpt lat="45.6857337" lon="8.6905804"><ele>270.0</ele><time>2026-04-19T13:44:57.571Z</time></trkpt><trkpt lat="45.6858361" lon="8.6906013"><ele>270.0</ele><time>2026-04-19T13:44:59.57Z</time></trkpt><trkpt lat="45.6859408" lon="8.6906203"><ele>270.0</ele><time>2026-04-19T13:45:01.571Z</time></trkpt><trkpt lat="45.6860213" lon="8.69061"><ele>270.0</ele><time>2026-04-19T13:45:03.571Z</time></trkpt><trkpt lat="45.6860987" lon="8.6906377"><ele>270.0</ele><time>2026-04-19T13:45:06.571Z</time></trkpt><trkpt lat="45.686166" lon="8.6906496"><ele>270.0</ele><time>2026-04-19T13:45:08.57Z</time></trkpt><trkpt lat="45.6862638" lon="8.6906691"><ele>269.6</ele><time>2026-04-19T13:45:10.571Z</time></trkpt><trkpt lat="45.6863565" lon="8.690686"><ele>269.2</ele><time>2026-04-19T13:45:12.571Z</time></trkpt><trkpt lat="45.6864513" lon="8.6906857"><ele>268.8</ele><time>2026-04-19T13:45:14.571Z</time></trkpt><trkpt lat="45.6865558" lon="8.6906903"><ele>268.4</ele><time>2026-04-19T13:45:16.571Z</time></trkpt><trkpt lat="45.6866216" lon="8.6906756"><ele>268.0</ele><time>2026-04-19T13:45:17.571Z</time></trkpt><trkpt lat="45.6867244" lon="8.6906796"><ele>268.0</ele><time>2026-04-19T13:45:19.571Z</time></trkpt><trkpt lat="45.6868171" lon="8.6906764"><ele>268.0</ele><time>2026-04-19T13:45:21.576Z</time></trkpt><trkpt lat="45.686916" lon="8.6906696"><ele>268.0</ele><time>2026-04-19T13:45:23.571Z</time></trkpt><trkpt lat="45.6870162" lon="8.690692"><ele>268.0</ele><time>2026-04-19T13:45:25.575Z</time></trkpt><trkpt lat="45.687098" lon="8.6907006"><ele>268.0</ele><time>2026-04-19T13:45:27.566Z</time></trkpt><trkpt lat="45.6871599" lon="8.6907331"><ele>268.0</ele><time>2026-04-19T13:45:29.541Z</time></trkpt><trkpt lat="45.6872409" lon="8.6907162"><ele>267.6</ele><time>2026-04-19T13:45:30.565Z</time></trkpt><trkpt lat="45.6873584" lon="8.6907287"><ele>267.20000000000005</ele><time>2026-04-19T13:45:32.567Z</time></trkpt><trkpt lat="45.6874638" lon="8.6907192"><ele>266.8</ele><time>2026-04-19T13:45:34.573Z</time></trkpt><trkpt lat="45.6875538" lon="8.6907083"><ele>266.40000000000003</ele><time>2026-04-19T13:45:36.577Z</time></trkpt><trkpt lat="45.6876572" lon="8.6907372"><ele>266.0</ele><time>2026-04-19T13:45:38.574Z</time></trkpt><trkpt lat="45.6877724" lon="8.6907769"><ele>266.0</ele><time>2026-04-19T13:45:40.574Z</time></trkpt><trkpt lat="45.6878365" lon="8.6907975"><ele>266.0</ele><time>2026-04-19T13:45:41.565Z</time></trkpt><trkpt lat="45.6879293" lon="8.6907532"><ele>266.0</ele><time>2026-04-19T13:45:43.564Z</time></trkpt><trkpt lat="45.6880212" lon="8.6907353"><ele>266.0</ele><time>2026-04-19T13:45:45.574Z</time></trkpt><trkpt lat="45.6881228" lon="8.6907369"><ele>266.0</ele><time>2026-04-19T13:45:47.575Z</time></trkpt><trkpt lat="45.6882189" lon="8.6907669"><ele>266.0</ele><time>2026-04-19T13:45:49.567Z</time></trkpt><trkpt lat="45.6883169" lon="8.6907637"><ele>266.0</ele><time>2026-04-19T13:45:51.565Z</time></trkpt><trkpt lat="45.6884231" lon="8.6907432"><ele>266.0</ele><time>2026-04-19T13:45:53.571Z</time></trkpt><trkpt lat="45.6885254" lon="8.6907503"><ele>266.0</ele><time>2026-04-19T13:45:55.567Z</time></trkpt><trkpt lat="45.6886373" lon="8.6907451"><ele>266.0</ele><time>2026-04-19T13:45:57.566Z</time></trkpt><trkpt lat="45.6887342" lon="8.6907795"><ele>265.6</ele><time>2026-04-19T13:45:59.576Z</time></trkpt><trkpt lat="45.6888448" lon="8.690769"><ele>265.20000000000005</ele><time>2026-04-19T13:46:01.574Z</time></trkpt><trkpt lat="45.6889547" lon="8.6907736"><ele>264.79999999999995</ele><time>2026-04-19T13:46:03.573Z</time></trkpt><trkpt lat="45.6890644" lon="8.6907699"><ele>264.4</ele><time>2026-04-19T13:46:05.569Z</time></trkpt><trkpt lat="45.6891678" lon="8.6907759"><ele>264.0</ele><time>2026-04-19T13:46:07.568Z</time></trkpt><trkpt lat="45.6892396" lon="8.6907683"><ele>264.0</ele><time>2026-04-19T13:46:09.575Z</time></trkpt><trkpt lat="45.6893201" lon="8.690793"><ele>264.0</ele><time>2026-04-19T13:46:12.567Z</time></trkpt><trkpt lat="45.6893898" lon="8.6908034"><ele>264.0</ele><time>2026-04-19T13:46:15.568Z</time></trkpt><trkpt lat="45.6894701" lon="8.6907832"><ele>264.0</ele><time>2026-04-19T13:46:18.569Z</time></trkpt><trkpt lat="45.6895347" lon="8.6908129"><ele>264.0</ele><time>2026-04-19T13:46:20.571Z</time></trkpt><trkpt lat="45.6896075" lon="8.6908593"><ele>264.0</ele><time>2026-04-19T13:46:22.568Z</time></trkpt><trkpt lat="45.6896864" lon="8.6908905"><ele>263.0</ele><time>2026-04-19T13:46:24.571Z</time></trkpt><trkpt lat="45.6897767" lon="8.6909342"><ele>262.0</ele><time>2026-04-19T13:46:26.575Z</time></trkpt><trkpt lat="45.6898686" lon="8.690963"><ele>261.0</ele><time>2026-04-19T13:46:28.571Z</time></trkpt><trkpt lat="45.6899493" lon="8.6910139"><ele>260.0</ele><time>2026-04-19T13:46:30.568Z</time></trkpt><trkpt lat="45.690018" lon="8.6910402"><ele>259.0</ele><time>2026-04-19T13:46:32.569Z</time></trkpt><trkpt lat="45.6900901" lon="8.6910722"><ele>258.0</ele><time>2026-04-19T13:46:34.576Z</time></trkpt><trkpt lat="45.690152" lon="8.6910898"><ele>258.0</ele><time>2026-04-19T13:46:36.564Z</time></trkpt><trkpt lat="45.6902174" lon="8.6909935"><ele>258.0</ele><time>2026-04-19T13:46:38.57Z</time></trkpt><trkpt lat="45.6902405" lon="8.6908566"><ele>258.0</ele><time>2026-04-19T13:46:40.57Z</time></trkpt><trkpt lat="45.6902477" lon="8.6906936"><ele>258.0</ele><time>2026-04-19T13:46:42.575Z</time></trkpt><trkpt lat="45.6902562" lon="8.6906041"><ele>258.0</ele><time>2026-04-19T13:46:43.572Z</time></trkpt><trkpt lat="45.690275" lon="8.6905038"><ele>258.0</ele><time>2026-04-19T13:46:44.567Z</time></trkpt><trkpt lat="45.6903043" lon="8.6904089"><ele>257.1428571428571</ele><time>2026-04-19T13:46:45.57Z</time></trkpt><trkpt lat="45.6903408" lon="8.6903219"><ele>256.2857142857143</ele><time>2026-04-19T13:46:46.571Z</time></trkpt><trkpt lat="45.69039" lon="8.6902452"><ele>255.42857142857142</ele><time>2026-04-19T13:46:47.566Z</time></trkpt><trkpt lat="45.6904371" lon="8.690179"><ele>254.57142857142856</ele><time>2026-04-19T13:46:48.574Z</time></trkpt><trkpt lat="45.6904808" lon="8.6901057"><ele>253.71428571428572</ele><time>2026-04-19T13:46:49.565Z</time></trkpt><trkpt lat="45.6905275" lon="8.6900362"><ele>252.85714285714286</ele><time>2026-04-19T13:46:50.576Z</time></trkpt><trkpt lat="45.6905761" lon="8.6899646"><ele>252.0</ele><time>2026-04-19T13:46:51.576Z</time></trkpt><trkpt lat="45.6906236" lon="8.6898931"><ele>251.57142857142856</ele><time>2026-04-19T13:46:52.568Z</time></trkpt><trkpt lat="45.6906694" lon="8.6898152"><ele>251.14285714285714</ele><time>2026-04-19T13:46:53.572Z</time></trkpt><trkpt lat="45.6907112" lon="8.6897397"><ele>250.71428571428572</ele><time>2026-04-19T13:46:54.572Z</time></trkpt><trkpt lat="45.6907505" lon="8.6896568"><ele>250.28571428571428</ele><time>2026-04-19T13:46:55.565Z</time></trkpt><trkpt lat="45.6907856" lon="8.6895755"><ele>249.85714285714283</ele><time>2026-04-19T13:46:56.573Z</time></trkpt><trkpt lat="45.690816" lon="8.6894892"><ele>249.42857142857142</ele><time>2026-04-19T13:46:57.576Z</time></trkpt><trkpt lat="45.6908428" lon="8.6894024"><ele>249.0</ele><time>2026-04-19T13:46:58.574Z</time></trkpt><trkpt lat="45.6908698" lon="8.6893126"><ele>248.79999999999998</ele><time>2026-04-19T13:46:59.575Z</time></trkpt><trkpt lat="45.6908932" lon="8.6892251"><ele>248.59999999999997</ele><time>2026-04-19T13:47:00.573Z</time></trkpt><trkpt lat="45.6909381" lon="8.6890655"><ele>248.4</ele><time>2026-04-19T13:47:02.572Z</time></trkpt><trkpt lat="45.6909874" lon="8.6889172"><ele>248.2</ele><time>2026-04-19T13:47:04.569Z</time></trkpt><trkpt lat="45.6910408" lon="8.6887681"><ele>248.0</ele><time>2026-04-19T13:47:06.574Z</time></trkpt><trkpt lat="45.6910984" lon="8.688627"><ele>248.66666666666669</ele><time>2026-04-19T13:47:08.57Z</time></trkpt><trkpt lat="45.6911605" lon="8.6884991"><ele>249.33333333333334</ele><time>2026-04-19T13:47:10.567Z</time></trkpt><trkpt lat="45.6912173" lon="8.6885647"><ele>250.0</ele><time>2026-04-19T13:47:15.569Z</time></trkpt><trkpt lat="45.6912272" lon="8.6886736"><ele>250.66666666666669</ele><time>2026-04-19T13:47:17.568Z</time></trkpt><trkpt lat="45.6912503" lon="8.6887859"><ele>251.33333333333334</ele><time>2026-04-19T13:47:19.569Z</time></trkpt><trkpt lat="45.6912737" lon="8.688925"><ele>252.0</ele><time>2026-04-19T13:47:21.576Z</time></trkpt><trkpt lat="45.6913084" lon="8.6890419"><ele>252.14285714285714</ele><time>2026-04-19T13:47:23.566Z</time></trkpt><trkpt lat="45.6913315" lon="8.6891391"><ele>252.28571428571428</ele><time>2026-04-19T13:47:26.575Z</time></trkpt><trkpt lat="45.6913755" lon="8.6892412"><ele>252.42857142857144</ele><time>2026-04-19T13:47:30.574Z</time></trkpt><trkpt lat="45.6914207" lon="8.689322"><ele>252.57142857142858</ele><time>2026-04-19T13:47:33.573Z</time></trkpt><trkpt lat="45.6914269" lon="8.6894212"><ele>252.71428571428572</ele><time>2026-04-19T13:47:37.574Z</time></trkpt><trkpt lat="45.6914041" lon="8.6895098"><ele>252.8571428571429</ele><time>2026-04-19T13:47:43.551Z</time></trkpt><trkpt lat="45.6913366" lon="8.6895065"><ele>253.00000000000003</ele><time>2026-04-19T13:47:48.586Z</time></trkpt><trkpt lat="45.6912724" lon="8.6895334"><ele>253.33333333333331</ele><time>2026-04-19T13:47:51.576Z</time></trkpt><trkpt lat="45.6912124" lon="8.6896104"><ele>253.66666666666666</ele><time>2026-04-19T13:47:54.566Z</time></trkpt><trkpt lat="45.6911464" lon="8.6896804"><ele>254.0</ele><time>2026-04-19T13:47:57.577Z</time></trkpt><trkpt lat="45.6910947" lon="8.689742"><ele>254.33333333333331</ele><time>2026-04-19T13:48:26.575Z</time></trkpt><trkpt lat="45.6911052" lon="8.6898491"><ele>254.66666666666666</ele><time>2026-04-19T13:49:57.564Z</time></trkpt><trkpt lat="45.6911205" lon="8.6899468"><ele>255.0</ele><time>2026-04-19T13:50:02.563Z</time></trkpt><trkpt lat="45.6911879" lon="8.6898645"><ele>255.0</ele><time>2026-04-19T13:51:04.496Z</time></trkpt><trkpt lat="45.6911294" lon="8.6898106"><ele>255.00000000000003</ele><time>2026-04-19T13:51:12.564Z</time></trkpt><trkpt lat="45.6910942" lon="8.6897272"><ele>255.0</ele><time>2026-04-19T13:51:18.564Z</time></trkpt><trkpt lat="45.6911283" lon="8.6896316"><ele>255.0</ele><time>2026-04-19T13:51:30.564Z</time></trkpt><trkpt lat="45.6911585" lon="8.6895296"><ele>255.00000000000003</ele><time>2026-04-19T13:51:34.564Z</time></trkpt><trkpt lat="45.6911741" lon="8.6894199"><ele>255.0</ele><time>2026-04-19T13:51:38.564Z</time></trkpt><trkpt lat="45.6911954" lon="8.6893207"><ele>255.0</ele><time>2026-04-19T13:51:42.563Z</time></trkpt><trkpt lat="45.6911533" lon="8.6891536"><ele>254.71428571428572</ele><time>2026-04-19T13:51:45.564Z</time></trkpt><trkpt lat="45.6911828" lon="8.689059"><ele>254.42857142857144</ele><time>2026-04-19T13:51:51.563Z</time></trkpt><trkpt lat="45.6911909" lon="8.6889556"><ele>254.14285714285717</ele><time>2026-04-19T13:51:55.66Z</time></trkpt><trkpt lat="45.6912098" lon="8.6888618"><ele>253.8571428571429</ele><time>2026-04-19T13:51:59.663Z</time></trkpt><trkpt lat="45.6912232" lon="8.68875"><ele>253.57142857142858</ele><time>2026-04-19T13:52:03.564Z</time></trkpt><trkpt lat="45.6912089" lon="8.688631"><ele>253.28571428571433</ele><time>2026-04-19T13:52:07.564Z</time></trkpt><trkpt lat="45.6912098" lon="8.6885358"><ele>253.00000000000003</ele><time>2026-04-19T13:52:10.65Z</time></trkpt><trkpt lat="45.6912178" lon="8.6884381"><ele>252.8</ele><time>2026-04-19T13:52:14.296Z</time></trkpt><trkpt lat="45.6911632" lon="8.6883663"><ele>252.60000000000002</ele><time>2026-04-19T13:52:18.525Z</time></trkpt><trkpt lat="45.6910772" lon="8.6883555"><ele>252.39999999999998</ele><time>2026-04-19T13:52:20.564Z</time></trkpt><trkpt lat="45.6909939" lon="8.6882685"><ele>252.2</ele><time>2026-04-19T13:52:23.563Z</time></trkpt><trkpt lat="45.6908975" lon="8.6884193"><ele>252.0</ele><time>2026-04-19T13:52:25.564Z</time></trkpt><trkpt lat="45.6908059" lon="8.688393"><ele>251.71428571428572</ele><time>2026-04-19T13:52:28.564Z</time></trkpt><trkpt lat="45.6907399" lon="8.6883763"><ele>251.42857142857144</ele><time>2026-04-19T13:52:30.563Z</time></trkpt><trkpt lat="45.690674" lon="8.6883721"><ele>251.14285714285714</ele><time>2026-04-19T13:52:32.564Z</time></trkpt><trkpt lat="45.6906133" lon="8.6883455"><ele>250.85714285714286</ele><time>2026-04-19T13:52:34.563Z</time></trkpt><trkpt lat="45.6905463" lon="8.6883295"><ele>250.57142857142858</ele><time>2026-04-19T13:52:36.563Z</time></trkpt><trkpt lat="45.690477" lon="8.6883065"><ele>250.28571428571428</ele><time>2026-04-19T13:52:38.564Z</time></trkpt><trkpt lat="45.6904102" lon="8.6882767"><ele>250.0</ele><time>2026-04-19T13:52:40.564Z</time></trkpt><trkpt lat="45.6903545" lon="8.6882247"><ele>249.99999999999997</ele><time>2026-04-19T13:52:42.564Z</time></trkpt><trkpt lat="45.6902918" lon="8.6881548"><ele>250.0</ele><time>2026-04-19T13:52:44.564Z</time></trkpt><trkpt lat="45.6902258" lon="8.688071"><ele>250.0</ele><time>2026-04-19T13:52:46.563Z</time></trkpt><trkpt lat="45.6901693" lon="8.687966"><ele>250.0</ele><time>2026-04-19T13:52:48.563Z</time></trkpt><trkpt lat="45.6901048" lon="8.6878677"><ele>249.99999999999997</ele><time>2026-04-19T13:52:50.563Z</time></trkpt><trkpt lat="45.690052" lon="8.687791"><ele>250.0</ele><time>2026-04-19T13:52:52.563Z</time></trkpt><trkpt lat="45.6900001" lon="8.6877087"><ele>250.66666666666666</ele><time>2026-04-19T13:52:54.564Z</time></trkpt><trkpt lat="45.6899317" lon="8.687629"><ele>251.33333333333331</ele><time>2026-04-19T13:52:56.563Z</time></trkpt><trkpt lat="45.6898526" lon="8.6875711"><ele>252.0</ele><time>2026-04-19T13:52:58.564Z</time></trkpt><trkpt lat="45.6897657" lon="8.6875503"><ele>252.66666666666669</ele><time>2026-04-19T13:53:00.564Z</time></trkpt><trkpt lat="45.6896812" lon="8.6875149"><ele>253.33333333333334</ele><time>2026-04-19T13:53:02.564Z</time></trkpt><trkpt lat="45.689589" lon="8.6874819"><ele>254.0</ele><time>2026-04-19T13:53:04.563Z</time></trkpt><trkpt lat="45.6895025" lon="8.6874516"><ele>254.39999999999998</ele><time>2026-04-19T13:53:06.563Z</time></trkpt><trkpt lat="45.6894202" lon="8.6873889"><ele>254.79999999999998</ele><time>2026-04-19T13:53:08.563Z</time></trkpt><trkpt lat="45.6893364" lon="8.6873609"><ele>255.20000000000002</ele><time>2026-04-19T13:53:10.564Z</time></trkpt><trkpt lat="45.6892478" lon="8.6873187"><ele>255.60000000000002</ele><time>2026-04-19T13:53:12.564Z</time></trkpt><trkpt lat="45.6891456" lon="8.6872786"><ele>256.0</ele><time>2026-04-19T13:53:14.564Z</time></trkpt><trkpt lat="45.6890458" lon="8.6872337"><ele>255.99999999999997</ele><time>2026-04-19T13:53:16.564Z</time></trkpt><trkpt lat="45.688963" lon="8.687221"><ele>256.0</ele><time>2026-04-19T13:53:18.563Z</time></trkpt><trkpt lat="45.6888981" lon="8.6872457"><ele>256.0</ele><time>2026-04-19T13:53:20.564Z</time></trkpt><trkpt lat="45.6888346" lon="8.687255"><ele>256.0</ele><time>2026-04-19T13:53:22.564Z</time></trkpt><trkpt lat="45.6887499" lon="8.6872729"><ele>255.99999999999997</ele><time>2026-04-19T13:53:24.563Z</time></trkpt><trkpt lat="45.6886476" lon="8.687291"><ele>256.0</ele><time>2026-04-19T13:53:26.563Z</time></trkpt><trkpt lat="45.6885661" lon="8.687314"><ele>255.99999999999997</ele><time>2026-04-19T13:53:28.563Z</time></trkpt><trkpt lat="45.6884957" lon="8.6873481"><ele>256.0</ele><time>2026-04-19T13:53:31.564Z</time></trkpt><trkpt lat="45.688532" lon="8.6872667"><ele>256.0</ele><time>2026-04-19T13:53:40.564Z</time></trkpt><trkpt lat="45.6885795" lon="8.6871753"><ele>256.0</ele><time>2026-04-19T13:53:43.564Z</time></trkpt><trkpt lat="45.6886575" lon="8.6871307"><ele>255.99999999999997</ele><time>2026-04-19T13:53:47.564Z</time></trkpt><trkpt lat="45.6887365" lon="8.6870854"><ele>256.0</ele><time>2026-04-19T13:53:50.564Z</time></trkpt><trkpt lat="45.6888013" lon="8.6870726"><ele>255.99999999999997</ele><time>2026-04-19T13:53:53.563Z</time></trkpt><trkpt lat="45.6887767" lon="8.687169"><ele>256.0</ele><time>2026-04-19T13:54:03.563Z</time></trkpt><trkpt lat="45.6886885" lon="8.6872247"><ele>256.0</ele><time>2026-04-19T13:54:07.564Z</time></trkpt><trkpt lat="45.6886265" lon="8.6872747"><ele>256.0</ele><time>2026-04-19T13:54:09.563Z</time></trkpt><trkpt lat="45.688557" lon="8.6873471"><ele>255.99999999999997</ele><time>2026-04-19T13:54:11.639Z</time></trkpt><trkpt lat="45.6884824" lon="8.6873865"><ele>256.0</ele><time>2026-04-19T13:54:13.517Z</time></trkpt><trkpt lat="45.6883417" lon="8.6873973"><ele>255.20000000000002</ele><time>2026-04-19T13:54:15.563Z</time></trkpt><trkpt lat="45.6882296" lon="8.6874422"><ele>254.40000000000003</ele><time>2026-04-19T13:54:17.563Z</time></trkpt><trkpt lat="45.6881175" lon="8.6875037"><ele>253.6</ele><time>2026-04-19T13:54:19.563Z</time></trkpt><trkpt lat="45.6880186" lon="8.6875207"><ele>252.8</ele><time>2026-04-19T13:54:21.564Z</time></trkpt><trkpt lat="45.6879362" lon="8.6875495"><ele>252.0</ele><time>2026-04-19T13:54:23.564Z</time></trkpt><trkpt lat="45.6878527" lon="8.6875949"><ele>251.6</ele><time>2026-04-19T13:54:25.564Z</time></trkpt><trkpt lat="45.687752" lon="8.687642"><ele>251.2</ele><time>2026-04-19T13:54:27.564Z</time></trkpt><trkpt lat="45.687654" lon="8.6876812"><ele>250.8</ele><time>2026-04-19T13:54:29.563Z</time></trkpt><trkpt lat="45.6875623" lon="8.6877136"><ele>250.4</ele><time>2026-04-19T13:54:31.564Z</time></trkpt><trkpt lat="45.6874605" lon="8.6877343"><ele>250.0</ele><time>2026-04-19T13:54:33.564Z</time></trkpt><trkpt lat="45.6873623" lon="8.6877409"><ele>250.0</ele><time>2026-04-19T13:54:35.564Z</time></trkpt><trkpt lat="45.6872678" lon="8.6877307"><ele>250.0</ele><time>2026-04-19T13:54:37.563Z</time></trkpt><trkpt lat="45.6871683" lon="8.6877066"><ele>250.0</ele><time>2026-04-19T13:54:39.564Z</time></trkpt><trkpt lat="45.6870889" lon="8.6876533"><ele>250.0</ele><time>2026-04-19T13:54:41.563Z</time></trkpt><trkpt lat="45.6870168" lon="8.6875668"><ele>250.0</ele><time>2026-04-19T13:54:43.564Z</time></trkpt><trkpt lat="45.6869428" lon="8.6874584"><ele>249.6</ele><time>2026-04-19T13:54:45.563Z</time></trkpt><trkpt lat="45.6868533" lon="8.687389"><ele>249.2</ele><time>2026-04-19T13:54:47.564Z</time></trkpt><trkpt lat="45.6867561" lon="8.6873585"><ele>248.8</ele><time>2026-04-19T13:54:49.563Z</time></trkpt><trkpt lat="45.6866534" lon="8.6873675"><ele>248.4</ele><time>2026-04-19T13:54:51.564Z</time></trkpt><trkpt lat="45.6865559" lon="8.6874012"><ele>248.0</ele><time>2026-04-19T13:54:53.564Z</time></trkpt><trkpt lat="45.6864569" lon="8.6874178"><ele>248.00000000000003</ele><time>2026-04-19T13:54:55.564Z</time></trkpt><trkpt lat="45.6863627" lon="8.6873891"><ele>248.0</ele><time>2026-04-19T13:54:57.564Z</time></trkpt><trkpt lat="45.6862893" lon="8.687339"><ele>248.0</ele><time>2026-04-19T13:54:59.563Z</time></trkpt><trkpt lat="45.6862291" lon="8.6872525"><ele>248.0</ele><time>2026-04-19T13:55:02.564Z</time></trkpt><trkpt lat="45.68616" lon="8.6871622"><ele>248.00000000000003</ele><time>2026-04-19T13:55:05.564Z</time></trkpt><trkpt lat="45.6861004" lon="8.6870961"><ele>248.0</ele><time>2026-04-19T13:55:07.563Z</time></trkpt><trkpt lat="45.686032" lon="8.6870399"><ele>247.0</ele><time>2026-04-19T13:55:09.563Z</time></trkpt><trkpt lat="45.6859523" lon="8.6870059"><ele>246.00000000000003</ele><time>2026-04-19T13:55:11.564Z</time></trkpt><trkpt lat="45.6858723" lon="8.687014"><ele>245.0</ele><time>2026-04-19T13:55:14.563Z</time></trkpt><trkpt lat="45.6858556" lon="8.6871188"><ele>244.0</ele><time>2026-04-19T13:55:18.564Z</time></trkpt><trkpt lat="45.6858817" lon="8.6872024"><ele>243.00000000000003</ele><time>2026-04-19T13:55:22.563Z</time></trkpt><trkpt lat="45.685821" lon="8.6871711"><ele>242.0</ele><time>2026-04-19T13:55:26.564Z</time></trkpt><trkpt lat="45.685882" lon="8.6871319"><ele>241.0</ele><time>2026-04-19T13:55:58.563Z</time></trkpt><trkpt lat="45.6858736" lon="8.6870277"><ele>242.49999999999997</ele><time>2026-04-19T13:57:28.663Z</time></trkpt><trkpt lat="45.6858713" lon="8.6869071"><ele>244.0</ele><time>2026-04-19T13:57:31.563Z</time></trkpt><trkpt lat="45.6857789" lon="8.6868501"><ele>245.5</ele><time>2026-04-19T13:57:34.564Z</time></trkpt><trkpt lat="45.6856994" lon="8.6868233"><ele>247.0</ele><time>2026-04-19T13:57:36.564Z</time></trkpt><trkpt lat="45.6856224" lon="8.6867969"><ele>248.49999999999997</ele><time>2026-04-19T13:57:38.564Z</time></trkpt><trkpt lat="45.6855343" lon="8.6867741"><ele>250.0</ele><time>2026-04-19T13:57:40.564Z</time></trkpt><trkpt lat="45.6854395" lon="8.6867578"><ele>250.0</ele><time>2026-04-19T13:57:42.564Z</time></trkpt><trkpt lat="45.6853418" lon="8.6867569"><ele>250.0</ele><time>2026-04-19T13:57:44.563Z</time></trkpt><trkpt lat="45.6852422" lon="8.6867441"><ele>250.0</ele><time>2026-04-19T13:57:46.563Z</time></trkpt><trkpt lat="45.6851466" lon="8.6867238"><ele>250.0</ele><time>2026-04-19T13:57:48.564Z</time></trkpt><trkpt lat="45.6850424" lon="8.6867021"><ele>250.0</ele><time>2026-04-19T13:57:50.563Z</time></trkpt><trkpt lat="45.6849366" lon="8.6866481"><ele>249.0</ele><time>2026-04-19T13:57:52.564Z</time></trkpt><trkpt lat="45.684843" lon="8.6865419"><ele>248.0</ele><time>2026-04-19T13:57:54.564Z</time></trkpt><trkpt lat="45.6847533" lon="8.6864381"><ele>247.0</ele><time>2026-04-19T13:57:56.564Z</time></trkpt><trkpt lat="45.6846498" lon="8.6863688"><ele>246.0</ele><time>2026-04-19T13:57:58.564Z</time></trkpt><trkpt lat="45.684544" lon="8.6863165"><ele>246.0</ele><time>2026-04-19T13:58:00.564Z</time></trkpt><trkpt lat="45.6844504" lon="8.6863202"><ele>246.00000000000003</ele><time>2026-04-19T13:58:02.563Z</time></trkpt><trkpt lat="45.684361" lon="8.6863318"><ele>246.00000000000003</ele><time>2026-04-19T13:58:04.563Z</time></trkpt><trkpt lat="45.6842611" lon="8.6863455"><ele>246.0</ele><time>2026-04-19T13:58:06.563Z</time></trkpt><trkpt lat="45.6841619" lon="8.686358"><ele>246.0</ele><time>2026-04-19T13:58:08.563Z</time></trkpt><trkpt lat="45.6840626" lon="8.6863499"><ele>245.33333333333334</ele><time>2026-04-19T13:58:10.563Z</time></trkpt><trkpt lat="45.6839658" lon="8.6863193"><ele>244.66666666666669</ele><time>2026-04-19T13:58:12.564Z</time></trkpt><trkpt lat="45.6838859" lon="8.686264"><ele>244.0</ele><time>2026-04-19T13:58:14.563Z</time></trkpt><trkpt lat="45.6838192" lon="8.6861899"><ele>243.33333333333334</ele><time>2026-04-19T13:58:16.563Z</time></trkpt><trkpt lat="45.6837811" lon="8.6861162"><ele>242.66666666666669</ele><time>2026-04-19T13:58:18.564Z</time></trkpt><trkpt lat="45.6837176" lon="8.6860138"><ele>242.0</ele><time>2026-04-19T13:58:21.563Z</time></trkpt><trkpt lat="45.6836476" lon="8.6859233"><ele>241.83333333333334</ele><time>2026-04-19T13:58:24.564Z</time></trkpt><trkpt lat="45.6835861" lon="8.6858481"><ele>241.66666666666669</ele><time>2026-04-19T13:58:27.564Z</time></trkpt><trkpt lat="45.6835293" lon="8.6857919"><ele>241.5</ele><time>2026-04-19T13:58:29.564Z</time></trkpt><trkpt lat="45.6834746" lon="8.68572"><ele>241.33333333333331</ele><time>2026-04-19T13:58:31.563Z</time></trkpt><trkpt lat="45.6834139" lon="8.685659"><ele>241.16666666666666</ele><time>2026-04-19T13:58:33.563Z</time></trkpt><trkpt lat="45.68334" lon="8.6856194"><ele>241.0</ele><time>2026-04-19T13:58:35.563Z</time></trkpt><trkpt lat="45.6832687" lon="8.6855526"><ele>240.99999999999997</ele><time>2026-04-19T13:58:37.564Z</time></trkpt><trkpt lat="45.6832035" lon="8.6854655"><ele>241.0</ele><time>2026-04-19T13:58:39.564Z</time></trkpt><trkpt lat="45.6831339" lon="8.685462"><ele>241.0</ele><time>2026-04-19T13:58:42.564Z</time></trkpt><trkpt lat="45.6830516" lon="8.6854121"><ele>241.0</ele><time>2026-04-19T13:58:44.564Z</time></trkpt><trkpt lat="45.6829631" lon="8.68536"><ele>240.99999999999997</ele><time>2026-04-19T13:58:46.564Z</time></trkpt><trkpt lat="45.6828815" lon="8.6853052"><ele>241.0</ele><time>2026-04-19T13:58:48.564Z</time></trkpt><trkpt lat="45.6828067" lon="8.6852404"><ele>241.85714285714286</ele><time>2026-04-19T13:58:50.564Z</time></trkpt><trkpt lat="45.6827307" lon="8.6851773"><ele>242.71428571428572</ele><time>2026-04-19T13:58:52.564Z</time></trkpt><trkpt lat="45.6826644" lon="8.6851132"><ele>243.57142857142858</ele><time>2026-04-19T13:58:54.564Z</time></trkpt><trkpt lat="45.6826223" lon="8.6850214"><ele>244.42857142857144</ele><time>2026-04-19T13:58:56.563Z</time></trkpt><trkpt lat="45.6825748" lon="8.6849585"><ele>245.28571428571428</ele><time>2026-04-19T13:58:59.564Z</time></trkpt><trkpt lat="45.6825464" lon="8.6848756"><ele>246.14285714285717</ele><time>2026-04-19T13:59:06.564Z</time></trkpt><trkpt lat="45.6825944" lon="8.6848136"><ele>247.0</ele><time>2026-04-19T13:59:20.564Z</time></trkpt><trkpt lat="45.6825477" lon="8.6848892"><ele>247.0</ele><time>2026-04-19T14:00:42.563Z</time></trkpt><trkpt lat="45.6825928" lon="8.6848134"><ele>247.0</ele><time>2026-04-19T14:01:07.564Z</time></trkpt><trkpt lat="45.6825253" lon="8.6848047"><ele>247.0</ele><time>2026-04-19T14:01:14.564Z</time></trkpt><trkpt lat="45.6824556" lon="8.6848061"><ele>247.0</ele><time>2026-04-19T14:01:17.564Z</time></trkpt><trkpt lat="45.6823913" lon="8.6847389"><ele>247.0</ele><time>2026-04-19T14:01:20.564Z</time></trkpt><trkpt lat="45.682333" lon="8.6846732"><ele>247.0</ele><time>2026-04-19T14:01:22.564Z</time></trkpt><trkpt lat="45.6822705" lon="8.6846146"><ele>247.0</ele><time>2026-04-19T14:01:24.564Z</time></trkpt><trkpt lat="45.6822074" lon="8.6845604"><ele>247.0</ele><time>2026-04-19T14:01:26.564Z</time></trkpt><trkpt lat="45.6821402" lon="8.684482"><ele>247.0</ele><time>2026-04-19T14:01:28.564Z</time></trkpt><trkpt lat="45.6821541" lon="8.6843283"><ele>247.0</ele><time>2026-04-19T14:01:30.564Z</time></trkpt><trkpt lat="45.6821999" lon="8.6842019"><ele>247.0</ele><time>2026-04-19T14:01:32.564Z</time></trkpt><trkpt lat="45.6822564" lon="8.6840768"><ele>247.0</ele><time>2026-04-19T14:01:34.564Z</time></trkpt><trkpt lat="45.6823037" lon="8.6839414"><ele>246.6</ele><time>2026-04-19T14:01:36.564Z</time></trkpt><trkpt lat="45.68235" lon="8.6838088"><ele>246.2</ele><time>2026-04-19T14:01:38.563Z</time></trkpt><trkpt lat="45.6823905" lon="8.6836816"><ele>245.8</ele><time>2026-04-19T14:01:40.563Z</time></trkpt><trkpt lat="45.6824344" lon="8.683557"><ele>245.4</ele><time>2026-04-19T14:01:42.564Z</time></trkpt><trkpt lat="45.6824657" lon="8.6834332"><ele>245.0</ele><time>2026-04-19T14:01:44.564Z</time></trkpt><trkpt lat="45.6825034" lon="8.6833162"><ele>244.0</ele><time>2026-04-19T14:01:46.564Z</time></trkpt><trkpt lat="45.6825376" lon="8.6831977"><ele>243.0</ele><time>2026-04-19T14:01:48.564Z</time></trkpt><trkpt lat="45.6825701" lon="8.6830799"><ele>242.0</ele><time>2026-04-19T14:01:50.564Z</time></trkpt><trkpt lat="45.6826033" lon="8.6829601"><ele>241.0</ele><time>2026-04-19T14:01:52.564Z</time></trkpt><trkpt lat="45.6826433" lon="8.6828381"><ele>240.0</ele><time>2026-04-19T14:01:54.564Z</time></trkpt><trkpt lat="45.6826823" lon="8.6827192"><ele>240.0</ele><time>2026-04-19T14:01:56.564Z</time></trkpt><trkpt lat="45.6827218" lon="8.682602"><ele>240.0</ele><time>2026-04-19T14:01:58.564Z</time></trkpt><trkpt lat="45.6827154" lon="8.6825073"><ele>240.0</ele><time>2026-04-19T14:02:02.563Z</time></trkpt><trkpt lat="45.6827665" lon="8.6824534"><ele>240.0</ele><time>2026-04-19T14:04:04.563Z</time></trkpt><trkpt lat="45.6828111" lon="8.6823753"><ele>240.0</ele><time>2026-04-19T14:04:07.563Z</time></trkpt><trkpt lat="45.682839" lon="8.6822839"><ele>240.0</ele><time>2026-04-19T14:04:09.563Z</time></trkpt><trkpt lat="45.6828704" lon="8.6821842"><ele>240.0</ele><time>2026-04-19T14:04:11.563Z</time></trkpt><trkpt lat="45.6829001" lon="8.6820875"><ele>241.16666666666666</ele><time>2026-04-19T14:04:13.563Z</time></trkpt><trkpt lat="45.6829161" lon="8.6819927"><ele>242.33333333333331</ele><time>2026-04-19T14:04:15.564Z</time></trkpt><trkpt lat="45.6829386" lon="8.6819044"><ele>243.5</ele><time>2026-04-19T14:04:17.564Z</time></trkpt><trkpt lat="45.6829744" lon="8.6818067"><ele>244.66666666666666</ele><time>2026-04-19T14:04:19.563Z</time></trkpt><trkpt lat="45.683014" lon="8.6816964"><ele>245.83333333333331</ele><time>2026-04-19T14:04:21.564Z</time></trkpt><trkpt lat="45.6830541" lon="8.6815802"><ele>247.0</ele><time>2026-04-19T14:04:23.563Z</time></trkpt><trkpt lat="45.6830999" lon="8.6814616"><ele>247.39999999999998</ele><time>2026-04-19T14:04:25.563Z</time></trkpt><trkpt lat="45.6831326" lon="8.6813325"><ele>247.79999999999998</ele><time>2026-04-19T14:04:27.564Z</time></trkpt><trkpt lat="45.6831396" lon="8.6812046"><ele>248.2</ele><time>2026-04-19T14:04:29.564Z</time></trkpt><trkpt lat="45.683178" lon="8.6810948"><ele>248.6</ele><time>2026-04-19T14:04:31.564Z</time></trkpt><trkpt lat="45.6832234" lon="8.6809891"><ele>249.0</ele><time>2026-04-19T14:04:33.564Z</time></trkpt><trkpt lat="45.6832602" lon="8.6808613"><ele>249.16666666666666</ele><time>2026-04-19T14:04:35.564Z</time></trkpt><trkpt lat="45.6833054" lon="8.68074"><ele>249.33333333333331</ele><time>2026-04-19T14:04:37.564Z</time></trkpt><trkpt lat="45.6833506" lon="8.6806228"><ele>249.5</ele><time>2026-04-19T14:04:39.563Z</time></trkpt><trkpt lat="45.6833899" lon="8.6805044"><ele>249.66666666666666</ele><time>2026-04-19T14:04:41.564Z</time></trkpt><trkpt lat="45.6834263" lon="8.680412"><ele>249.83333333333331</ele><time>2026-04-19T14:04:43.564Z</time></trkpt><trkpt lat="45.6834529" lon="8.680318"><ele>250.0</ele><time>2026-04-19T14:04:45.564Z</time></trkpt><trkpt lat="45.6834787" lon="8.6802166"><ele>250.16666666666666</ele><time>2026-04-19T14:04:47.564Z</time></trkpt><trkpt lat="45.6835025" lon="8.6801167"><ele>250.33333333333331</ele><time>2026-04-19T14:04:49.564Z</time></trkpt><trkpt lat="45.6835334" lon="8.6800201"><ele>250.5</ele><time>2026-04-19T14:04:51.564Z</time></trkpt><trkpt lat="45.6835693" lon="8.6799179"><ele>250.66666666666669</ele><time>2026-04-19T14:04:53.563Z</time></trkpt><trkpt lat="45.6836045" lon="8.6798173"><ele>250.83333333333334</ele><time>2026-04-19T14:04:55.564Z</time></trkpt><trkpt lat="45.6836427" lon="8.6797158"><ele>251.0</ele><time>2026-04-19T14:04:57.564Z</time></trkpt><trkpt lat="45.6836802" lon="8.6796196"><ele>251.16666666666669</ele><time>2026-04-19T14:04:59.563Z</time></trkpt><trkpt lat="45.6837131" lon="8.6795179"><ele>251.33333333333334</ele><time>2026-04-19T14:05:01.564Z</time></trkpt><trkpt lat="45.6837404" lon="8.6794102"><ele>251.5</ele><time>2026-04-19T14:05:03.564Z</time></trkpt><trkpt lat="45.6837845" lon="8.6792481"><ele>251.66666666666669</ele><time>2026-04-19T14:05:06.563Z</time></trkpt><trkpt lat="45.6838162" lon="8.6791383"><ele>251.83333333333334</ele><time>2026-04-19T14:05:08.564Z</time></trkpt><trkpt lat="45.6838472" lon="8.6790338"><ele>252.0</ele><time>2026-04-19T14:05:10.563Z</time></trkpt><trkpt lat="45.6838808" lon="8.6789318"><ele>252.28571428571428</ele><time>2026-04-19T14:05:12.564Z</time></trkpt><trkpt lat="45.6839145" lon="8.6788332"><ele>252.57142857142856</ele><time>2026-04-19T14:05:14.564Z</time></trkpt><trkpt lat="45.6839475" lon="8.6787361"><ele>252.85714285714286</ele><time>2026-04-19T14:05:16.564Z</time></trkpt><trkpt lat="45.6839796" lon="8.6786436"><ele>253.14285714285714</ele><time>2026-04-19T14:05:18.564Z</time></trkpt><trkpt lat="45.6840091" lon="8.6785532"><ele>253.42857142857142</ele><time>2026-04-19T14:05:20.564Z</time></trkpt><trkpt lat="45.6840425" lon="8.6784547"><ele>253.71428571428572</ele><time>2026-04-19T14:05:22.564Z</time></trkpt><trkpt lat="45.6840755" lon="8.6783531"><ele>254.0</ele><time>2026-04-19T14:05:24.564Z</time></trkpt><trkpt lat="45.6841119" lon="8.678248"><ele>254.33333333333334</ele><time>2026-04-19T14:05:26.564Z</time></trkpt><trkpt lat="45.6841485" lon="8.6781437"><ele>254.66666666666669</ele><time>2026-04-19T14:05:28.564Z</time></trkpt><trkpt lat="45.6841833" lon="8.6780393"><ele>255.0</ele><time>2026-04-19T14:05:30.564Z</time></trkpt><trkpt lat="45.684209" lon="8.6779273"><ele>255.33333333333331</ele><time>2026-04-19T14:05:32.564Z</time></trkpt><trkpt lat="45.6842361" lon="8.6778131"><ele>255.66666666666666</ele><time>2026-04-19T14:05:34.563Z</time></trkpt><trkpt lat="45.6842702" lon="8.6777037"><ele>256.0</ele><time>2026-04-19T14:05:36.564Z</time></trkpt><trkpt lat="45.6843029" lon="8.6775916"><ele>256.3333333333333</ele><time>2026-04-19T14:05:38.563Z</time></trkpt><trkpt lat="45.684342" lon="8.6774834"><ele>256.66666666666663</ele><time>2026-04-19T14:05:40.563Z</time></trkpt><trkpt lat="45.6843797" lon="8.6773743"><ele>257.0</ele><time>2026-04-19T14:05:42.563Z</time></trkpt><trkpt lat="45.6844134" lon="8.6772521"><ele>257.3333333333333</ele><time>2026-04-19T14:05:44.564Z</time></trkpt><trkpt lat="45.6844474" lon="8.6771316"><ele>257.6666666666667</ele><time>2026-04-19T14:05:46.564Z</time></trkpt><trkpt lat="45.6844824" lon="8.6770117"><ele>258.0</ele><time>2026-04-19T14:05:48.564Z</time></trkpt><trkpt lat="45.6845234" lon="8.6768957"><ele>258.0</ele><time>2026-04-19T14:05:50.564Z</time></trkpt><trkpt lat="45.6845652" lon="8.676789"><ele>258.0</ele><time>2026-04-19T14:05:52.563Z</time></trkpt><trkpt lat="45.6846029" lon="8.6766745"><ele>258.0</ele><time>2026-04-19T14:05:54.563Z</time></trkpt><trkpt lat="45.6846401" lon="8.6765561"><ele>258.0</ele><time>2026-04-19T14:05:56.564Z</time></trkpt><trkpt lat="45.6846753" lon="8.6764345"><ele>258.0</ele><time>2026-04-19T14:05:58.563Z</time></trkpt><trkpt lat="45.6847105" lon="8.6763071"><ele>258.0</ele><time>2026-04-19T14:06:00.564Z</time></trkpt><trkpt lat="45.6847477" lon="8.6761898"><ele>258.0</ele><time>2026-04-19T14:06:02.564Z</time></trkpt><trkpt lat="45.6847837" lon="8.6760703"><ele>258.0</ele><time>2026-04-19T14:06:04.563Z</time></trkpt><trkpt lat="45.6848183" lon="8.6759521"><ele>258.0</ele><time>2026-04-19T14:06:06.564Z</time></trkpt><trkpt lat="45.6848579" lon="8.6758359"><ele>258.0</ele><time>2026-04-19T14:06:08.563Z</time></trkpt><trkpt lat="45.6849017" lon="8.6757252"><ele>257.57142857142856</ele><time>2026-04-19T14:06:10.564Z</time></trkpt><trkpt lat="45.6849401" lon="8.6756442"><ele>257.1428571428571</ele><time>2026-04-19T14:06:12.563Z</time></trkpt><trkpt lat="45.684916" lon="8.6757353"><ele>256.7142857142857</ele><time>2026-04-19T14:06:26.563Z</time></trkpt><trkpt lat="45.6848726" lon="8.6758068"><ele>256.2857142857143</ele><time>2026-04-19T14:06:29.563Z</time></trkpt><trkpt lat="45.6848089" lon="8.6757477"><ele>255.8571428571429</ele><time>2026-04-19T14:06:32.563Z</time></trkpt><trkpt lat="45.6847225" lon="8.6757143"><ele>255.42857142857144</ele><time>2026-04-19T14:06:35.563Z</time></trkpt><trkpt lat="45.6846571" lon="8.6757242"><ele>255.0</ele><time>2026-04-19T14:06:37.563Z</time></trkpt><trkpt lat="45.6845934" lon="8.6757367"><ele>255.0</ele><time>2026-04-19T14:06:39.564Z</time></trkpt><trkpt lat="45.6845359" lon="8.6758039"><ele>255.00000000000003</ele><time>2026-04-19T14:06:42.564Z</time></trkpt><trkpt lat="45.6844651" lon="8.6758073"><ele>255.0</ele><time>2026-04-19T14:06:45.563Z</time></trkpt><trkpt lat="45.6844079" lon="8.6758622"><ele>255.0</ele><time>2026-04-19T14:06:56.563Z</time></trkpt><trkpt lat="45.6843375" lon="8.6758787"><ele>255.00000000000003</ele><time>2026-04-19T14:07:02.564Z</time></trkpt><trkpt lat="45.6842711" lon="8.6759447"><ele>255.0</ele><time>2026-04-19T14:07:06.564Z</time></trkpt><trkpt lat="45.6842061" lon="8.6759389"><ele>255.0</ele><time>2026-04-19T14:07:09.563Z</time></trkpt><trkpt lat="45.6841428" lon="8.6759157"><ele>255.33333333333334</ele><time>2026-04-19T14:07:13.564Z</time></trkpt><trkpt lat="45.6840792" lon="8.6758747"><ele>255.66666666666669</ele><time>2026-04-19T14:07:17.564Z</time></trkpt><trkpt lat="45.6840224" lon="8.6758346"><ele>256.0</ele><time>2026-04-19T14:07:20.662Z</time></trkpt><trkpt lat="45.6839625" lon="8.6757519"><ele>256.33333333333337</ele><time>2026-04-19T14:07:23.564Z</time></trkpt><trkpt lat="45.6839069" lon="8.6756708"><ele>256.6666666666667</ele><time>2026-04-19T14:07:25.564Z</time></trkpt><trkpt lat="45.6838574" lon="8.6755516"><ele>257.0</ele><time>2026-04-19T14:07:28.564Z</time></trkpt><trkpt lat="45.6838221" lon="8.6754273"><ele>257.0</ele><time>2026-04-19T14:07:30.648Z</time></trkpt><trkpt lat="45.6837953" lon="8.6753258"><ele>257.0</ele><time>2026-04-19T14:07:32.563Z</time></trkpt><trkpt lat="45.6837787" lon="8.6752261"><ele>257.0</ele><time>2026-04-19T14:07:35.564Z</time></trkpt><trkpt lat="45.6837381" lon="8.675112"><ele>257.0</ele><time>2026-04-19T14:07:38.564Z</time></trkpt><trkpt lat="45.6837203" lon="8.6750251"><ele>257.0</ele><time>2026-04-19T14:07:40.564Z</time></trkpt><trkpt lat="45.6837346" lon="8.6749192"><ele>257.0</ele><time>2026-04-19T14:07:42.564Z</time></trkpt><trkpt lat="45.6837194" lon="8.6748122"><ele>256.6666666666667</ele><time>2026-04-19T14:07:44.564Z</time></trkpt><trkpt lat="45.6837074" lon="8.6747032"><ele>256.33333333333337</ele><time>2026-04-19T14:07:46.563Z</time></trkpt><trkpt lat="45.683703" lon="8.6745996"><ele>256.0</ele><time>2026-04-19T14:07:48.564Z</time></trkpt><trkpt lat="45.683703" lon="8.6744733"><ele>255.66666666666669</ele><time>2026-04-19T14:07:50.564Z</time></trkpt><trkpt lat="45.6837093" lon="8.6743552"><ele>255.33333333333334</ele><time>2026-04-19T14:07:52.564Z</time></trkpt><trkpt lat="45.6837211" lon="8.6742647"><ele>255.0</ele><time>2026-04-19T14:07:54.564Z</time></trkpt><trkpt lat="45.6837113" lon="8.6741586"><ele>255.0</ele><time>2026-04-19T14:07:56.564Z</time></trkpt><trkpt lat="45.6837069" lon="8.674059"><ele>255.0</ele><time>2026-04-19T14:07:58.564Z</time></trkpt><trkpt lat="45.6837673" lon="8.6739693"><ele>255.0</ele><time>2026-04-19T14:08:00.564Z</time></trkpt><trkpt lat="45.6838839" lon="8.6739239"><ele>255.0</ele><time>2026-04-19T14:08:02.563Z</time></trkpt><trkpt lat="45.6839707" lon="8.6738867"><ele>255.0</ele><time>2026-04-19T14:08:04.564Z</time></trkpt><trkpt lat="45.6840551" lon="8.6738664"><ele>255.0</ele><time>2026-04-19T14:08:06.563Z</time></trkpt><trkpt lat="45.6841096" lon="8.6738078"><ele>255.00000000000003</ele><time>2026-04-19T14:08:08.564Z</time></trkpt><trkpt lat="45.6841864" lon="8.6737597"><ele>255.0</ele><time>2026-04-19T14:08:10.564Z</time></trkpt><trkpt lat="45.6842472" lon="8.6737203"><ele>255.0</ele><time>2026-04-19T14:08:12.563Z</time></trkpt><trkpt lat="45.6843157" lon="8.673695"><ele>255.00000000000003</ele><time>2026-04-19T14:08:14.564Z</time></trkpt><trkpt lat="45.6843879" lon="8.6736662"><ele>255.0</ele><time>2026-04-19T14:08:16.564Z</time></trkpt><trkpt lat="45.6844614" lon="8.6736319"><ele>255.0</ele><time>2026-04-19T14:08:18.564Z</time></trkpt><trkpt lat="45.6845371" lon="8.6735972"><ele>254.83333333333334</ele><time>2026-04-19T14:08:20.564Z</time></trkpt><trkpt lat="45.684605" lon="8.6735536"><ele>254.66666666666669</ele><time>2026-04-19T14:08:22.564Z</time></trkpt><trkpt lat="45.6846695" lon="8.6735153"><ele>254.5</ele><time>2026-04-19T14:08:24.563Z</time></trkpt><trkpt lat="45.684741" lon="8.6734605"><ele>254.33333333333334</ele><time>2026-04-19T14:08:26.564Z</time></trkpt><trkpt lat="45.6848045" lon="8.6733986"><ele>254.16666666666669</ele><time>2026-04-19T14:08:28.564Z</time></trkpt><trkpt lat="45.6848685" lon="8.6733139"><ele>254.0</ele><time>2026-04-19T14:08:30.564Z</time></trkpt><trkpt lat="45.6849614" lon="8.6732385"><ele>254.0</ele><time>2026-04-19T14:08:32.563Z</time></trkpt><trkpt lat="45.6850582" lon="8.6731927"><ele>253.99999999999997</ele><time>2026-04-19T14:08:34.564Z</time></trkpt><trkpt lat="45.6851259" lon="8.6731512"><ele>253.99999999999997</ele><time>2026-04-19T14:08:36.564Z</time></trkpt><trkpt lat="45.6851911" lon="8.6730954"><ele>254.0</ele><time>2026-04-19T14:08:38.564Z</time></trkpt><trkpt lat="45.6852861" lon="8.6730428"><ele>254.0</ele><time>2026-04-19T14:08:40.564Z</time></trkpt><trkpt lat="45.6853962" lon="8.6729944"><ele>253.39999999999998</ele><time>2026-04-19T14:08:42.564Z</time></trkpt><trkpt lat="45.685492" lon="8.6729537"><ele>252.79999999999998</ele><time>2026-04-19T14:08:44.564Z</time></trkpt><trkpt lat="45.6855811" lon="8.6729272"><ele>252.20000000000002</ele><time>2026-04-19T14:08:46.563Z</time></trkpt><trkpt lat="45.6856687" lon="8.6728915"><ele>251.60000000000002</ele><time>2026-04-19T14:08:48.564Z</time></trkpt><trkpt lat="45.6857467" lon="8.6728392"><ele>251.0</ele><time>2026-04-19T14:08:50.564Z</time></trkpt><trkpt lat="45.6858174" lon="8.6727722"><ele>251.00000000000003</ele><time>2026-04-19T14:08:52.563Z</time></trkpt><trkpt lat="45.6858695" lon="8.6726785"><ele>251.0</ele><time>2026-04-19T14:08:54.564Z</time></trkpt><trkpt lat="45.6859051" lon="8.672567"><ele>251.0</ele><time>2026-04-19T14:08:56.564Z</time></trkpt><trkpt lat="45.6859425" lon="8.6724608"><ele>251.0</ele><time>2026-04-19T14:08:58.564Z</time></trkpt><trkpt lat="45.6859782" lon="8.6723641"><ele>251.00000000000003</ele><time>2026-04-19T14:09:00.564Z</time></trkpt><trkpt lat="45.6860103" lon="8.6722744"><ele>251.0</ele><time>2026-04-19T14:09:02.564Z</time></trkpt><trkpt lat="45.6860367" lon="8.6721783"><ele>250.99999999999997</ele><time>2026-04-19T14:09:04.564Z</time></trkpt><trkpt lat="45.6860682" lon="8.6720887"><ele>251.0</ele><time>2026-04-19T14:09:06.564Z</time></trkpt><trkpt lat="45.6860329" lon="8.6720059"><ele>250.99999999999997</ele><time>2026-04-19T14:09:20.564Z</time></trkpt><trkpt lat="45.6860294" lon="8.6719147"><ele>250.99999999999997</ele><time>2026-04-19T14:09:28.564Z</time></trkpt><trkpt lat="45.6860427" lon="8.6718143"><ele>251.0</ele><time>2026-04-19T14:09:37.564Z</time></trkpt><trkpt lat="45.6859952" lon="8.6717546"><ele>250.99999999999997</ele><time>2026-04-19T14:09:44.564Z</time></trkpt><trkpt lat="45.6860547" lon="8.6717979"><ele>250.99999999999997</ele><time>2026-04-19T14:10:21.564Z</time></trkpt><trkpt lat="45.6860735" lon="8.6719054"><ele>251.00000000000003</ele><time>2026-04-19T14:10:28.563Z</time></trkpt><trkpt lat="45.6860748" lon="8.6720191"><ele>251.0</ele><time>2026-04-19T14:10:34.564Z</time></trkpt><trkpt lat="45.6861171" lon="8.6719044"><ele>251.0</ele><time>2026-04-19T14:10:58.563Z</time></trkpt><trkpt lat="45.686144" lon="8.6718171"><ele>251.0</ele><time>2026-04-19T14:11:00.564Z</time></trkpt><trkpt lat="45.6861726" lon="8.671703"><ele>251.00000000000003</ele><time>2026-04-19T14:11:02.564Z</time></trkpt><trkpt lat="45.6862084" lon="8.6715862"><ele>251.0</ele><time>2026-04-19T14:11:05.564Z</time></trkpt><trkpt lat="45.6862388" lon="8.6714616"><ele>251.00000000000003</ele><time>2026-04-19T14:11:08.564Z</time></trkpt><trkpt lat="45.6862663" lon="8.6713668"><ele>251.0</ele><time>2026-04-19T14:11:10.564Z</time></trkpt><trkpt lat="45.6862989" lon="8.6712659"><ele>251.0</ele><time>2026-04-19T14:11:12.564Z</time></trkpt><trkpt lat="45.6863324" lon="8.6711617"><ele>251.0</ele><time>2026-04-19T14:11:14.564Z</time></trkpt><trkpt lat="45.6863675" lon="8.6710579"><ele>251.00000000000003</ele><time>2026-04-19T14:11:16.563Z</time></trkpt><trkpt lat="45.686408" lon="8.6709543"><ele>251.0</ele><time>2026-04-19T14:11:18.564Z</time></trkpt><trkpt lat="45.6864478" lon="8.6708516"><ele>250.66666666666669</ele><time>2026-04-19T14:11:20.564Z</time></trkpt><trkpt lat="45.6864809" lon="8.6707432"><ele>250.33333333333334</ele><time>2026-04-19T14:11:22.563Z</time></trkpt><trkpt lat="45.6865159" lon="8.6706359"><ele>250.0</ele><time>2026-04-19T14:11:24.564Z</time></trkpt><trkpt lat="45.6865489" lon="8.6705315"><ele>249.66666666666669</ele><time>2026-04-19T14:11:26.564Z</time></trkpt><trkpt lat="45.6865774" lon="8.6704318"><ele>249.33333333333334</ele><time>2026-04-19T14:11:28.564Z</time></trkpt><trkpt lat="45.6866012" lon="8.6703411"><ele>249.0</ele><time>2026-04-19T14:11:30.564Z</time></trkpt><trkpt lat="45.6866206" lon="8.6702035"><ele>248.85714285714283</ele><time>2026-04-19T14:11:33.564Z</time></trkpt><trkpt lat="45.6866172" lon="8.670106"><ele>248.7142857142857</ele><time>2026-04-19T14:11:35.564Z</time></trkpt><trkpt lat="45.6866213" lon="8.6700158"><ele>248.57142857142856</ele><time>2026-04-19T14:11:37.564Z</time></trkpt><trkpt lat="45.6866322" lon="8.6699251"><ele>248.42857142857144</ele><time>2026-04-19T14:11:39.564Z</time></trkpt><trkpt lat="45.6866625" lon="8.6698234"><ele>248.2857142857143</ele><time>2026-04-19T14:11:42.564Z</time></trkpt><trkpt lat="45.686724" lon="8.6697469"><ele>248.14285714285717</ele><time>2026-04-19T14:11:45.563Z</time></trkpt><trkpt lat="45.6867863" lon="8.6696729"><ele>248.0</ele><time>2026-04-19T14:11:48.563Z</time></trkpt><trkpt lat="45.6868368" lon="8.6696028"><ele>248.00000000000003</ele><time>2026-04-19T14:11:50.564Z</time></trkpt><trkpt lat="45.686885" lon="8.66952"><ele>248.0</ele><time>2026-04-19T14:11:52.564Z</time></trkpt><trkpt lat="45.6869455" lon="8.6694535"><ele>248.0</ele><time>2026-04-19T14:11:54.564Z</time></trkpt><trkpt lat="45.6869696" lon="8.6693551"><ele>248.0</ele><time>2026-04-19T14:11:56.564Z</time></trkpt><trkpt lat="45.6870152" lon="8.6692758"><ele>248.00000000000003</ele><time>2026-04-19T14:11:58.564Z</time></trkpt><trkpt lat="45.6870662" lon="8.6692043"><ele>248.0</ele><time>2026-04-19T14:12:00.564Z</time></trkpt><trkpt lat="45.6871305" lon="8.6691251"><ele>247.2857142857143</ele><time>2026-04-19T14:12:03.564Z</time></trkpt><trkpt lat="45.6871707" lon="8.6690488"><ele>246.5714285714286</ele><time>2026-04-19T14:12:06.564Z</time></trkpt><trkpt lat="45.6872072" lon="8.6689693"><ele>245.85714285714286</ele><time>2026-04-19T14:12:09.563Z</time></trkpt><trkpt lat="45.6872795" lon="8.6689281"><ele>245.14285714285717</ele><time>2026-04-19T14:12:13.563Z</time></trkpt><trkpt lat="45.6873193" lon="8.6690026"><ele>244.42857142857144</ele><time>2026-04-19T14:12:15.564Z</time></trkpt><trkpt lat="45.6873492" lon="8.6690947"><ele>243.71428571428572</ele><time>2026-04-19T14:12:17.564Z</time></trkpt><trkpt lat="45.6873818" lon="8.6691933"><ele>243.0</ele><time>2026-04-19T14:12:19.564Z</time></trkpt><trkpt lat="45.687419" lon="8.6692833"><ele>243.0</ele><time>2026-04-19T14:12:21.564Z</time></trkpt><trkpt lat="45.687454" lon="8.6693744"><ele>243.0</ele><time>2026-04-19T14:12:23.564Z</time></trkpt><trkpt lat="45.6874887" lon="8.6694694"><ele>243.0</ele><time>2026-04-19T14:12:25.563Z</time></trkpt><trkpt lat="45.6875226" lon="8.6695628"><ele>243.0</ele><time>2026-04-19T14:12:27.564Z</time></trkpt><trkpt lat="45.687561" lon="8.6696585"><ele>243.0</ele><time>2026-04-19T14:12:29.564Z</time></trkpt><trkpt lat="45.6875971" lon="8.6697484"><ele>243.0</ele><time>2026-04-19T14:12:31.564Z</time></trkpt><trkpt lat="45.6876296" lon="8.6698285"><ele>243.0</ele><time>2026-04-19T14:12:33.564Z</time></trkpt><trkpt lat="45.6876157" lon="8.6697099"><ele>243.0</ele><time>2026-04-19T14:12:39.563Z</time></trkpt><trkpt lat="45.6875771" lon="8.6696288"><ele>243.0</ele><time>2026-04-19T14:12:41.563Z</time></trkpt><trkpt lat="45.6875449" lon="8.6695389"><ele>243.0</ele><time>2026-04-19T14:12:43.563Z</time></trkpt><trkpt lat="45.6875116" lon="8.6694453"><ele>243.0</ele><time>2026-04-19T14:12:45.564Z</time></trkpt><trkpt lat="45.6874712" lon="8.6693367"><ele>243.0</ele><time>2026-04-19T14:12:47.564Z</time></trkpt><trkpt lat="45.6874327" lon="8.6692251"><ele>243.0</ele><time>2026-04-19T14:12:49.564Z</time></trkpt><trkpt lat="45.6873892" lon="8.6691073"><ele>243.0</ele><time>2026-04-19T14:12:51.563Z</time></trkpt><trkpt lat="45.6873431" lon="8.6689897"><ele>243.0</ele><time>2026-04-19T14:12:53.564Z</time></trkpt><trkpt lat="45.6872974" lon="8.6688709"><ele>243.0</ele><time>2026-04-19T14:12:55.564Z</time></trkpt><trkpt lat="45.6872532" lon="8.6687573"><ele>243.0</ele><time>2026-04-19T14:12:57.563Z</time></trkpt><trkpt lat="45.6871816" lon="8.6687656"><ele>243.0</ele><time>2026-04-19T14:13:01.564Z</time></trkpt><trkpt lat="45.6871173" lon="8.6687921"><ele>243.0</ele><time>2026-04-19T14:13:03.563Z</time></trkpt><trkpt lat="45.6870304" lon="8.6687781"><ele>243.0</ele><time>2026-04-19T14:13:05.563Z</time></trkpt><trkpt lat="45.6869397" lon="8.6687872"><ele>243.0</ele><time>2026-04-19T14:13:07.564Z</time></trkpt><trkpt lat="45.6868582" lon="8.6687517"><ele>243.0</ele><time>2026-04-19T14:13:09.564Z</time></trkpt><trkpt lat="45.6867804" lon="8.668703"><ele>243.0</ele><time>2026-04-19T14:13:11.564Z</time></trkpt><trkpt lat="45.6867069" lon="8.6686578"><ele>243.0</ele><time>2026-04-19T14:13:13.564Z</time></trkpt><trkpt lat="45.6866361" lon="8.668628"><ele>243.0</ele><time>2026-04-19T14:13:15.563Z</time></trkpt><trkpt lat="45.6865642" lon="8.6686081"><ele>244.0</ele><time>2026-04-19T14:13:17.564Z</time></trkpt><trkpt lat="45.6864876" lon="8.668583"><ele>245.0</ele><time>2026-04-19T14:13:19.564Z</time></trkpt><trkpt lat="45.6864105" lon="8.6685527"><ele>246.0</ele><time>2026-04-19T14:13:21.564Z</time></trkpt><trkpt lat="45.6863409" lon="8.6685283"><ele>247.0</ele><time>2026-04-19T14:13:23.563Z</time></trkpt><trkpt lat="45.6862706" lon="8.6685043"><ele>248.0</ele><time>2026-04-19T14:13:25.564Z</time></trkpt><trkpt lat="45.6861978" lon="8.6684835"><ele>249.0</ele><time>2026-04-19T14:13:27.563Z</time></trkpt><trkpt lat="45.6861276" lon="8.6684633"><ele>250.0</ele><time>2026-04-19T14:13:29.564Z</time></trkpt><trkpt lat="45.6860617" lon="8.6684424"><ele>250.0</ele><time>2026-04-19T14:13:31.564Z</time></trkpt><trkpt lat="45.6859953" lon="8.6684241"><ele>250.0</ele><time>2026-04-19T14:13:33.563Z</time></trkpt><trkpt lat="45.6859235" lon="8.6684036"><ele>250.0</ele><time>2026-04-19T14:13:35.563Z</time></trkpt><trkpt lat="45.6858495" lon="8.6683813"><ele>250.0</ele><time>2026-04-19T14:13:37.564Z</time></trkpt><trkpt lat="45.6857773" lon="8.6683569"><ele>250.0</ele><time>2026-04-19T14:13:39.564Z</time></trkpt><trkpt lat="45.6857041" lon="8.6683307"><ele>250.0</ele><time>2026-04-19T14:13:41.563Z</time></trkpt><trkpt lat="45.6856304" lon="8.6683071"><ele>250.0</ele><time>2026-04-19T14:13:43.564Z</time></trkpt><trkpt lat="45.6855559" lon="8.6682803"><ele>250.0</ele><time>2026-04-19T14:13:45.563Z</time></trkpt><trkpt lat="45.6854823" lon="8.6682547"><ele>250.0</ele><time>2026-04-19T14:13:47.563Z</time></trkpt><trkpt lat="45.6854086" lon="8.6682292"><ele>250.0</ele><time>2026-04-19T14:13:49.563Z</time></trkpt><trkpt lat="45.6853347" lon="8.6682017"><ele>250.0</ele><time>2026-04-19T14:13:51.564Z</time></trkpt><trkpt lat="45.6852633" lon="8.6681765"><ele>250.0</ele><time>2026-04-19T14:13:53.563Z</time></trkpt><trkpt lat="45.6851913" lon="8.6681526"><ele>250.0</ele><time>2026-04-19T14:13:55.564Z</time></trkpt><trkpt lat="45.6851191" lon="8.6681348"><ele>250.0</ele><time>2026-04-19T14:13:57.563Z</time></trkpt><trkpt lat="45.6850481" lon="8.668114"><ele>250.42857142857142</ele><time>2026-04-19T14:13:59.564Z</time></trkpt><trkpt lat="45.6849761" lon="8.6680946"><ele>250.8571428571429</ele><time>2026-04-19T14:14:01.563Z</time></trkpt><trkpt lat="45.6849035" lon="8.6680721"><ele>251.2857142857143</ele><time>2026-04-19T14:14:03.563Z</time></trkpt><trkpt lat="45.6848298" lon="8.6680484"><ele>251.71428571428572</ele><time>2026-04-19T14:14:05.564Z</time></trkpt><trkpt lat="45.6847581" lon="8.6680277"><ele>252.14285714285717</ele><time>2026-04-19T14:14:07.564Z</time></trkpt><trkpt lat="45.6846998" lon="8.6679898"><ele>252.5714285714286</ele><time>2026-04-19T14:14:09.563Z</time></trkpt><trkpt lat="45.6846404" lon="8.667955"><ele>253.00000000000003</ele><time>2026-04-19T14:14:11.563Z</time></trkpt><trkpt lat="45.6845757" lon="8.6679455"><ele>253.00000000000003</ele><time>2026-04-19T14:14:13.563Z</time></trkpt><trkpt lat="45.6845047" lon="8.6679287"><ele>253.0</ele><time>2026-04-19T14:14:15.563Z</time></trkpt><trkpt lat="45.6844312" lon="8.6679139"><ele>253.00000000000003</ele><time>2026-04-19T14:14:17.563Z</time></trkpt><trkpt lat="45.6843555" lon="8.6678981"><ele>253.00000000000003</ele><time>2026-04-19T14:14:19.564Z</time></trkpt><trkpt lat="45.6842805" lon="8.6678799"><ele>253.0</ele><time>2026-04-19T14:14:21.563Z</time></trkpt><trkpt lat="45.684209" lon="8.6678553"><ele>253.00000000000003</ele><time>2026-04-19T14:14:23.564Z</time></trkpt><trkpt lat="45.6841478" lon="8.6678302"><ele>253.00000000000003</ele><time>2026-04-19T14:14:25.564Z</time></trkpt><trkpt lat="45.6840786" lon="8.667804"><ele>253.28571428571433</ele><time>2026-04-19T14:14:27.563Z</time></trkpt><trkpt lat="45.6840122" lon="8.6677702"><ele>253.57142857142858</ele><time>2026-04-19T14:14:29.563Z</time></trkpt><trkpt lat="45.6839516" lon="8.667729"><ele>253.8571428571429</ele><time>2026-04-19T14:14:31.564Z</time></trkpt><trkpt lat="45.6838841" lon="8.6676833"><ele>254.14285714285717</ele><time>2026-04-19T14:14:33.564Z</time></trkpt><trkpt lat="45.6838132" lon="8.6676797"><ele>254.42857142857144</ele><time>2026-04-19T14:14:35.563Z</time></trkpt><trkpt lat="45.6837494" lon="8.6676935"><ele>254.71428571428572</ele><time>2026-04-19T14:14:37.563Z</time></trkpt><trkpt lat="45.6836876" lon="8.6676566"><ele>255.0</ele><time>2026-04-19T14:14:41.564Z</time></trkpt><trkpt lat="45.6836515" lon="8.6675576"><ele>255.0</ele><time>2026-04-19T14:14:44.564Z</time></trkpt><trkpt lat="45.6836259" lon="8.6674523"><ele>255.0</ele><time>2026-04-19T14:14:47.564Z</time></trkpt><trkpt lat="45.6836101" lon="8.6673538"><ele>255.0</ele><time>2026-04-19T14:14:49.564Z</time></trkpt><trkpt lat="45.6835893" lon="8.6672175"><ele>255.0</ele><time>2026-04-19T14:14:52.563Z</time></trkpt><trkpt lat="45.6835611" lon="8.6671359"><ele>255.0</ele><time>2026-04-19T14:14:55.563Z</time></trkpt><trkpt lat="45.6835229" lon="8.6670553"><ele>255.0</ele><time>2026-04-19T14:14:58.564Z</time></trkpt><trkpt lat="45.6834773" lon="8.6669584"><ele>255.0</ele><time>2026-04-19T14:15:01.564Z</time></trkpt><trkpt lat="45.6834362" lon="8.6668534"><ele>255.0</ele><time>2026-04-19T14:15:04.563Z</time></trkpt><trkpt lat="45.6834112" lon="8.6667352"><ele>255.0</ele><time>2026-04-19T14:15:07.563Z</time></trkpt><trkpt lat="45.6834355" lon="8.6666285"><ele>255.0</ele><time>2026-04-19T14:15:09.564Z</time></trkpt><trkpt lat="45.6834508" lon="8.666534"><ele>255.0</ele><time>2026-04-19T14:15:11.564Z</time></trkpt><trkpt lat="45.6834638" lon="8.6664454"><ele>255.0</ele><time>2026-04-19T14:15:15.563Z</time></trkpt><trkpt lat="45.6835228" lon="8.6663791"><ele>255.0</ele><time>2026-04-19T14:15:17.563Z</time></trkpt><trkpt lat="45.6835713" lon="8.6663109"><ele>255.0</ele><time>2026-04-19T14:15:20.564Z</time></trkpt><trkpt lat="45.6836492" lon="8.6662367"><ele>255.0</ele><time>2026-04-19T14:15:23.564Z</time></trkpt><trkpt lat="45.6837241" lon="8.6661954"><ele>255.0</ele><time>2026-04-19T14:15:26.564Z</time></trkpt><trkpt lat="45.6837956" lon="8.6661511"><ele>255.0</ele><time>2026-04-19T14:15:29.564Z</time></trkpt><trkpt lat="45.6838562" lon="8.6660961"><ele>255.0</ele><time>2026-04-19T14:15:32.564Z</time></trkpt><trkpt lat="45.6839384" lon="8.6660784"><ele>254.85714285714286</ele><time>2026-04-19T14:15:35.564Z</time></trkpt><trkpt lat="45.6840044" lon="8.6660549"><ele>254.71428571428572</ele><time>2026-04-19T14:15:37.564Z</time></trkpt><trkpt lat="45.6840823" lon="8.6660482"><ele>254.57142857142858</ele><time>2026-04-19T14:15:40.564Z</time></trkpt><trkpt lat="45.6841511" lon="8.6660272"><ele>254.42857142857144</ele><time>2026-04-19T14:15:42.564Z</time></trkpt><trkpt lat="45.6842216" lon="8.6659903"><ele>254.28571428571428</ele><time>2026-04-19T14:15:44.563Z</time></trkpt><trkpt lat="45.6842918" lon="8.6659787"><ele>254.14285714285717</ele><time>2026-04-19T14:15:46.563Z</time></trkpt><trkpt lat="45.6843609" lon="8.6659562"><ele>254.0</ele><time>2026-04-19T14:15:48.563Z</time></trkpt><trkpt lat="45.6844274" lon="8.6659186"><ele>254.00000000000003</ele><time>2026-04-19T14:15:50.563Z</time></trkpt><trkpt lat="45.6844914" lon="8.6658744"><ele>254.0</ele><time>2026-04-19T14:15:52.563Z</time></trkpt><trkpt lat="45.6845472" lon="8.6658236"><ele>254.0</ele><time>2026-04-19T14:15:54.564Z</time></trkpt><trkpt lat="45.6846245" lon="8.6657749"><ele>254.0</ele><time>2026-04-19T14:15:57.564Z</time></trkpt><trkpt lat="45.6846978" lon="8.6656902"><ele>254.00000000000003</ele><time>2026-04-19T14:16:00.564Z</time></trkpt><trkpt lat="45.6847641" lon="8.6656384"><ele>254.0</ele><time>2026-04-19T14:16:02.564Z</time></trkpt><trkpt lat="45.6848268" lon="8.6655754"><ele>254.00000000000003</ele><time>2026-04-19T14:16:04.564Z</time></trkpt><trkpt lat="45.6849047" lon="8.6655165"><ele>254.0</ele><time>2026-04-19T14:16:06.564Z</time></trkpt><trkpt lat="45.6849765" lon="8.6654665"><ele>254.0</ele><time>2026-04-19T14:16:08.564Z</time></trkpt><trkpt lat="45.6850525" lon="8.6653932"><ele>254.0</ele><time>2026-04-19T14:16:11.564Z</time></trkpt><trkpt lat="45.6851107" lon="8.6653511"><ele>254.00000000000003</ele><time>2026-04-19T14:16:13.564Z</time></trkpt><trkpt lat="45.6851606" lon="8.6652915"><ele>254.0</ele><time>2026-04-19T14:16:15.564Z</time></trkpt><trkpt lat="45.6852225" lon="8.6652409"><ele>254.0</ele><time>2026-04-19T14:16:17.564Z</time></trkpt><trkpt lat="45.6852895" lon="8.6651976"><ele>254.0</ele><time>2026-04-19T14:16:19.564Z</time></trkpt><trkpt lat="45.6853514" lon="8.6651636"><ele>254.0</ele><time>2026-04-19T14:16:21.563Z</time></trkpt><trkpt lat="45.6854211" lon="8.665135"><ele>254.0</ele><time>2026-04-19T14:16:23.563Z</time></trkpt><trkpt lat="45.6854834" lon="8.6650808"><ele>254.0</ele><time>2026-04-19T14:16:25.563Z</time></trkpt><trkpt lat="45.6855475" lon="8.6650382"><ele>254.0</ele><time>2026-04-19T14:16:27.563Z</time></trkpt><trkpt lat="45.6856042" lon="8.6649904"><ele>254.0</ele><time>2026-04-19T14:16:29.564Z</time></trkpt><trkpt lat="45.685663" lon="8.6649297"><ele>254.00000000000003</ele><time>2026-04-19T14:16:32.564Z</time></trkpt><trkpt lat="45.6857243" lon="8.6648726"><ele>254.0</ele><time>2026-04-19T14:16:35.564Z</time></trkpt><trkpt lat="45.6857907" lon="8.6648246"><ele>254.0</ele><time>2026-04-19T14:16:39.564Z</time></trkpt><trkpt lat="45.6857991" lon="8.6647201"><ele>254.0</ele><time>2026-04-19T14:16:43.564Z</time></trkpt><trkpt lat="45.6857544" lon="8.6646039"><ele>254.00000000000003</ele><time>2026-04-19T14:16:46.564Z</time></trkpt><trkpt lat="45.6857222" lon="8.6645189"><ele>254.0</ele><time>2026-04-19T14:16:48.563Z</time></trkpt><trkpt lat="45.6856864" lon="8.6644273"><ele>253.42857142857144</ele><time>2026-04-19T14:16:50.564Z</time></trkpt><trkpt lat="45.6856505" lon="8.6643387"><ele>252.85714285714283</ele><time>2026-04-19T14:16:52.564Z</time></trkpt><trkpt lat="45.6856148" lon="8.6642415"><ele>252.28571428571428</ele><time>2026-04-19T14:16:54.563Z</time></trkpt><trkpt lat="45.6855788" lon="8.6641491"><ele>251.71428571428572</ele><time>2026-04-19T14:16:56.563Z</time></trkpt><trkpt lat="45.6855453" lon="8.6640543"><ele>251.14285714285717</ele><time>2026-04-19T14:16:58.563Z</time></trkpt><trkpt lat="45.6855066" lon="8.6639617"><ele>250.57142857142856</ele><time>2026-04-19T14:17:00.563Z</time></trkpt><trkpt lat="45.6854706" lon="8.6638667"><ele>250.0</ele><time>2026-04-19T14:17:02.563Z</time></trkpt><trkpt lat="45.6854363" lon="8.6637702"><ele>249.99999999999997</ele><time>2026-04-19T14:17:04.564Z</time></trkpt><trkpt lat="45.6854028" lon="8.6636721"><ele>250.0</ele><time>2026-04-19T14:17:06.564Z</time></trkpt><trkpt lat="45.6853687" lon="8.6635719"><ele>250.0</ele><time>2026-04-19T14:17:08.563Z</time></trkpt><trkpt lat="45.685332" lon="8.6634715"><ele>250.0</ele><time>2026-04-19T14:17:10.564Z</time></trkpt><trkpt lat="45.6852967" lon="8.6633672"><ele>249.99999999999997</ele><time>2026-04-19T14:17:12.563Z</time></trkpt><trkpt lat="45.6852553" lon="8.663265"><ele>250.0</ele><time>2026-04-19T14:17:14.564Z</time></trkpt><trkpt lat="45.6852158" lon="8.663159"><ele>249.16666666666666</ele><time>2026-04-19T14:17:16.563Z</time></trkpt><trkpt lat="45.6851798" lon="8.6630499"><ele>248.33333333333331</ele><time>2026-04-19T14:17:18.564Z</time></trkpt><trkpt lat="45.6851421" lon="8.6629435"><ele>247.5</ele><time>2026-04-19T14:17:20.564Z</time></trkpt><trkpt lat="45.6851037" lon="8.6628346"><ele>246.66666666666669</ele><time>2026-04-19T14:17:22.563Z</time></trkpt><trkpt lat="45.6850632" lon="8.6627256"><ele>245.83333333333334</ele><time>2026-04-19T14:17:24.563Z</time></trkpt><trkpt lat="45.6850223" lon="8.662617"><ele>245.0</ele><time>2026-04-19T14:17:26.564Z</time></trkpt><trkpt lat="45.6849853" lon="8.6625125"><ele>245.00000000000003</ele><time>2026-04-19T14:17:28.564Z</time></trkpt><trkpt lat="45.6849465" lon="8.6624071"><ele>245.0</ele><time>2026-04-19T14:17:30.563Z</time></trkpt><trkpt lat="45.6849038" lon="8.6623058"><ele>245.0</ele><time>2026-04-19T14:17:32.563Z</time></trkpt><trkpt lat="45.6848661" lon="8.662197"><ele>245.0</ele><time>2026-04-19T14:17:34.564Z</time></trkpt><trkpt lat="45.6848284" lon="8.6620864"><ele>245.00000000000003</ele><time>2026-04-19T14:17:36.564Z</time></trkpt><trkpt lat="45.6847877" lon="8.6619771"><ele>245.0</ele><time>2026-04-19T14:17:38.564Z</time></trkpt><trkpt lat="45.6847485" lon="8.6618651"><ele>245.16666666666669</ele><time>2026-04-19T14:17:40.563Z</time></trkpt><trkpt lat="45.6847075" lon="8.661756"><ele>245.33333333333334</ele><time>2026-04-19T14:17:42.563Z</time></trkpt><trkpt lat="45.6846648" lon="8.6616475"><ele>245.5</ele><time>2026-04-19T14:17:44.564Z</time></trkpt><trkpt lat="45.6846229" lon="8.6615355"><ele>245.66666666666669</ele><time>2026-04-19T14:17:46.564Z</time></trkpt><trkpt lat="45.6845811" lon="8.6614193"><ele>245.83333333333334</ele><time>2026-04-19T14:17:48.564Z</time></trkpt><trkpt lat="45.6845354" lon="8.6613037"><ele>246.0</ele><time>2026-04-19T14:17:50.563Z</time></trkpt><trkpt lat="45.6844919" lon="8.6611877"><ele>246.0</ele><time>2026-04-19T14:17:52.564Z</time></trkpt><trkpt lat="45.6844496" lon="8.6610764"><ele>246.00000000000003</ele><time>2026-04-19T14:17:54.564Z</time></trkpt><trkpt lat="45.6844105" lon="8.6609641"><ele>246.00000000000003</ele><time>2026-04-19T14:17:56.563Z</time></trkpt><trkpt lat="45.6843673" lon="8.660851"><ele>246.0</ele><time>2026-04-19T14:17:58.564Z</time></trkpt><trkpt lat="45.6843241" lon="8.6607342"><ele>246.0</ele><time>2026-04-19T14:18:00.563Z</time></trkpt><trkpt lat="45.6842792" lon="8.6606191"><ele>246.33333333333334</ele><time>2026-04-19T14:18:02.564Z</time></trkpt><trkpt lat="45.6842352" lon="8.660504"><ele>246.66666666666669</ele><time>2026-04-19T14:18:04.563Z</time></trkpt><trkpt lat="45.6841933" lon="8.6603924"><ele>247.0</ele><time>2026-04-19T14:18:06.564Z</time></trkpt><trkpt lat="45.6841574" lon="8.6602984"><ele>247.33333333333334</ele><time>2026-04-19T14:18:08.564Z</time></trkpt><trkpt lat="45.6841275" lon="8.6601856"><ele>247.66666666666669</ele><time>2026-04-19T14:18:11.563Z</time></trkpt><trkpt lat="45.6841033" lon="8.6601003"><ele>248.0</ele><time>2026-04-19T14:18:52.564Z</time></trkpt><trkpt lat="45.6840753" lon="8.6600121"><ele>248.14285714285717</ele><time>2026-04-19T14:19:04.564Z</time></trkpt><trkpt lat="45.6840401" lon="8.6599184"><ele>248.2857142857143</ele><time>2026-04-19T14:19:10.563Z</time></trkpt><trkpt lat="45.6840071" lon="8.6598247"><ele>248.42857142857144</ele><time>2026-04-19T14:19:15.564Z</time></trkpt><trkpt lat="45.6839867" lon="8.6597224"><ele>248.57142857142856</ele><time>2026-04-19T14:19:20.563Z</time></trkpt><trkpt lat="45.6839183" lon="8.6597465"><ele>248.7142857142857</ele><time>2026-04-19T14:19:25.563Z</time></trkpt><trkpt lat="45.6839444" lon="8.6596614"><ele>248.85714285714283</ele><time>2026-04-19T14:19:43.564Z</time></trkpt><trkpt lat="45.6839417" lon="8.6595689"><ele>249.0</ele><time>2026-04-19T14:19:49.564Z</time></trkpt><trkpt lat="45.6839377" lon="8.6594777"><ele>249.0</ele><time>2026-04-19T14:19:52.563Z</time></trkpt><trkpt lat="45.6839324" lon="8.6593808"><ele>248.99999999999997</ele><time>2026-04-19T14:19:58.564Z</time></trkpt><trkpt lat="45.6838752" lon="8.6593283"><ele>249.0</ele><time>2026-04-19T14:20:31.564Z</time></trkpt><trkpt lat="45.6839186" lon="8.659421"><ele>249.0</ele><time>2026-04-19T14:21:00.563Z</time></trkpt><trkpt lat="45.6839566" lon="8.6594987"><ele>248.99999999999997</ele><time>2026-04-19T14:21:04.564Z</time></trkpt><trkpt lat="45.6839843" lon="8.6595903"><ele>249.0</ele><time>2026-04-19T14:21:09.563Z</time></trkpt><trkpt lat="45.6840333" lon="8.6596553"><ele>249.0</ele><time>2026-04-19T14:21:15.557Z</time></trkpt><trkpt lat="45.6840815" lon="8.659719"><ele>249.0</ele><time>2026-04-19T14:21:21.564Z</time></trkpt><trkpt lat="45.6841197" lon="8.6597966"><ele>248.99999999999997</ele><time>2026-04-19T14:21:26.564Z</time></trkpt><trkpt lat="45.6841238" lon="8.6598943"><ele>249.0</ele><time>2026-04-19T14:21:31.564Z</time></trkpt><trkpt lat="45.6841207" lon="8.6599885"><ele>249.0</ele><time>2026-04-19T14:21:36.564Z</time></trkpt><trkpt lat="45.6841201" lon="8.6600818"><ele>248.99999999999997</ele><time>2026-04-19T14:21:42.564Z</time></trkpt><trkpt lat="45.6841538" lon="8.6601608"><ele>249.0</ele><time>2026-04-19T14:22:00.495Z</time></trkpt><trkpt lat="45.6840902" lon="8.6601433"><ele>249.0</ele><time>2026-04-19T14:22:25.564Z</time></trkpt><trkpt lat="45.6840474" lon="8.6600699"><ele>249.0</ele><time>2026-04-19T14:22:29.567Z</time></trkpt><trkpt lat="45.6840326" lon="8.659966"><ele>248.99999999999997</ele><time>2026-04-19T14:22:32.564Z</time></trkpt><trkpt lat="45.6839851" lon="8.6599045"><ele>248.99999999999997</ele><time>2026-04-19T14:22:35.564Z</time></trkpt><trkpt lat="45.6839382" lon="8.6597279"><ele>249.0</ele><time>2026-04-19T14:22:36.564Z</time></trkpt><trkpt lat="45.6838824" lon="8.6596022"><ele>249.0</ele><time>2026-04-19T14:22:37.563Z</time></trkpt><trkpt lat="45.6838388" lon="8.6594875"><ele>248.39999999999998</ele><time>2026-04-19T14:22:39.564Z</time></trkpt><trkpt lat="45.683795" lon="8.6593583"><ele>247.79999999999998</ele><time>2026-04-19T14:22:41.564Z</time></trkpt><trkpt lat="45.6837525" lon="8.6592267"><ele>247.20000000000002</ele><time>2026-04-19T14:22:43.563Z</time></trkpt><trkpt lat="45.6837092" lon="8.6590955"><ele>246.60000000000002</ele><time>2026-04-19T14:22:45.564Z</time></trkpt><trkpt lat="45.683662" lon="8.6589609"><ele>246.0</ele><time>2026-04-19T14:22:47.563Z</time></trkpt><trkpt lat="45.6836145" lon="8.6588228"><ele>246.0</ele><time>2026-04-19T14:22:49.563Z</time></trkpt><trkpt lat="45.6835677" lon="8.6586925"><ele>246.0</ele><time>2026-04-19T14:22:51.563Z</time></trkpt><trkpt lat="45.6835237" lon="8.6585659"><ele>246.0</ele><time>2026-04-19T14:22:53.564Z</time></trkpt><trkpt lat="45.6834627" lon="8.6584752"><ele>246.0</ele><time>2026-04-19T14:22:56.563Z</time></trkpt><trkpt lat="45.6834216" lon="8.6583603"><ele>246.0</ele><time>2026-04-19T14:22:59.564Z</time></trkpt><trkpt lat="45.6833968" lon="8.6582771"><ele>246.0</ele><time>2026-04-19T14:23:01.564Z</time></trkpt><trkpt lat="45.6833456" lon="8.6581811"><ele>246.14285714285717</ele><time>2026-04-19T14:23:04.564Z</time></trkpt><trkpt lat="45.6833152" lon="8.6580827"><ele>246.28571428571428</ele><time>2026-04-19T14:23:41.564Z</time></trkpt><trkpt lat="45.6832945" lon="8.6579703"><ele>246.42857142857144</ele><time>2026-04-19T14:23:44.563Z</time></trkpt><trkpt lat="45.6832667" lon="8.657885"><ele>246.57142857142858</ele><time>2026-04-19T14:23:46.564Z</time></trkpt><trkpt lat="45.6832362" lon="8.6578034"><ele>246.71428571428572</ele><time>2026-04-19T14:23:48.563Z</time></trkpt><trkpt lat="45.6832189" lon="8.6577062"><ele>246.85714285714286</ele><time>2026-04-19T14:23:57.563Z</time></trkpt><trkpt lat="45.6831771" lon="8.6576027"><ele>247.0</ele><time>2026-04-19T14:24:00.564Z</time></trkpt><trkpt lat="45.6831419" lon="8.6575221"><ele>247.66666666666666</ele><time>2026-04-19T14:24:02.564Z</time></trkpt><trkpt lat="45.6831045" lon="8.6574286"><ele>248.33333333333331</ele><time>2026-04-19T14:24:04.564Z</time></trkpt><trkpt lat="45.6830622" lon="8.6573414"><ele>249.0</ele><time>2026-04-19T14:24:06.563Z</time></trkpt><trkpt lat="45.6830156" lon="8.6572436"><ele>249.66666666666669</ele><time>2026-04-19T14:24:08.564Z</time></trkpt><trkpt lat="45.6829778" lon="8.6571353"><ele>250.33333333333334</ele><time>2026-04-19T14:24:10.564Z</time></trkpt><trkpt lat="45.6829379" lon="8.6570292"><ele>251.0</ele><time>2026-04-19T14:24:12.564Z</time></trkpt><trkpt lat="45.6828958" lon="8.6569173"><ele>251.33333333333334</ele><time>2026-04-19T14:24:14.564Z</time></trkpt><trkpt lat="45.6828564" lon="8.6568016"><ele>251.66666666666669</ele><time>2026-04-19T14:24:16.564Z</time></trkpt><trkpt lat="45.6828203" lon="8.6566825"><ele>252.0</ele><time>2026-04-19T14:24:18.563Z</time></trkpt><trkpt lat="45.6827835" lon="8.6565678"><ele>252.33333333333331</ele><time>2026-04-19T14:24:20.564Z</time></trkpt><trkpt lat="45.6827454" lon="8.6564625"><ele>252.66666666666666</ele><time>2026-04-19T14:24:22.564Z</time></trkpt><trkpt lat="45.6827055" lon="8.6563534"><ele>253.0</ele><time>2026-04-19T14:24:24.563Z</time></trkpt><trkpt lat="45.6826745" lon="8.6562502"><ele>252.99999999999997</ele><time>2026-04-19T14:24:26.564Z</time></trkpt><trkpt lat="45.6826309" lon="8.6561448"><ele>253.0</ele><time>2026-04-19T14:24:28.564Z</time></trkpt><trkpt lat="45.6825919" lon="8.6560321"><ele>253.0</ele><time>2026-04-19T14:24:30.564Z</time></trkpt><trkpt lat="45.6825584" lon="8.6559267"><ele>253.0</ele><time>2026-04-19T14:24:32.563Z</time></trkpt><trkpt lat="45.6825199" lon="8.655825"><ele>252.99999999999997</ele><time>2026-04-19T14:24:34.563Z</time></trkpt><trkpt lat="45.6824717" lon="8.6557286"><ele>253.0</ele><time>2026-04-19T14:24:36.564Z</time></trkpt><trkpt lat="45.6824396" lon="8.6556226"><ele>253.28571428571433</ele><time>2026-04-19T14:24:38.563Z</time></trkpt><trkpt lat="45.682472" lon="8.6555412"><ele>253.57142857142858</ele><time>2026-04-19T14:24:40.564Z</time></trkpt><trkpt lat="45.6825493" lon="8.6555638"><ele>253.8571428571429</ele><time>2026-04-19T14:24:43.563Z</time></trkpt><trkpt lat="45.6826284" lon="8.6556258"><ele>254.14285714285717</ele><time>2026-04-19T14:24:46.564Z</time></trkpt><trkpt lat="45.6826844" lon="8.6556881"><ele>254.42857142857144</ele><time>2026-04-19T14:24:48.563Z</time></trkpt><trkpt lat="45.6827395" lon="8.6557642"><ele>254.71428571428572</ele><time>2026-04-19T14:24:50.564Z</time></trkpt><trkpt lat="45.6827975" lon="8.6558094"><ele>255.0</ele><time>2026-04-19T14:24:52.564Z</time></trkpt><trkpt lat="45.6828668" lon="8.6558656"><ele>255.66666666666666</ele><time>2026-04-19T14:24:54.564Z</time></trkpt><trkpt lat="45.682941" lon="8.6558791"><ele>256.3333333333333</ele><time>2026-04-19T14:24:57.563Z</time></trkpt><trkpt lat="45.6829831" lon="8.6557652"><ele>257.0</ele><time>2026-04-19T14:25:00.564Z</time></trkpt><trkpt lat="45.68301" lon="8.6556511"><ele>257.66666666666663</ele><time>2026-04-19T14:25:03.563Z</time></trkpt><trkpt lat="45.6830383" lon="8.6555405"><ele>258.3333333333333</ele><time>2026-04-19T14:25:06.564Z</time></trkpt><trkpt lat="45.6830753" lon="8.6554339"><ele>259.0</ele><time>2026-04-19T14:25:10.564Z</time></trkpt><trkpt lat="45.6831018" lon="8.6553137"><ele>259.42857142857144</ele><time>2026-04-19T14:25:14.563Z</time></trkpt><trkpt lat="45.6831346" lon="8.6552252"><ele>259.8571428571429</ele><time>2026-04-19T14:25:16.564Z</time></trkpt><trkpt lat="45.6831413" lon="8.6551272"><ele>260.2857142857143</ele><time>2026-04-19T14:25:19.564Z</time></trkpt><trkpt lat="45.6831479" lon="8.6550193"><ele>260.7142857142857</ele><time>2026-04-19T14:25:23.564Z</time></trkpt><trkpt lat="45.6831593" lon="8.6549224"><ele>261.14285714285717</ele><time>2026-04-19T14:25:27.563Z</time></trkpt><trkpt lat="45.683165" lon="8.6548252"><ele>261.57142857142856</ele><time>2026-04-19T14:25:31.564Z</time></trkpt><trkpt lat="45.6831791" lon="8.6547198"><ele>262.0</ele><time>2026-04-19T14:25:36.496Z</time></trkpt><trkpt lat="45.683185" lon="8.6546263"><ele>262.0</ele><time>2026-04-19T14:25:40.54Z</time></trkpt><trkpt lat="45.6832001" lon="8.6545163"><ele>262.0</ele><time>2026-04-19T14:25:43.564Z</time></trkpt><trkpt lat="45.6832269" lon="8.6544149"><ele>262.0</ele><time>2026-04-19T14:25:46.564Z</time></trkpt><trkpt lat="45.6832316" lon="8.6543182"><ele>262.0</ele><time>2026-04-19T14:25:50.564Z</time></trkpt><trkpt lat="45.6832224" lon="8.6542104"><ele>262.0</ele><time>2026-04-19T14:25:55.594Z</time></trkpt><trkpt lat="45.6832266" lon="8.6541138"><ele>262.0</ele><time>2026-04-19T14:25:59.564Z</time></trkpt><trkpt lat="45.6832371" lon="8.6540116"><ele>262.0</ele><time>2026-04-19T14:26:03.564Z</time></trkpt><trkpt lat="45.6832458" lon="8.6538912"><ele>262.0</ele><time>2026-04-19T14:26:07.651Z</time></trkpt><trkpt lat="45.6832526" lon="8.6537778"><ele>262.0</ele><time>2026-04-19T14:26:12.564Z</time></trkpt><trkpt lat="45.6832569" lon="8.6536626"><ele>262.0</ele><time>2026-04-19T14:26:16.564Z</time></trkpt><trkpt lat="45.6832619" lon="8.6535674"><ele>262.0</ele><time>2026-04-19T14:26:20.563Z</time></trkpt><trkpt lat="45.6832951" lon="8.6534854"><ele>262.0</ele><time>2026-04-19T14:26:25.563Z</time></trkpt><trkpt lat="45.6833666" lon="8.6535102"><ele>262.0</ele><time>2026-04-19T14:26:29.564Z</time></trkpt><trkpt lat="45.6834545" lon="8.6535486"><ele>262.0</ele><time>2026-04-19T14:26:32.563Z</time></trkpt><trkpt lat="45.6835299" lon="8.653604"><ele>262.0</ele><time>2026-04-19T14:26:34.563Z</time></trkpt><trkpt lat="45.6835994" lon="8.6536348"><ele>262.0</ele><time>2026-04-19T14:26:36.563Z</time></trkpt><trkpt lat="45.6836639" lon="8.6536467"><ele>262.0</ele><time>2026-04-19T14:26:38.564Z</time></trkpt><trkpt lat="45.683752" lon="8.6536668"><ele>262.0</ele><time>2026-04-19T14:26:41.563Z</time></trkpt><trkpt lat="45.6838177" lon="8.6536763"><ele>262.0</ele><time>2026-04-19T14:26:43.563Z</time></trkpt><trkpt lat="45.6838832" lon="8.6536943"><ele>262.0</ele><time>2026-04-19T14:26:45.563Z</time></trkpt><trkpt lat="45.6839451" lon="8.6537233"><ele>262.0</ele><time>2026-04-19T14:26:47.563Z</time></trkpt><trkpt lat="45.6840362" lon="8.6537446"><ele>262.0</ele><time>2026-04-19T14:26:50.564Z</time></trkpt><trkpt lat="45.6841272" lon="8.6537599"><ele>262.0</ele><time>2026-04-19T14:26:53.563Z</time></trkpt><trkpt lat="45.6841945" lon="8.6537797"><ele>262.0</ele><time>2026-04-19T14:26:56.564Z</time></trkpt><trkpt lat="45.6842603" lon="8.6537691"><ele>262.0</ele><time>2026-04-19T14:26:59.563Z</time></trkpt><trkpt lat="45.6843263" lon="8.6537532"><ele>262.0</ele><time>2026-04-19T14:27:02.564Z</time></trkpt><trkpt lat="45.6844087" lon="8.653752"><ele>262.0</ele><time>2026-04-19T14:27:05.564Z</time></trkpt><trkpt lat="45.6844906" lon="8.6537573"><ele>262.0</ele><time>2026-04-19T14:27:08.564Z</time></trkpt><trkpt lat="45.684416" lon="8.6537912"><ele>262.0</ele><time>2026-04-19T14:27:18.564Z</time></trkpt><trkpt lat="45.684321" lon="8.6538111"><ele>262.0</ele><time>2026-04-19T14:27:21.564Z</time></trkpt><trkpt lat="45.6842519" lon="8.6538221"><ele>262.0</ele><time>2026-04-19T14:27:23.563Z</time></trkpt><trkpt lat="45.6841833" lon="8.6538146"><ele>262.0</ele><time>2026-04-19T14:27:25.564Z</time></trkpt><trkpt lat="45.6841086" lon="8.6538012"><ele>262.0</ele><time>2026-04-19T14:27:27.564Z</time></trkpt><trkpt lat="45.6840368" lon="8.6537987"><ele>262.0</ele><time>2026-04-19T14:27:29.563Z</time></trkpt><trkpt lat="45.6839627" lon="8.653789"><ele>262.0</ele><time>2026-04-19T14:27:31.563Z</time></trkpt><trkpt lat="45.6838837" lon="8.6537687"><ele>262.0</ele><time>2026-04-19T14:27:33.563Z</time></trkpt><trkpt lat="45.6838104" lon="8.65375"><ele>262.0</ele><time>2026-04-19T14:27:35.564Z</time></trkpt><trkpt lat="45.6837347" lon="8.6537293"><ele>262.0</ele><time>2026-04-19T14:27:37.563Z</time></trkpt><trkpt lat="45.6836565" lon="8.6537113"><ele>262.0</ele><time>2026-04-19T14:27:39.564Z</time></trkpt><trkpt lat="45.6835789" lon="8.6536895"><ele>262.0</ele><time>2026-04-19T14:27:41.563Z</time></trkpt><trkpt lat="45.6835118" lon="8.653645"><ele>262.0</ele><time>2026-04-19T14:27:43.564Z</time></trkpt><trkpt lat="45.6834482" lon="8.6536042"><ele>262.0</ele><time>2026-04-19T14:27:45.564Z</time></trkpt><trkpt lat="45.6833652" lon="8.6535692"><ele>262.0</ele><time>2026-04-19T14:27:48.563Z</time></trkpt><trkpt lat="45.6833034" lon="8.6534878"><ele>262.0</ele><time>2026-04-19T14:27:51.563Z</time></trkpt><trkpt lat="45.6832942" lon="8.6533518"><ele>261.66666666666663</ele><time>2026-04-19T14:27:54.564Z</time></trkpt><trkpt lat="45.6833041" lon="8.6532392"><ele>261.3333333333333</ele><time>2026-04-19T14:27:57.564Z</time></trkpt><trkpt lat="45.6833101" lon="8.6531033"><ele>261.0</ele><time>2026-04-19T14:28:00.564Z</time></trkpt><trkpt lat="45.6833211" lon="8.6530032"><ele>260.6666666666667</ele><time>2026-04-19T14:28:02.564Z</time></trkpt><trkpt lat="45.6833233" lon="8.6529104"><ele>260.33333333333337</ele><time>2026-04-19T14:28:04.564Z</time></trkpt><trkpt lat="45.6833352" lon="8.6528125"><ele>260.0</ele><time>2026-04-19T14:28:06.563Z</time></trkpt><trkpt lat="45.6833497" lon="8.652668"><ele>260.0</ele><time>2026-04-19T14:28:09.564Z</time></trkpt><trkpt lat="45.6833611" lon="8.6525469"><ele>260.0</ele><time>2026-04-19T14:28:11.563Z</time></trkpt><trkpt lat="45.6833785" lon="8.6524093"><ele>260.0</ele><time>2026-04-19T14:28:13.564Z</time></trkpt><trkpt lat="45.683394" lon="8.6522887"><ele>260.0</ele><time>2026-04-19T14:28:15.563Z</time></trkpt><trkpt lat="45.6833889" lon="8.6521618"><ele>260.0</ele><time>2026-04-19T14:28:17.564Z</time></trkpt><trkpt lat="45.6833936" lon="8.6520204"><ele>260.5</ele><time>2026-04-19T14:28:19.564Z</time></trkpt><trkpt lat="45.6834029" lon="8.6518996"><ele>261.0</ele><time>2026-04-19T14:28:21.563Z</time></trkpt><trkpt lat="45.6834081" lon="8.6517945"><ele>261.5</ele><time>2026-04-19T14:28:23.563Z</time></trkpt><trkpt lat="45.6834016" lon="8.6517021"><ele>262.0</ele><time>2026-04-19T14:28:25.564Z</time></trkpt><trkpt lat="45.6834157" lon="8.6515794"><ele>262.5</ele><time>2026-04-19T14:28:27.564Z</time></trkpt><trkpt lat="45.6834325" lon="8.6514442"><ele>263.0</ele><time>2026-04-19T14:28:29.564Z</time></trkpt><trkpt lat="45.6834349" lon="8.6513185"><ele>263.0</ele><time>2026-04-19T14:28:31.564Z</time></trkpt><trkpt lat="45.6834692" lon="8.6511876"><ele>263.0</ele><time>2026-04-19T14:28:33.563Z</time></trkpt><trkpt lat="45.6835582" lon="8.6511498"><ele>263.0</ele><time>2026-04-19T14:28:35.564Z</time></trkpt><trkpt lat="45.6836491" lon="8.6511492"><ele>263.0</ele><time>2026-04-19T14:28:37.564Z</time></trkpt><trkpt lat="45.6837183" lon="8.6511495"><ele>263.0</ele><time>2026-04-19T14:28:39.564Z</time></trkpt><trkpt lat="45.6838076" lon="8.6511491"><ele>263.0</ele><time>2026-04-19T14:28:42.564Z</time></trkpt><trkpt lat="45.6838756" lon="8.6511518"><ele>263.0</ele><time>2026-04-19T14:28:44.563Z</time></trkpt><trkpt lat="45.6839524" lon="8.651163"><ele>263.0</ele><time>2026-04-19T14:28:46.564Z</time></trkpt><trkpt lat="45.6840281" lon="8.6511738"><ele>263.0</ele><time>2026-04-19T14:28:48.564Z</time></trkpt><trkpt lat="45.6841138" lon="8.651177"><ele>263.0</ele><time>2026-04-19T14:28:51.564Z</time></trkpt><trkpt lat="45.6841814" lon="8.6511241"><ele>263.0</ele><time>2026-04-19T14:28:54.564Z</time></trkpt><trkpt lat="45.6841869" lon="8.6510008"><ele>263.0</ele><time>2026-04-19T14:28:57.564Z</time></trkpt><trkpt lat="45.6842105" lon="8.6509064"><ele>263.0</ele><time>2026-04-19T14:28:59.564Z</time></trkpt><trkpt lat="45.6842362" lon="8.6508079"><ele>263.0</ele><time>2026-04-19T14:29:01.564Z</time></trkpt><trkpt lat="45.6842555" lon="8.6507108"><ele>263.0</ele><time>2026-04-19T14:29:03.564Z</time></trkpt><trkpt lat="45.6842479" lon="8.6506159"><ele>263.0</ele><time>2026-04-19T14:29:05.564Z</time></trkpt><trkpt lat="45.6842287" lon="8.6505233"><ele>263.0</ele><time>2026-04-19T14:29:07.564Z</time></trkpt><trkpt lat="45.6842029" lon="8.6504179"><ele>263.0</ele><time>2026-04-19T14:29:10.564Z</time></trkpt><trkpt lat="45.6842039" lon="8.6503043"><ele>263.0</ele><time>2026-04-19T14:29:16.563Z</time></trkpt><trkpt lat="45.6841889" lon="8.6502082"><ele>262.33333333333337</ele><time>2026-04-19T14:29:19.563Z</time></trkpt><trkpt lat="45.6841806" lon="8.6501112"><ele>261.6666666666667</ele><time>2026-04-19T14:29:22.564Z</time></trkpt><trkpt lat="45.6841624" lon="8.6500124"><ele>261.0</ele><time>2026-04-19T14:29:27.564Z</time></trkpt><trkpt lat="45.6841599" lon="8.6498937"><ele>260.3333333333333</ele><time>2026-04-19T14:29:30.563Z</time></trkpt><trkpt lat="45.6841469" lon="8.6497965"><ele>259.66666666666663</ele><time>2026-04-19T14:29:33.563Z</time></trkpt><trkpt lat="45.684144" lon="8.6496838"><ele>259.0</ele><time>2026-04-19T14:29:36.564Z</time></trkpt><trkpt lat="45.6841325" lon="8.6495712"><ele>259.0</ele><time>2026-04-19T14:29:39.564Z</time></trkpt><trkpt lat="45.6841311" lon="8.6494635"><ele>259.0</ele><time>2026-04-19T14:29:42.563Z</time></trkpt><trkpt lat="45.6841323" lon="8.6493693"><ele>259.0</ele><time>2026-04-19T14:29:45.564Z</time></trkpt><trkpt lat="45.6841332" lon="8.6492694"><ele>259.0</ele><time>2026-04-19T14:29:48.564Z</time></trkpt><trkpt lat="45.6841448" lon="8.6491618"><ele>259.0</ele><time>2026-04-19T14:29:51.564Z</time></trkpt><trkpt lat="45.6841568" lon="8.6490576"><ele>259.0</ele><time>2026-04-19T14:29:54.564Z</time></trkpt><trkpt lat="45.6841473" lon="8.6489559"><ele>259.0</ele><time>2026-04-19T14:29:57.563Z</time></trkpt><trkpt lat="45.6841369" lon="8.6488658"><ele>258.57142857142856</ele><time>2026-04-19T14:30:01.564Z</time></trkpt><trkpt lat="45.6841422" lon="8.6487661"><ele>258.1428571428571</ele><time>2026-04-19T14:30:06.651Z</time></trkpt><trkpt lat="45.6841891" lon="8.6486893"><ele>257.7142857142857</ele><time>2026-04-19T14:30:09.563Z</time></trkpt><trkpt lat="45.6842412" lon="8.648626"><ele>257.2857142857143</ele><time>2026-04-19T14:30:12.563Z</time></trkpt><trkpt lat="45.6842937" lon="8.6485427"><ele>256.85714285714283</ele><time>2026-04-19T14:30:17.564Z</time></trkpt><trkpt lat="45.6843469" lon="8.6484808"><ele>256.42857142857144</ele><time>2026-04-19T14:30:24.563Z</time></trkpt><trkpt lat="45.6844142" lon="8.6484531"><ele>256.0</ele><time>2026-04-19T14:30:34.563Z</time></trkpt><trkpt lat="45.6843545" lon="8.6484221"><ele>256.0</ele><time>2026-04-19T14:30:42.234Z</time></trkpt><trkpt lat="45.6843067" lon="8.6483597"><ele>256.0</ele><time>2026-04-19T14:30:48.501Z</time></trkpt><trkpt lat="45.6842894" lon="8.6485915"><ele>256.0</ele><time>2026-04-19T14:30:49.563Z</time></trkpt><trkpt lat="45.6842807" lon="8.6487287"><ele>256.0</ele><time>2026-04-19T14:30:50.564Z</time></trkpt><trkpt lat="45.6842462" lon="8.6488071"><ele>256.0</ele><time>2026-04-19T14:30:59.564Z</time></trkpt><trkpt lat="45.6842982" lon="8.648863"><ele>256.0</ele><time>2026-04-19T14:31:11.564Z</time></trkpt><trkpt lat="45.6843508" lon="8.648798"><ele>255.99999999999997</ele><time>2026-04-19T14:31:16.641Z</time></trkpt><trkpt lat="45.68435" lon="8.6486431"><ele>256.0</ele><time>2026-04-19T14:31:19.564Z</time></trkpt><trkpt lat="45.6843966" lon="8.6485775"><ele>256.0</ele><time>2026-04-19T14:31:24.563Z</time></trkpt><trkpt lat="45.6844505" lon="8.648507"><ele>255.99999999999997</ele><time>2026-04-19T14:31:27.564Z</time></trkpt><trkpt lat="45.6845034" lon="8.6484557"><ele>256.0</ele><time>2026-04-19T14:31:36.564Z</time></trkpt><trkpt lat="45.6845503" lon="8.6483933"><ele>256.0</ele><time>2026-04-19T14:31:41.662Z</time></trkpt><trkpt lat="45.6846025" lon="8.6483427"><ele>256.0</ele><time>2026-04-19T14:31:47.473Z</time></trkpt><trkpt lat="45.6846669" lon="8.6482968"><ele>255.99999999999997</ele><time>2026-04-19T14:31:53.563Z</time></trkpt><trkpt lat="45.6847336" lon="8.6482987"><ele>256.0</ele><time>2026-04-19T14:31:59.563Z</time></trkpt><trkpt lat="45.6847868" lon="8.6482374"><ele>256.0</ele><time>2026-04-19T14:32:06.563Z</time></trkpt><trkpt lat="45.6848542" lon="8.6482292"><ele>255.99999999999997</ele><time>2026-04-19T14:32:14.478Z</time></trkpt><trkpt lat="45.6849087" lon="8.6482838"><ele>256.0</ele><time>2026-04-19T14:32:24.563Z</time></trkpt><trkpt lat="45.6849693" lon="8.6482499"><ele>256.0</ele><time>2026-04-19T14:32:43.564Z</time></trkpt><trkpt lat="45.684941" lon="8.6481628"><ele>256.0</ele><time>2026-04-19T14:32:48.564Z</time></trkpt><trkpt lat="45.6849267" lon="8.6480535"><ele>255.99999999999997</ele><time>2026-04-19T14:32:52.564Z</time></trkpt><trkpt lat="45.6849453" lon="8.6479407"><ele>256.0</ele><time>2026-04-19T14:32:56.563Z</time></trkpt><trkpt lat="45.6849737" lon="8.6478531"><ele>256.0</ele><time>2026-04-19T14:32:59.564Z</time></trkpt><trkpt lat="45.6850065" lon="8.6477647"><ele>255.99999999999997</ele><time>2026-04-19T14:33:02.563Z</time></trkpt><trkpt lat="45.6850519" lon="8.6476754"><ele>256.0</ele><time>2026-04-19T14:33:06.564Z</time></trkpt><trkpt lat="45.6850911" lon="8.6475925"><ele>256.0</ele><time>2026-04-19T14:33:09.563Z</time></trkpt><trkpt lat="45.6851269" lon="8.6475146"><ele>255.49999999999997</ele><time>2026-04-19T14:33:12.563Z</time></trkpt><trkpt lat="45.6851763" lon="8.6474484"><ele>255.0</ele><time>2026-04-19T14:33:15.563Z</time></trkpt><trkpt lat="45.6852004" lon="8.6475328"><ele>254.5</ele><time>2026-04-19T14:33:20.564Z</time></trkpt><trkpt lat="45.6851701" lon="8.6474214"><ele>254.0</ele><time>2026-04-19T14:35:32.564Z</time></trkpt><trkpt lat="45.6852072" lon="8.6473232"><ele>253.49999999999997</ele><time>2026-04-19T14:35:37.563Z</time></trkpt><trkpt lat="45.6852414" lon="8.6472302"><ele>253.0</ele><time>2026-04-19T14:35:41.564Z</time></trkpt><trkpt lat="45.6852899" lon="8.6470983"><ele>253.66666666666666</ele><time>2026-04-19T14:35:44.564Z</time></trkpt><trkpt lat="45.6853213" lon="8.6469944"><ele>254.33333333333331</ele><time>2026-04-19T14:35:46.563Z</time></trkpt><trkpt lat="45.6853547" lon="8.6468818"><ele>255.0</ele><time>2026-04-19T14:35:49.564Z</time></trkpt><trkpt lat="45.6853967" lon="8.6467743"><ele>255.66666666666669</ele><time>2026-04-19T14:35:52.564Z</time></trkpt><trkpt lat="45.6854272" lon="8.6466904"><ele>256.33333333333337</ele><time>2026-04-19T14:35:54.564Z</time></trkpt><trkpt lat="45.6854705" lon="8.6465953"><ele>257.0</ele><time>2026-04-19T14:35:56.563Z</time></trkpt><trkpt lat="45.6855078" lon="8.6465043"><ele>257.0</ele><time>2026-04-19T14:35:58.564Z</time></trkpt><trkpt lat="45.6855458" lon="8.6464218"><ele>257.0</ele><time>2026-04-19T14:36:00.563Z</time></trkpt><trkpt lat="45.6855906" lon="8.6463383"><ele>257.0</ele><time>2026-04-19T14:36:03.564Z</time></trkpt><trkpt lat="45.6856434" lon="8.6462637"><ele>257.0</ele><time>2026-04-19T14:36:09.563Z</time></trkpt><trkpt lat="45.6856988" lon="8.646183"><ele>257.0</ele><time>2026-04-19T14:36:12.564Z</time></trkpt><trkpt lat="45.6857533" lon="8.6461254"><ele>257.0</ele><time>2026-04-19T14:36:14.563Z</time></trkpt><trkpt lat="45.6858155" lon="8.646025"><ele>256.85714285714283</ele><time>2026-04-19T14:36:17.563Z</time></trkpt><trkpt lat="45.6858592" lon="8.645957"><ele>256.7142857142857</ele><time>2026-04-19T14:36:19.563Z</time></trkpt><trkpt lat="45.6859101" lon="8.6458621"><ele>256.57142857142856</ele><time>2026-04-19T14:36:22.563Z</time></trkpt><trkpt lat="45.6859494" lon="8.6457784"><ele>256.42857142857144</ele><time>2026-04-19T14:36:26.564Z</time></trkpt><trkpt lat="45.686012" lon="8.6457308"><ele>256.2857142857143</ele><time>2026-04-19T14:36:44.564Z</time></trkpt><trkpt lat="45.6860473" lon="8.6456471"><ele>256.1428571428571</ele><time>2026-04-19T14:36:47.564Z</time></trkpt><trkpt lat="45.6860795" lon="8.6455544"><ele>256.0</ele><time>2026-04-19T14:36:49.564Z</time></trkpt><trkpt lat="45.6861165" lon="8.6454623"><ele>255.99999999999997</ele><time>2026-04-19T14:36:51.564Z</time></trkpt><trkpt lat="45.6861556" lon="8.6453666"><ele>256.0</ele><time>2026-04-19T14:36:53.563Z</time></trkpt><trkpt lat="45.6861762" lon="8.6452772"><ele>256.0</ele><time>2026-04-19T14:36:55.564Z</time></trkpt><trkpt lat="45.6861892" lon="8.6450985"><ele>256.0</ele><time>2026-04-19T14:36:57.564Z</time></trkpt><trkpt lat="45.6862082" lon="8.6449702"><ele>255.99999999999997</ele><time>2026-04-19T14:36:59.564Z</time></trkpt><trkpt lat="45.6862031" lon="8.6448794"><ele>256.0</ele><time>2026-04-19T14:37:01.563Z</time></trkpt><trkpt lat="45.6861824" lon="8.6447813"><ele>254.0</ele><time>2026-04-19T14:37:03.563Z</time></trkpt><trkpt lat="45.6861448" lon="8.6446798"><ele>252.00000000000003</ele><time>2026-04-19T14:37:05.564Z</time></trkpt><trkpt lat="45.6860863" lon="8.6445717"><ele>250.00000000000003</ele><time>2026-04-19T14:37:07.563Z</time></trkpt><trkpt lat="45.6860456" lon="8.64443"><ele>248.0</ele><time>2026-04-19T14:37:09.564Z</time></trkpt><trkpt lat="45.6860007" lon="8.6443083"><ele>246.0</ele><time>2026-04-19T14:37:11.564Z</time></trkpt><trkpt lat="45.6859477" lon="8.6442009"><ele>244.20000000000002</ele><time>2026-04-19T14:37:13.564Z</time></trkpt><trkpt lat="45.6858905" lon="8.6440884"><ele>242.40000000000003</ele><time>2026-04-19T14:37:15.564Z</time></trkpt><trkpt lat="45.6858363" lon="8.6439825"><ele>240.6</ele><time>2026-04-19T14:37:17.563Z</time></trkpt><trkpt lat="45.685772" lon="8.6438897"><ele>238.8</ele><time>2026-04-19T14:37:19.563Z</time></trkpt><trkpt lat="45.6856971" lon="8.6438223"><ele>237.0</ele><time>2026-04-19T14:37:21.563Z</time></trkpt><trkpt lat="45.6855957" lon="8.6437624"><ele>237.0</ele><time>2026-04-19T14:37:23.563Z</time></trkpt><trkpt lat="45.6855109" lon="8.6437265"><ele>237.0</ele><time>2026-04-19T14:37:25.564Z</time></trkpt><trkpt lat="45.6854423" lon="8.6436739"><ele>237.0</ele><time>2026-04-19T14:37:29.564Z</time></trkpt><trkpt lat="45.6853698" lon="8.6436551"><ele>237.0</ele><time>2026-04-19T14:37:55.563Z</time></trkpt><trkpt lat="45.6852974" lon="8.6436422"><ele>237.0</ele><time>2026-04-19T14:37:59.563Z</time></trkpt><trkpt lat="45.6852311" lon="8.6436072"><ele>237.0</ele><time>2026-04-19T14:38:02.563Z</time></trkpt><trkpt lat="45.685146" lon="8.6435819"><ele>235.5</ele><time>2026-04-19T14:38:05.563Z</time></trkpt><trkpt lat="45.6850632" lon="8.6435212"><ele>234.0</ele><time>2026-04-19T14:38:08.564Z</time></trkpt><trkpt lat="45.6849927" lon="8.6434847"><ele>232.5</ele><time>2026-04-19T14:38:10.564Z</time></trkpt><trkpt lat="45.6849133" lon="8.6434411"><ele>231.0</ele><time>2026-04-19T14:38:12.564Z</time></trkpt><trkpt lat="45.6848373" lon="8.6433898"><ele>229.5</ele><time>2026-04-19T14:38:14.564Z</time></trkpt><trkpt lat="45.6847619" lon="8.6433488"><ele>228.0</ele><time>2026-04-19T14:38:16.563Z</time></trkpt><trkpt lat="45.6846891" lon="8.6433114"><ele>228.0</ele><time>2026-04-19T14:38:18.563Z</time></trkpt><trkpt lat="45.6846145" lon="8.6432692"><ele>228.0</ele><time>2026-04-19T14:38:20.563Z</time></trkpt><trkpt lat="45.6845456" lon="8.6432227"><ele>228.0</ele><time>2026-04-19T14:38:22.563Z</time></trkpt><trkpt lat="45.6844763" lon="8.6431648"><ele>228.0</ele><time>2026-04-19T14:38:24.564Z</time></trkpt><trkpt lat="45.684398" lon="8.6431044"><ele>228.0</ele><time>2026-04-19T14:38:26.564Z</time></trkpt><trkpt lat="45.684313" lon="8.6430506"><ele>228.0</ele><time>2026-04-19T14:38:28.564Z</time></trkpt><trkpt lat="45.6842196" lon="8.6430193"><ele>228.66666666666666</ele><time>2026-04-19T14:38:30.564Z</time></trkpt><trkpt lat="45.684137" lon="8.6429695"><ele>229.33333333333331</ele><time>2026-04-19T14:38:32.564Z</time></trkpt><trkpt lat="45.6840538" lon="8.6429308"><ele>230.0</ele><time>2026-04-19T14:38:34.563Z</time></trkpt><trkpt lat="45.6839821" lon="8.6429143"><ele>230.66666666666666</ele><time>2026-04-19T14:38:36.564Z</time></trkpt><trkpt lat="45.6838899" lon="8.6429235"><ele>231.33333333333331</ele><time>2026-04-19T14:38:38.564Z</time></trkpt><trkpt lat="45.6838131" lon="8.6429419"><ele>232.0</ele><time>2026-04-19T14:38:40.563Z</time></trkpt><trkpt lat="45.6837182" lon="8.6429711"><ele>232.0</ele><time>2026-04-19T14:38:42.564Z</time></trkpt><trkpt lat="45.6836005" lon="8.6429808"><ele>232.0</ele><time>2026-04-19T14:38:44.564Z</time></trkpt><trkpt lat="45.6834923" lon="8.642963"><ele>232.0</ele><time>2026-04-19T14:38:46.564Z</time></trkpt><trkpt lat="45.6833745" lon="8.642919"><ele>232.0</ele><time>2026-04-19T14:38:48.564Z</time></trkpt><trkpt lat="45.6833089" lon="8.6429098"><ele>232.0</ele><time>2026-04-19T14:38:50.564Z</time></trkpt><trkpt lat="45.6832279" lon="8.642886"><ele>231.99999999999997</ele><time>2026-04-19T14:38:52.564Z</time></trkpt><trkpt lat="45.6831607" lon="8.6428646"><ele>232.0</ele><time>2026-04-19T14:38:55.564Z</time></trkpt><trkpt lat="45.6830951" lon="8.6428986"><ele>232.0</ele><time>2026-04-19T14:39:00.564Z</time></trkpt><trkpt lat="45.6831129" lon="8.6427826"><ele>232.0</ele><time>2026-04-19T14:39:06.564Z</time></trkpt><trkpt lat="45.6831824" lon="8.6427051"><ele>231.99999999999997</ele><time>2026-04-19T14:39:09.563Z</time></trkpt><trkpt lat="45.6832482" lon="8.6426557"><ele>232.0</ele><time>2026-04-19T14:39:12.564Z</time></trkpt><trkpt lat="45.6833282" lon="8.6425812"><ele>230.2</ele><time>2026-04-19T14:39:15.564Z</time></trkpt><trkpt lat="45.6834337" lon="8.6425158"><ele>228.39999999999998</ele><time>2026-04-19T14:39:17.564Z</time></trkpt><trkpt lat="45.6835408" lon="8.6424673"><ele>226.60000000000002</ele><time>2026-04-19T14:39:19.564Z</time></trkpt><trkpt lat="45.6836404" lon="8.6424124"><ele>224.8</ele><time>2026-04-19T14:39:21.564Z</time></trkpt><trkpt lat="45.683745" lon="8.6423518"><ele>223.0</ele><time>2026-04-19T14:39:23.564Z</time></trkpt><trkpt lat="45.6838241" lon="8.6423486"><ele>222.0</ele><time>2026-04-19T14:39:24.563Z</time></trkpt><trkpt lat="45.6839008" lon="8.6423343"><ele>221.0</ele><time>2026-04-19T14:39:25.564Z</time></trkpt><trkpt lat="45.6839847" lon="8.6423232"><ele>220.0</ele><time>2026-04-19T14:39:26.563Z</time></trkpt><trkpt lat="45.6840721" lon="8.6423028"><ele>219.0</ele><time>2026-04-19T14:39:27.564Z</time></trkpt><trkpt lat="45.6841643" lon="8.6422897"><ele>218.0</ele><time>2026-04-19T14:39:28.564Z</time></trkpt><trkpt lat="45.6842755" lon="8.6423032"><ele>218.00000000000003</ele><time>2026-04-19T14:39:29.563Z</time></trkpt><trkpt lat="45.6843754" lon="8.6423127"><ele>218.0</ele><time>2026-04-19T14:39:30.564Z</time></trkpt><trkpt lat="45.6844661" lon="8.6423263"><ele>218.0</ele><time>2026-04-19T14:39:31.563Z</time></trkpt><trkpt lat="45.6845476" lon="8.6423446"><ele>218.0</ele><time>2026-04-19T14:39:32.563Z</time></trkpt><trkpt lat="45.6846221" lon="8.6423565"><ele>218.00000000000003</ele><time>2026-04-19T14:39:33.564Z</time></trkpt><trkpt lat="45.6846859" lon="8.6423622"><ele>218.0</ele><time>2026-04-19T14:39:34.564Z</time></trkpt><trkpt lat="45.6847937" lon="8.642381"><ele>216.83333333333334</ele><time>2026-04-19T14:39:36.564Z</time></trkpt><trkpt lat="45.6848845" lon="8.6423819"><ele>215.66666666666669</ele><time>2026-04-19T14:39:38.564Z</time></trkpt><trkpt lat="45.6849541" lon="8.6423093"><ele>214.5</ele><time>2026-04-19T14:39:40.564Z</time></trkpt><trkpt lat="45.6849903" lon="8.6422263"><ele>213.33333333333331</ele><time>2026-04-19T14:39:42.564Z</time></trkpt><trkpt lat="45.6850248" lon="8.6421302"><ele>212.16666666666666</ele><time>2026-04-19T14:39:45.563Z</time></trkpt><trkpt lat="45.6850453" lon="8.6420357"><ele>211.0</ele><time>2026-04-19T14:39:49.564Z</time></trkpt><trkpt lat="45.6851277" lon="8.6420248"><ele>211.0</ele><time>2026-04-19T14:39:53.564Z</time></trkpt><trkpt lat="45.6851937" lon="8.642062"><ele>211.0</ele><time>2026-04-19T14:39:56.563Z</time></trkpt><trkpt lat="45.6852607" lon="8.6420775"><ele>211.0</ele><time>2026-04-19T14:39:59.564Z</time></trkpt><trkpt lat="45.6853479" lon="8.6421103"><ele>211.0</ele><time>2026-04-19T14:40:02.564Z</time></trkpt><trkpt lat="45.6854134" lon="8.6421272"><ele>211.0</ele><time>2026-04-19T14:40:04.564Z</time></trkpt><trkpt lat="45.6854794" lon="8.642155"><ele>211.0</ele><time>2026-04-19T14:40:06.564Z</time></trkpt><trkpt lat="45.6855392" lon="8.6421876"><ele>211.0</ele><time>2026-04-19T14:40:08.564Z</time></trkpt><trkpt lat="45.6856215" lon="8.642238"><ele>209.66666666666666</ele><time>2026-04-19T14:40:11.564Z</time></trkpt><trkpt lat="45.6856818" lon="8.6422781"><ele>208.33333333333331</ele><time>2026-04-19T14:40:13.564Z</time></trkpt><trkpt lat="45.6857503" lon="8.6423165"><ele>207.0</ele><time>2026-04-19T14:40:15.563Z</time></trkpt><trkpt lat="45.685822" lon="8.642371"><ele>205.66666666666669</ele><time>2026-04-19T14:40:17.564Z</time></trkpt><trkpt lat="45.6858985" lon="8.642426"><ele>204.33333333333334</ele><time>2026-04-19T14:40:19.563Z</time></trkpt><trkpt lat="45.6859751" lon="8.6424781"><ele>203.0</ele><time>2026-04-19T14:40:21.564Z</time></trkpt><trkpt lat="45.6860343" lon="8.642516"><ele>202.14285714285714</ele><time>2026-04-19T14:40:23.564Z</time></trkpt><trkpt lat="45.6861088" lon="8.6425181"><ele>201.28571428571428</ele><time>2026-04-19T14:40:27.564Z</time></trkpt><trkpt lat="45.6861752" lon="8.6425521"><ele>200.42857142857144</ele><time>2026-04-19T14:41:53.564Z</time></trkpt><trkpt lat="45.6862351" lon="8.6426101"><ele>199.57142857142856</ele><time>2026-04-19T14:41:56.564Z</time></trkpt><trkpt lat="45.6863133" lon="8.6426618"><ele>198.71428571428572</ele><time>2026-04-19T14:41:59.564Z</time></trkpt><trkpt lat="45.6863739" lon="8.6426999"><ele>197.85714285714286</ele><time>2026-04-19T14:42:01.563Z</time></trkpt><trkpt lat="45.6864348" lon="8.6427401"><ele>197.0</ele><time>2026-04-19T14:42:03.564Z</time></trkpt><trkpt lat="45.6864945" lon="8.6427909"><ele>198.66666666666669</ele><time>2026-04-19T14:42:05.564Z</time></trkpt><trkpt lat="45.6865603" lon="8.6428371"><ele>200.33333333333334</ele><time>2026-04-19T14:42:07.564Z</time></trkpt><trkpt lat="45.6866266" lon="8.6428906"><ele>202.0</ele><time>2026-04-19T14:42:09.564Z</time></trkpt><trkpt lat="45.6866927" lon="8.6429513"><ele>203.66666666666669</ele><time>2026-04-19T14:42:11.564Z</time></trkpt><trkpt lat="45.6867572" lon="8.6430146"><ele>205.33333333333334</ele><time>2026-04-19T14:42:13.563Z</time></trkpt><trkpt lat="45.6868265" lon="8.6430738"><ele>207.0</ele><time>2026-04-19T14:42:15.563Z</time></trkpt><trkpt lat="45.6868985" lon="8.6431325"><ele>205.5</ele><time>2026-04-19T14:42:17.564Z</time></trkpt><trkpt lat="45.6869725" lon="8.6431867"><ele>204.0</ele><time>2026-04-19T14:42:19.564Z</time></trkpt><trkpt lat="45.687047" lon="8.6432392"><ele>202.5</ele><time>2026-04-19T14:42:21.563Z</time></trkpt><trkpt lat="45.6871208" lon="8.6432878"><ele>201.0</ele><time>2026-04-19T14:42:23.564Z</time></trkpt><trkpt lat="45.687193" lon="8.6433303"><ele>199.5</ele><time>2026-04-19T14:42:25.564Z</time></trkpt><trkpt lat="45.6872628" lon="8.6433713"><ele>198.0</ele><time>2026-04-19T14:42:27.564Z</time></trkpt><trkpt lat="45.6873334" lon="8.6434135"><ele>198.0</ele><time>2026-04-19T14:42:29.563Z</time></trkpt><trkpt lat="45.687405" lon="8.6434592"><ele>198.0</ele><time>2026-04-19T14:42:31.564Z</time></trkpt><trkpt lat="45.6874764" lon="8.6434928"><ele>198.0</ele><time>2026-04-19T14:42:33.563Z</time></trkpt><trkpt lat="45.6875407" lon="8.6435289"><ele>198.0</ele><time>2026-04-19T14:42:35.563Z</time></trkpt><trkpt lat="45.6876288" lon="8.6435692"><ele>198.0</ele><time>2026-04-19T14:42:38.563Z</time></trkpt><trkpt lat="45.6877029" lon="8.6436277"><ele>198.0</ele><time>2026-04-19T14:42:41.564Z</time></trkpt><trkpt lat="45.6877642" lon="8.6436936"><ele>198.0</ele><time>2026-04-19T14:42:44.564Z</time></trkpt><trkpt lat="45.687827" lon="8.643745"><ele>198.0</ele><time>2026-04-19T14:42:47.564Z</time></trkpt><trkpt lat="45.6878963" lon="8.6437935"><ele>198.0</ele><time>2026-04-19T14:42:51.563Z</time></trkpt><trkpt lat="45.6878337" lon="8.6437252"><ele>198.0</ele><time>2026-04-19T14:42:57.564Z</time></trkpt><trkpt lat="45.6877543" lon="8.643672"><ele>198.0</ele><time>2026-04-19T14:43:00.564Z</time></trkpt><trkpt lat="45.6876921" lon="8.6436332"><ele>198.0</ele><time>2026-04-19T14:43:02.563Z</time></trkpt><trkpt lat="45.6876165" lon="8.6435995"><ele>198.0</ele><time>2026-04-19T14:43:04.564Z</time></trkpt><trkpt lat="45.6875387" lon="8.6435495"><ele>198.0</ele><time>2026-04-19T14:43:06.564Z</time></trkpt><trkpt lat="45.6874566" lon="8.6434942"><ele>198.0</ele><time>2026-04-19T14:43:08.564Z</time></trkpt><trkpt lat="45.6873559" lon="8.6434423"><ele>198.0</ele><time>2026-04-19T14:43:10.564Z</time></trkpt><trkpt lat="45.6872564" lon="8.6433785"><ele>198.0</ele><time>2026-04-19T14:43:12.563Z</time></trkpt><trkpt lat="45.6871497" lon="8.643307"><ele>198.0</ele><time>2026-04-19T14:43:14.563Z</time></trkpt><trkpt lat="45.6870399" lon="8.6432377"><ele>198.0</ele><time>2026-04-19T14:43:16.563Z</time></trkpt><trkpt lat="45.6869323" lon="8.6431659"><ele>198.0</ele><time>2026-04-19T14:43:18.564Z</time></trkpt><trkpt lat="45.6868262" lon="8.6430859"><ele>198.0</ele><time>2026-04-19T14:43:20.563Z</time></trkpt><trkpt lat="45.6867185" lon="8.643"><ele>197.8</ele><time>2026-04-19T14:43:22.564Z</time></trkpt><trkpt lat="45.6866135" lon="8.6429213"><ele>197.60000000000002</ele><time>2026-04-19T14:43:24.563Z</time></trkpt><trkpt lat="45.6865482" lon="8.6428995"><ele>197.39999999999998</ele><time>2026-04-19T14:43:25.563Z</time></trkpt><trkpt lat="45.6865124" lon="8.6428222"><ele>197.2</ele><time>2026-04-19T14:43:26.564Z</time></trkpt><trkpt lat="45.6864182" lon="8.64277"><ele>197.0</ele><time>2026-04-19T14:43:28.564Z</time></trkpt><trkpt lat="45.6863081" lon="8.6426933"><ele>197.0</ele><time>2026-04-19T14:43:30.563Z</time></trkpt><trkpt lat="45.6862017" lon="8.6426081"><ele>197.0</ele><time>2026-04-19T14:43:32.564Z</time></trkpt><trkpt lat="45.6860953" lon="8.6425567"><ele>197.0</ele><time>2026-04-19T14:43:34.564Z</time></trkpt><trkpt lat="45.6859939" lon="8.6424934"><ele>197.0</ele><time>2026-04-19T14:43:36.563Z</time></trkpt><trkpt lat="45.6858921" lon="8.6424312"><ele>198.5</ele><time>2026-04-19T14:43:38.564Z</time></trkpt><trkpt lat="45.6857737" lon="8.642384"><ele>200.0</ele><time>2026-04-19T14:43:40.564Z</time></trkpt><trkpt lat="45.6856626" lon="8.6423264"><ele>201.5</ele><time>2026-04-19T14:43:42.564Z</time></trkpt><trkpt lat="45.6855602" lon="8.6422707"><ele>203.0</ele><time>2026-04-19T14:43:44.564Z</time></trkpt><trkpt lat="45.6854539" lon="8.6422174"><ele>203.0</ele><time>2026-04-19T14:43:46.564Z</time></trkpt><trkpt lat="45.6853467" lon="8.6421611"><ele>203.0</ele><time>2026-04-19T14:43:48.564Z</time></trkpt><trkpt lat="45.6852394" lon="8.642105"><ele>203.0</ele><time>2026-04-19T14:43:50.564Z</time></trkpt><trkpt lat="45.6851303" lon="8.6420599"><ele>203.0</ele><time>2026-04-19T14:43:52.564Z</time></trkpt><trkpt lat="45.6850327" lon="8.6420112"><ele>203.0</ele><time>2026-04-19T14:43:54.564Z</time></trkpt><trkpt lat="45.6849342" lon="8.6419545"><ele>202.0</ele><time>2026-04-19T14:43:56.564Z</time></trkpt><trkpt lat="45.6848289" lon="8.64191"><ele>201.0</ele><time>2026-04-19T14:43:58.564Z</time></trkpt><trkpt lat="45.6847316" lon="8.6418713"><ele>200.0</ele><time>2026-04-19T14:44:00.564Z</time></trkpt><trkpt lat="45.6846356" lon="8.6418384"><ele>199.0</ele><time>2026-04-19T14:44:02.563Z</time></trkpt><trkpt lat="45.6845267" lon="8.6418061"><ele>198.0</ele><time>2026-04-19T14:44:04.563Z</time></trkpt><trkpt lat="45.6844229" lon="8.6417733"><ele>198.0</ele><time>2026-04-19T14:44:06.564Z</time></trkpt><trkpt lat="45.6843195" lon="8.6417448"><ele>198.0</ele><time>2026-04-19T14:44:08.564Z</time></trkpt><trkpt lat="45.6842164" lon="8.6417239"><ele>198.0</ele><time>2026-04-19T14:44:10.563Z</time></trkpt><trkpt lat="45.6841111" lon="8.6417073"><ele>198.0</ele><time>2026-04-19T14:44:12.563Z</time></trkpt><trkpt lat="45.6840028" lon="8.6417238"><ele>198.0</ele><time>2026-04-19T14:44:14.564Z</time></trkpt><trkpt lat="45.6839006" lon="8.6417143"><ele>198.0</ele><time>2026-04-19T14:44:16.564Z</time></trkpt><trkpt lat="45.683795" lon="8.6416972"><ele>198.0</ele><time>2026-04-19T14:44:18.563Z</time></trkpt><trkpt lat="45.6837314" lon="8.6416898"><ele>198.0</ele><time>2026-04-19T14:44:19.563Z</time></trkpt><trkpt lat="45.6836522" lon="8.6416807"><ele>198.0</ele><time>2026-04-19T14:44:21.563Z</time></trkpt><trkpt lat="45.683565" lon="8.6416676"><ele>198.0</ele><time>2026-04-19T14:44:23.563Z</time></trkpt><trkpt lat="45.6834564" lon="8.6416909"><ele>198.0</ele><time>2026-04-19T14:44:25.564Z</time></trkpt><trkpt lat="45.6833501" lon="8.6416867"><ele>200.0</ele><time>2026-04-19T14:44:27.563Z</time></trkpt><trkpt lat="45.6832617" lon="8.6417145"><ele>202.0</ele><time>2026-04-19T14:44:29.564Z</time></trkpt><trkpt lat="45.6831618" lon="8.6417223"><ele>204.0</ele><time>2026-04-19T14:44:31.563Z</time></trkpt><trkpt lat="45.6830765" lon="8.6417378"><ele>206.0</ele><time>2026-04-19T14:44:33.563Z</time></trkpt><trkpt lat="45.6829794" lon="8.6417015"><ele>208.0</ele><time>2026-04-19T14:44:35.564Z</time></trkpt><trkpt lat="45.6828769" lon="8.6416556"><ele>208.0</ele><time>2026-04-19T14:44:37.564Z</time></trkpt><trkpt lat="45.682775" lon="8.6416478"><ele>208.0</ele><time>2026-04-19T14:44:39.564Z</time></trkpt><trkpt lat="45.6826808" lon="8.641609"><ele>208.0</ele><time>2026-04-19T14:44:41.563Z</time></trkpt><trkpt lat="45.6825852" lon="8.6415784"><ele>208.0</ele><time>2026-04-19T14:44:43.564Z</time></trkpt><trkpt lat="45.6824892" lon="8.6415567"><ele>208.0</ele><time>2026-04-19T14:44:45.564Z</time></trkpt><trkpt lat="45.6823927" lon="8.6415405"><ele>208.0</ele><time>2026-04-19T14:44:47.564Z</time></trkpt><trkpt lat="45.6822967" lon="8.6415223"><ele>208.0</ele><time>2026-04-19T14:44:49.564Z</time></trkpt><trkpt lat="45.6822023" lon="8.6415022"><ele>208.0</ele><time>2026-04-19T14:44:51.563Z</time></trkpt><trkpt lat="45.6821065" lon="8.641484"><ele>208.0</ele><time>2026-04-19T14:44:53.563Z</time></trkpt><trkpt lat="45.6820144" lon="8.6414648"><ele>208.0</ele><time>2026-04-19T14:44:55.563Z</time></trkpt><trkpt lat="45.681926" lon="8.6414412"><ele>209.0</ele><time>2026-04-19T14:44:57.564Z</time></trkpt><trkpt lat="45.6818285" lon="8.6414165"><ele>210.0</ele><time>2026-04-19T14:44:59.564Z</time></trkpt><trkpt lat="45.6817355" lon="8.6414151"><ele>211.0</ele><time>2026-04-19T14:45:01.563Z</time></trkpt><trkpt lat="45.6816428" lon="8.641408"><ele>212.0</ele><time>2026-04-19T14:45:03.564Z</time></trkpt><trkpt lat="45.6815496" lon="8.6413992"><ele>213.0</ele><time>2026-04-19T14:45:05.563Z</time></trkpt><trkpt lat="45.6814547" lon="8.6413835"><ele>213.0</ele><time>2026-04-19T14:45:07.564Z</time></trkpt><trkpt lat="45.6813727" lon="8.6413774"><ele>213.0</ele><time>2026-04-19T14:45:09.563Z</time></trkpt><trkpt lat="45.6812881" lon="8.6413765"><ele>213.0</ele><time>2026-04-19T14:45:11.564Z</time></trkpt><trkpt lat="45.6812015" lon="8.6413671"><ele>213.0</ele><time>2026-04-19T14:45:13.564Z</time></trkpt><trkpt lat="45.6811108" lon="8.6413511"><ele>213.0</ele><time>2026-04-19T14:45:15.564Z</time></trkpt><trkpt lat="45.681027" lon="8.6413432"><ele>213.0</ele><time>2026-04-19T14:45:17.564Z</time></trkpt><trkpt lat="45.6809391" lon="8.6413366"><ele>212.83333333333334</ele><time>2026-04-19T14:45:19.563Z</time></trkpt><trkpt lat="45.6808527" lon="8.6413276"><ele>212.66666666666669</ele><time>2026-04-19T14:45:21.564Z</time></trkpt><trkpt lat="45.6807657" lon="8.6413217"><ele>212.5</ele><time>2026-04-19T14:45:23.564Z</time></trkpt><trkpt lat="45.6806767" lon="8.6413126"><ele>212.33333333333334</ele><time>2026-04-19T14:45:25.563Z</time></trkpt><trkpt lat="45.6805876" lon="8.6413096"><ele>212.16666666666669</ele><time>2026-04-19T14:45:27.563Z</time></trkpt><trkpt lat="45.6804972" lon="8.6413092"><ele>212.0</ele><time>2026-04-19T14:45:29.564Z</time></trkpt><trkpt lat="45.6804014" lon="8.6413059"><ele>212.00000000000003</ele><time>2026-04-19T14:45:31.563Z</time></trkpt><trkpt lat="45.6803122" lon="8.6413074"><ele>212.0</ele><time>2026-04-19T14:45:33.563Z</time></trkpt><trkpt lat="45.6802295" lon="8.6413094"><ele>212.0</ele><time>2026-04-19T14:45:35.563Z</time></trkpt><trkpt lat="45.6801525" lon="8.6413166"><ele>212.0</ele><time>2026-04-19T14:45:37.564Z</time></trkpt><trkpt lat="45.680078" lon="8.641323"><ele>212.00000000000003</ele><time>2026-04-19T14:45:39.564Z</time></trkpt><trkpt lat="45.6800091" lon="8.6413505"><ele>212.0</ele><time>2026-04-19T14:45:41.564Z</time></trkpt><trkpt lat="45.6799311" lon="8.6413593"><ele>211.83333333333334</ele><time>2026-04-19T14:45:43.564Z</time></trkpt><trkpt lat="45.6798517" lon="8.6413793"><ele>211.66666666666669</ele><time>2026-04-19T14:45:45.564Z</time></trkpt><trkpt lat="45.6797683" lon="8.6413978"><ele>211.5</ele><time>2026-04-19T14:45:47.563Z</time></trkpt><trkpt lat="45.6796825" lon="8.6414133"><ele>211.33333333333331</ele><time>2026-04-19T14:45:49.563Z</time></trkpt><trkpt lat="45.6796111" lon="8.641436"><ele>211.16666666666666</ele><time>2026-04-19T14:45:51.564Z</time></trkpt><trkpt lat="45.6795326" lon="8.6414569"><ele>211.0</ele><time>2026-04-19T14:45:53.564Z</time></trkpt><trkpt lat="45.6794633" lon="8.641479"><ele>209.83333333333331</ele><time>2026-04-19T14:45:55.564Z</time></trkpt><trkpt lat="45.6794013" lon="8.6415015"><ele>208.66666666666666</ele><time>2026-04-19T14:45:57.563Z</time></trkpt><trkpt lat="45.6793142" lon="8.6415296"><ele>207.5</ele><time>2026-04-19T14:46:00.564Z</time></trkpt><trkpt lat="45.6792425" lon="8.6415808"><ele>206.33333333333331</ele><time>2026-04-19T14:46:03.564Z</time></trkpt><trkpt lat="45.6791708" lon="8.6416082"><ele>205.16666666666666</ele><time>2026-04-19T14:46:06.564Z</time></trkpt><trkpt lat="45.6790912" lon="8.6416412"><ele>204.0</ele><time>2026-04-19T14:46:09.564Z</time></trkpt><trkpt lat="45.6790232" lon="8.641677"><ele>204.0</ele><time>2026-04-19T14:46:12.564Z</time></trkpt><trkpt lat="45.6789629" lon="8.6417031"><ele>204.0</ele><time>2026-04-19T14:46:15.563Z</time></trkpt><trkpt lat="45.6788959" lon="8.6417342"><ele>204.0</ele><time>2026-04-19T14:46:19.564Z</time></trkpt><trkpt lat="45.6788258" lon="8.6417573"><ele>204.0</ele><time>2026-04-19T14:46:33.563Z</time></trkpt><trkpt lat="45.6787727" lon="8.6418283"><ele>204.0</ele><time>2026-04-19T14:46:57.563Z</time></trkpt><trkpt lat="45.6787024" lon="8.6418361"><ele>204.0</ele><time>2026-04-19T14:46:59.564Z</time></trkpt><trkpt lat="45.6786551" lon="8.6417585"><ele>204.0</ele><time>2026-04-19T14:47:03.563Z</time></trkpt><trkpt lat="45.6785478" lon="8.641803"><ele>204.83333333333334</ele><time>2026-04-19T14:47:07.563Z</time></trkpt><trkpt lat="45.6784246" lon="8.6418621"><ele>205.66666666666669</ele><time>2026-04-19T14:47:09.563Z</time></trkpt><trkpt lat="45.678358" lon="8.6418972"><ele>206.5</ele><time>2026-04-19T14:47:10.563Z</time></trkpt><trkpt lat="45.678288" lon="8.6419352"><ele>207.33333333333334</ele><time>2026-04-19T14:47:11.563Z</time></trkpt><trkpt lat="45.6782159" lon="8.6419814"><ele>208.16666666666669</ele><time>2026-04-19T14:47:12.564Z</time></trkpt><trkpt lat="45.6781486" lon="8.6420316"><ele>209.0</ele><time>2026-04-19T14:47:13.564Z</time></trkpt><trkpt lat="45.6780888" lon="8.6420931"><ele>209.0</ele><time>2026-04-19T14:47:14.564Z</time></trkpt><trkpt lat="45.6780113" lon="8.6421291"><ele>209.0</ele><time>2026-04-19T14:47:15.563Z</time></trkpt><trkpt lat="45.6779349" lon="8.642154"><ele>209.0</ele><time>2026-04-19T14:47:16.563Z</time></trkpt><trkpt lat="45.6778706" lon="8.6421892"><ele>209.0</ele><time>2026-04-19T14:47:17.564Z</time></trkpt><trkpt lat="45.6778038" lon="8.6422185"><ele>209.0</ele><time>2026-04-19T14:47:18.563Z</time></trkpt><trkpt lat="45.6777421" lon="8.6422585"><ele>209.0</ele><time>2026-04-19T14:47:19.564Z</time></trkpt><trkpt lat="45.6776832" lon="8.6423006"><ele>209.0</ele><time>2026-04-19T14:47:20.564Z</time></trkpt><trkpt lat="45.6775825" lon="8.6424"><ele>208.25</ele><time>2026-04-19T14:47:22.564Z</time></trkpt><trkpt lat="45.6774946" lon="8.642517"><ele>207.5</ele><time>2026-04-19T14:47:24.564Z</time></trkpt><trkpt lat="45.6774052" lon="8.6426226"><ele>206.75</ele><time>2026-04-19T14:47:26.564Z</time></trkpt><trkpt lat="45.6773202" lon="8.6427329"><ele>206.0</ele><time>2026-04-19T14:47:28.564Z</time></trkpt><trkpt lat="45.6772319" lon="8.6428328"><ele>206.0</ele><time>2026-04-19T14:47:30.563Z</time></trkpt><trkpt lat="45.6771529" lon="8.642947"><ele>206.0</ele><time>2026-04-19T14:47:32.564Z</time></trkpt><trkpt lat="45.6770669" lon="8.6430633"><ele>206.0</ele><time>2026-04-19T14:47:34.564Z</time></trkpt><trkpt lat="45.6769894" lon="8.6431933"><ele>206.0</ele><time>2026-04-19T14:47:36.563Z</time></trkpt><trkpt lat="45.6769195" lon="8.643337"><ele>204.75</ele><time>2026-04-19T14:47:38.563Z</time></trkpt><trkpt lat="45.6768575" lon="8.6434829"><ele>203.5</ele><time>2026-04-19T14:47:40.563Z</time></trkpt><trkpt lat="45.676813" lon="8.6436375"><ele>202.25</ele><time>2026-04-19T14:47:42.564Z</time></trkpt><trkpt lat="45.6767647" lon="8.6437878"><ele>201.0</ele><time>2026-04-19T14:47:44.564Z</time></trkpt><trkpt lat="45.676714" lon="8.6439395"><ele>201.0</ele><time>2026-04-19T14:47:46.563Z</time></trkpt><trkpt lat="45.6766569" lon="8.6440925"><ele>201.0</ele><time>2026-04-19T14:47:48.564Z</time></trkpt><trkpt lat="45.676594" lon="8.6442386"><ele>201.0</ele><time>2026-04-19T14:47:50.564Z</time></trkpt><trkpt lat="45.6765502" lon="8.6443804"><ele>201.0</ele><time>2026-04-19T14:47:52.564Z</time></trkpt><trkpt lat="45.6765078" lon="8.6445324"><ele>202.75</ele><time>2026-04-19T14:47:54.563Z</time></trkpt><trkpt lat="45.6764698" lon="8.6446884"><ele>204.5</ele><time>2026-04-19T14:47:56.564Z</time></trkpt><trkpt lat="45.6764319" lon="8.6448493"><ele>206.25</ele><time>2026-04-19T14:47:58.564Z</time></trkpt><trkpt lat="45.676399" lon="8.6450083"><ele>208.0</ele><time>2026-04-19T14:48:00.564Z</time></trkpt><trkpt lat="45.6763579" lon="8.6451454"><ele>208.60000000000002</ele><time>2026-04-19T14:48:02.564Z</time></trkpt><trkpt lat="45.6763358" lon="8.6452977"><ele>209.20000000000002</ele><time>2026-04-19T14:48:04.564Z</time></trkpt><trkpt lat="45.676301" lon="8.6454508"><ele>209.8</ele><time>2026-04-19T14:48:06.564Z</time></trkpt><trkpt lat="45.6762921" lon="8.6455437"><ele>210.4</ele><time>2026-04-19T14:48:07.564Z</time></trkpt><trkpt lat="45.6762636" lon="8.6456917"><ele>211.0</ele><time>2026-04-19T14:48:09.564Z</time></trkpt><trkpt lat="45.6762503" lon="8.6458279"><ele>211.0</ele><time>2026-04-19T14:48:11.564Z</time></trkpt><trkpt lat="45.676232" lon="8.6459711"><ele>211.0</ele><time>2026-04-19T14:48:13.564Z</time></trkpt><trkpt lat="45.6762096" lon="8.6461094"><ele>211.0</ele><time>2026-04-19T14:48:15.563Z</time></trkpt><trkpt lat="45.6761774" lon="8.6462423"><ele>211.0</ele><time>2026-04-19T14:48:17.564Z</time></trkpt><trkpt lat="45.6761234" lon="8.6463249"><ele>211.0</ele><time>2026-04-19T14:48:52.564Z</time></trkpt><trkpt lat="45.6761114" lon="8.6464544"><ele>208.66666666666666</ele><time>2026-04-19T14:48:55.563Z</time></trkpt><trkpt lat="45.6761017" lon="8.6465666"><ele>206.33333333333331</ele><time>2026-04-19T14:48:57.564Z</time></trkpt><trkpt lat="45.6760876" lon="8.6466985"><ele>204.0</ele><time>2026-04-19T14:48:59.564Z</time></trkpt><trkpt lat="45.6760595" lon="8.6467944"><ele>201.66666666666669</ele><time>2026-04-19T14:49:01.564Z</time></trkpt><trkpt lat="45.6760312" lon="8.6469021"><ele>199.33333333333334</ele><time>2026-04-19T14:49:03.564Z</time></trkpt><trkpt lat="45.6760126" lon="8.6470135"><ele>197.0</ele><time>2026-04-19T14:49:05.563Z</time></trkpt><trkpt lat="45.6759963" lon="8.6471582"><ele>197.0</ele><time>2026-04-19T14:49:07.564Z</time></trkpt><trkpt lat="45.6759713" lon="8.6472866"><ele>197.0</ele><time>2026-04-19T14:49:09.564Z</time></trkpt><trkpt lat="45.6759565" lon="8.6474409"><ele>197.0</ele><time>2026-04-19T14:49:11.563Z</time></trkpt><trkpt lat="45.6759217" lon="8.6475681"><ele>197.0</ele><time>2026-04-19T14:49:13.564Z</time></trkpt><trkpt lat="45.675901" lon="8.6477044"><ele>197.0</ele><time>2026-04-19T14:49:15.563Z</time></trkpt><trkpt lat="45.6758849" lon="8.6478417"><ele>197.8</ele><time>2026-04-19T14:49:17.564Z</time></trkpt><trkpt lat="45.6758653" lon="8.6479805"><ele>198.6</ele><time>2026-04-19T14:49:19.563Z</time></trkpt><trkpt lat="45.6758491" lon="8.6481191"><ele>199.4</ele><time>2026-04-19T14:49:21.564Z</time></trkpt><trkpt lat="45.6758329" lon="8.6482555"><ele>200.20000000000002</ele><time>2026-04-19T14:49:23.564Z</time></trkpt><trkpt lat="45.6758109" lon="8.6483761"><ele>201.0</ele><time>2026-04-19T14:49:25.563Z</time></trkpt><trkpt lat="45.6758004" lon="8.6485066"><ele>201.60000000000002</ele><time>2026-04-19T14:49:27.564Z</time></trkpt><trkpt lat="45.6757916" lon="8.6486503"><ele>202.2</ele><time>2026-04-19T14:49:29.564Z</time></trkpt><trkpt lat="45.6757735" lon="8.6487761"><ele>202.8</ele><time>2026-04-19T14:49:31.564Z</time></trkpt><trkpt lat="45.675751" lon="8.6489069"><ele>203.39999999999998</ele><time>2026-04-19T14:49:33.563Z</time></trkpt><trkpt lat="45.6757288" lon="8.6490366"><ele>204.0</ele><time>2026-04-19T14:49:35.564Z</time></trkpt><trkpt lat="45.6757026" lon="8.6491612"><ele>204.0</ele><time>2026-04-19T14:49:37.563Z</time></trkpt><trkpt lat="45.675689" lon="8.6492808"><ele>204.0</ele><time>2026-04-19T14:49:39.564Z</time></trkpt><trkpt lat="45.6756717" lon="8.649377"><ele>204.0</ele><time>2026-04-19T14:49:40.564Z</time></trkpt><trkpt lat="45.6756565" lon="8.6495804"><ele>204.0</ele><time>2026-04-19T14:49:43.563Z</time></trkpt><trkpt lat="45.6756435" lon="8.6497019"><ele>204.0</ele><time>2026-04-19T14:49:45.563Z</time></trkpt><trkpt lat="45.6756264" lon="8.6498384"><ele>204.0</ele><time>2026-04-19T14:49:47.564Z</time></trkpt><trkpt lat="45.6756178" lon="8.6499712"><ele>204.0</ele><time>2026-04-19T14:49:49.564Z</time></trkpt><trkpt lat="45.6756174" lon="8.6500906"><ele>204.0</ele><time>2026-04-19T14:49:51.563Z</time></trkpt><trkpt lat="45.6756173" lon="8.6502415"><ele>204.0</ele><time>2026-04-19T14:49:53.564Z</time></trkpt><trkpt lat="45.675611" lon="8.6503772"><ele>204.0</ele><time>2026-04-19T14:49:55.564Z</time></trkpt><trkpt lat="45.6756164" lon="8.6504958"><ele>204.0</ele><time>2026-04-19T14:49:57.563Z</time></trkpt><trkpt lat="45.6756196" lon="8.6506208"><ele>204.0</ele><time>2026-04-19T14:49:59.563Z</time></trkpt><trkpt lat="45.675613" lon="8.6507493"><ele>204.0</ele><time>2026-04-19T14:50:01.564Z</time></trkpt><trkpt lat="45.6756098" lon="8.6508849"><ele>204.0</ele><time>2026-04-19T14:50:03.563Z</time></trkpt><trkpt lat="45.6756139" lon="8.6510296"><ele>204.0</ele><time>2026-04-19T14:50:05.564Z</time></trkpt><trkpt lat="45.6756159" lon="8.6511722"><ele>204.0</ele><time>2026-04-19T14:50:07.564Z</time></trkpt><trkpt lat="45.67562" lon="8.6513149"><ele>204.0</ele><time>2026-04-19T14:50:09.563Z</time></trkpt><trkpt lat="45.6756335" lon="8.6514636"><ele>204.0</ele><time>2026-04-19T14:50:11.564Z</time></trkpt><trkpt lat="45.6756349" lon="8.6515952"><ele>204.0</ele><time>2026-04-19T14:50:13.564Z</time></trkpt><trkpt lat="45.6756409" lon="8.6517341"><ele>204.0</ele><time>2026-04-19T14:50:15.563Z</time></trkpt><trkpt lat="45.6756423" lon="8.6518711"><ele>203.79999999999998</ele><time>2026-04-19T14:50:17.563Z</time></trkpt><trkpt lat="45.6756469" lon="8.6520071"><ele>203.6</ele><time>2026-04-19T14:50:19.563Z</time></trkpt><trkpt lat="45.6756618" lon="8.6521342"><ele>203.4</ele><time>2026-04-19T14:50:21.564Z</time></trkpt><trkpt lat="45.6756798" lon="8.6522611"><ele>203.2</ele><time>2026-04-19T14:50:23.564Z</time></trkpt><trkpt lat="45.6756854" lon="8.6523879"><ele>203.0</ele><time>2026-04-19T14:50:25.563Z</time></trkpt><trkpt lat="45.6756935" lon="8.6525214"><ele>203.00000000000003</ele><time>2026-04-19T14:50:27.563Z</time></trkpt><trkpt lat="45.6756964" lon="8.6526567"><ele>203.0</ele><time>2026-04-19T14:50:29.563Z</time></trkpt><trkpt lat="45.6757028" lon="8.6527833"><ele>203.0</ele><time>2026-04-19T14:50:31.563Z</time></trkpt><trkpt lat="45.6757034" lon="8.652886"><ele>203.0</ele><time>2026-04-19T14:50:34.564Z</time></trkpt><trkpt lat="45.675725" lon="8.6529957"><ele>203.00000000000003</ele><time>2026-04-19T14:50:41.564Z</time></trkpt><trkpt lat="45.6756572" lon="8.653031"><ele>203.0</ele><time>2026-04-19T14:50:45.563Z</time></trkpt><trkpt lat="45.6757166" lon="8.6529957"><ele>203.00000000000003</ele><time>2026-04-19T14:52:20.564Z</time></trkpt><trkpt lat="45.6757359" lon="8.6530884"><ele>203.0</ele><time>2026-04-19T14:52:23.564Z</time></trkpt><trkpt lat="45.6757436" lon="8.6531991"><ele>203.0</ele><time>2026-04-19T14:52:25.563Z</time></trkpt><trkpt lat="45.6757464" lon="8.653324"><ele>203.0</ele><time>2026-04-19T14:52:27.564Z</time></trkpt><trkpt lat="45.6757501" lon="8.6534624"><ele>203.00000000000003</ele><time>2026-04-19T14:52:29.564Z</time></trkpt><trkpt lat="45.67575" lon="8.6536036"><ele>203.0</ele><time>2026-04-19T14:52:31.563Z</time></trkpt><trkpt lat="45.6757573" lon="8.653744"><ele>203.0</ele><time>2026-04-19T14:52:33.564Z</time></trkpt><trkpt lat="45.6757647" lon="8.6539607"><ele>203.0</ele><time>2026-04-19T14:52:36.563Z</time></trkpt><trkpt lat="45.6757818" lon="8.6540963"><ele>203.0</ele><time>2026-04-19T14:52:38.563Z</time></trkpt><trkpt lat="45.6758017" lon="8.6542338"><ele>203.0</ele><time>2026-04-19T14:52:40.564Z</time></trkpt><trkpt lat="45.6758187" lon="8.6543652"><ele>203.0</ele><time>2026-04-19T14:52:42.563Z</time></trkpt><trkpt lat="45.6758355" lon="8.6544619"><ele>203.00000000000003</ele><time>2026-04-19T14:52:45.563Z</time></trkpt><trkpt lat="45.6758009" lon="8.6543847"><ele>203.0</ele><time>2026-04-19T14:52:58.563Z</time></trkpt><trkpt lat="45.6758382" lon="8.6544584"><ele>203.0</ele><time>2026-04-19T14:53:19.564Z</time></trkpt><trkpt lat="45.6758591" lon="8.6545739"><ele>203.0</ele><time>2026-04-19T14:53:22.563Z</time></trkpt><trkpt lat="45.6758765" lon="8.654668"><ele>203.00000000000003</ele><time>2026-04-19T14:53:24.564Z</time></trkpt><trkpt lat="45.6758946" lon="8.6547957"><ele>203.0</ele><time>2026-04-19T14:53:26.563Z</time></trkpt><trkpt lat="45.6759026" lon="8.6549232"><ele>203.0</ele><time>2026-04-19T14:53:28.564Z</time></trkpt><trkpt lat="45.6759034" lon="8.6550627"><ele>203.0</ele><time>2026-04-19T14:53:30.564Z</time></trkpt><trkpt lat="45.6759161" lon="8.6552026"><ele>203.0</ele><time>2026-04-19T14:53:32.564Z</time></trkpt><trkpt lat="45.6759162" lon="8.6553432"><ele>203.0</ele><time>2026-04-19T14:53:34.564Z</time></trkpt><trkpt lat="45.6759183" lon="8.6554873"><ele>203.0</ele><time>2026-04-19T14:53:36.563Z</time></trkpt><trkpt lat="45.6759179" lon="8.6556126"><ele>203.0</ele><time>2026-04-19T14:53:38.563Z</time></trkpt><trkpt lat="45.6759245" lon="8.6557466"><ele>203.0</ele><time>2026-04-19T14:53:40.564Z</time></trkpt><trkpt lat="45.6759283" lon="8.6558697"><ele>203.0</ele><time>2026-04-19T14:53:42.563Z</time></trkpt><trkpt lat="45.6759309" lon="8.6559995"><ele>203.0</ele><time>2026-04-19T14:53:44.563Z</time></trkpt><trkpt lat="45.6759286" lon="8.6561328"><ele>203.0</ele><time>2026-04-19T14:53:46.564Z</time></trkpt><trkpt lat="45.6759242" lon="8.6562603"><ele>202.83333333333334</ele><time>2026-04-19T14:53:48.564Z</time></trkpt><trkpt lat="45.6759112" lon="8.6563868"><ele>202.66666666666669</ele><time>2026-04-19T14:53:50.563Z</time></trkpt><trkpt lat="45.6759033" lon="8.6565044"><ele>202.5</ele><time>2026-04-19T14:53:52.564Z</time></trkpt><trkpt lat="45.675898" lon="8.6566241"><ele>202.33333333333331</ele><time>2026-04-19T14:53:54.564Z</time></trkpt><trkpt lat="45.6759072" lon="8.6567465"><ele>202.16666666666666</ele><time>2026-04-19T14:53:56.564Z</time></trkpt><trkpt lat="45.6759185" lon="8.6568657"><ele>202.0</ele><time>2026-04-19T14:53:58.563Z</time></trkpt><trkpt lat="45.6759107" lon="8.6569923"><ele>202.0</ele><time>2026-04-19T14:54:00.564Z</time></trkpt><trkpt lat="45.6758975" lon="8.6571161"><ele>202.0</ele><time>2026-04-19T14:54:02.564Z</time></trkpt><trkpt lat="45.6758959" lon="8.6572426"><ele>202.0</ele><time>2026-04-19T14:54:04.564Z</time></trkpt><trkpt lat="45.6758878" lon="8.6573747"><ele>202.0</ele><time>2026-04-19T14:54:06.563Z</time></trkpt><trkpt lat="45.6758689" lon="8.6575122"><ele>202.0</ele><time>2026-04-19T14:54:08.564Z</time></trkpt><trkpt lat="45.6758545" lon="8.6576368"><ele>201.99999999999997</ele><time>2026-04-19T14:54:10.563Z</time></trkpt><trkpt lat="45.6758416" lon="8.6577601"><ele>202.0</ele><time>2026-04-19T14:54:12.563Z</time></trkpt><trkpt lat="45.6758362" lon="8.6578843"><ele>202.0</ele><time>2026-04-19T14:54:14.563Z</time></trkpt><trkpt lat="45.6758206" lon="8.6580136"><ele>202.0</ele><time>2026-04-19T14:54:16.563Z</time></trkpt><trkpt lat="45.6758102" lon="8.6581422"><ele>201.99999999999997</ele><time>2026-04-19T14:54:18.564Z</time></trkpt><trkpt lat="45.675798" lon="8.6582731"><ele>202.0</ele><time>2026-04-19T14:54:20.563Z</time></trkpt><trkpt lat="45.675788" lon="8.658403"><ele>202.6</ele><time>2026-04-19T14:54:22.564Z</time></trkpt><trkpt lat="45.6757809" lon="8.6585409"><ele>203.2</ele><time>2026-04-19T14:54:24.563Z</time></trkpt><trkpt lat="45.6757652" lon="8.6586697"><ele>203.8</ele><time>2026-04-19T14:54:26.563Z</time></trkpt><trkpt lat="45.6757453" lon="8.6588069"><ele>204.4</ele><time>2026-04-19T14:54:28.563Z</time></trkpt><trkpt lat="45.6757325" lon="8.6589495"><ele>205.0</ele><time>2026-04-19T14:54:30.563Z</time></trkpt><trkpt lat="45.6757205" lon="8.6590848"><ele>205.0</ele><time>2026-04-19T14:54:32.563Z</time></trkpt><trkpt lat="45.6756972" lon="8.6592217"><ele>205.0</ele><time>2026-04-19T14:54:34.564Z</time></trkpt><trkpt lat="45.6756742" lon="8.6593502"><ele>205.0</ele><time>2026-04-19T14:54:36.564Z</time></trkpt><trkpt lat="45.6756542" lon="8.6594845"><ele>205.0</ele><time>2026-04-19T14:54:38.564Z</time></trkpt><trkpt lat="45.6756407" lon="8.6596219"><ele>205.0</ele><time>2026-04-19T14:54:40.564Z</time></trkpt><trkpt lat="45.6756284" lon="8.6597653"><ele>205.6</ele><time>2026-04-19T14:54:42.563Z</time></trkpt><trkpt lat="45.6756172" lon="8.6599111"><ele>206.2</ele><time>2026-04-19T14:54:44.564Z</time></trkpt><trkpt lat="45.6756019" lon="8.6600443"><ele>206.8</ele><time>2026-04-19T14:54:46.563Z</time></trkpt><trkpt lat="45.675587" lon="8.6601769"><ele>207.4</ele><time>2026-04-19T14:54:48.564Z</time></trkpt><trkpt lat="45.6755743" lon="8.6603221"><ele>208.0</ele><time>2026-04-19T14:54:50.564Z</time></trkpt><trkpt lat="45.6755636" lon="8.6604605"><ele>208.2</ele><time>2026-04-19T14:54:52.564Z</time></trkpt><trkpt lat="45.6755564" lon="8.6606"><ele>208.4</ele><time>2026-04-19T14:54:54.564Z</time></trkpt><trkpt lat="45.6755503" lon="8.6607325"><ele>208.6</ele><time>2026-04-19T14:54:56.564Z</time></trkpt><trkpt lat="45.6755404" lon="8.660866"><ele>208.79999999999998</ele><time>2026-04-19T14:54:58.564Z</time></trkpt><trkpt lat="45.675531" lon="8.660999"><ele>209.0</ele><time>2026-04-19T14:55:00.563Z</time></trkpt><trkpt lat="45.6755271" lon="8.6611402"><ele>209.0</ele><time>2026-04-19T14:55:02.564Z</time></trkpt><trkpt lat="45.6755236" lon="8.6612756"><ele>209.0</ele><time>2026-04-19T14:55:04.564Z</time></trkpt><trkpt lat="45.6755118" lon="8.6614189"><ele>209.0</ele><time>2026-04-19T14:55:06.564Z</time></trkpt><trkpt lat="45.6755075" lon="8.6615544"><ele>209.0</ele><time>2026-04-19T14:55:08.564Z</time></trkpt><trkpt lat="45.6755157" lon="8.6616897"><ele>209.0</ele><time>2026-04-19T14:55:10.564Z</time></trkpt><trkpt lat="45.6755201" lon="8.6618393"><ele>208.79999999999998</ele><time>2026-04-19T14:55:12.564Z</time></trkpt><trkpt lat="45.6755262" lon="8.6619943"><ele>208.6</ele><time>2026-04-19T14:55:14.564Z</time></trkpt><trkpt lat="45.6755332" lon="8.6621441"><ele>208.4</ele><time>2026-04-19T14:55:16.564Z</time></trkpt><trkpt lat="45.6755391" lon="8.6622902"><ele>208.2</ele><time>2026-04-19T14:55:18.564Z</time></trkpt><trkpt lat="45.6755514" lon="8.6624334"><ele>208.0</ele><time>2026-04-19T14:55:20.564Z</time></trkpt><trkpt lat="45.6755634" lon="8.6625797"><ele>208.0</ele><time>2026-04-19T14:55:22.563Z</time></trkpt><trkpt lat="45.6755699" lon="8.6627266"><ele>208.0</ele><time>2026-04-19T14:55:24.564Z</time></trkpt><trkpt lat="45.6755693" lon="8.662875"><ele>208.0</ele><time>2026-04-19T14:55:26.564Z</time></trkpt><trkpt lat="45.6755828" lon="8.6630251"><ele>208.0</ele><time>2026-04-19T14:55:28.564Z</time></trkpt><trkpt lat="45.6755935" lon="8.6631666"><ele>208.0</ele><time>2026-04-19T14:55:30.563Z</time></trkpt><trkpt lat="45.6756174" lon="8.6632914"><ele>207.33333333333331</ele><time>2026-04-19T14:55:32.563Z</time></trkpt><trkpt lat="45.6756251" lon="8.6634247"><ele>206.66666666666666</ele><time>2026-04-19T14:55:34.563Z</time></trkpt><trkpt lat="45.6756334" lon="8.6635689"><ele>206.0</ele><time>2026-04-19T14:55:36.564Z</time></trkpt><trkpt lat="45.6756884" lon="8.6636584"><ele>205.33333333333331</ele><time>2026-04-19T14:55:38.564Z</time></trkpt><trkpt lat="45.6757681" lon="8.6636559"><ele>204.66666666666666</ele><time>2026-04-19T14:55:40.564Z</time></trkpt><trkpt lat="45.6758424" lon="8.6636497"><ele>204.0</ele><time>2026-04-19T14:55:42.563Z</time></trkpt><trkpt lat="45.675907" lon="8.6636432"><ele>203.71428571428572</ele><time>2026-04-19T14:55:44.564Z</time></trkpt><trkpt lat="45.6759707" lon="8.663636"><ele>203.42857142857144</ele><time>2026-04-19T14:55:46.564Z</time></trkpt><trkpt lat="45.6760333" lon="8.6636255"><ele>203.14285714285714</ele><time>2026-04-19T14:55:48.564Z</time></trkpt><trkpt lat="45.6761105" lon="8.6636605"><ele>202.85714285714286</ele><time>2026-04-19T14:55:51.564Z</time></trkpt><trkpt lat="45.6761456" lon="8.6637857"><ele>202.57142857142856</ele><time>2026-04-19T14:55:54.564Z</time></trkpt><trkpt lat="45.6761568" lon="8.6638865"><ele>202.28571428571428</ele><time>2026-04-19T14:55:56.564Z</time></trkpt><trkpt lat="45.6761608" lon="8.6639881"><ele>202.0</ele><time>2026-04-19T14:55:58.564Z</time></trkpt><trkpt lat="45.6761703" lon="8.6640897"><ele>203.66666666666666</ele><time>2026-04-19T14:56:00.563Z</time></trkpt><trkpt lat="45.676181" lon="8.6641929"><ele>205.33333333333331</ele><time>2026-04-19T14:56:02.563Z</time></trkpt><trkpt lat="45.676202" lon="8.6643054"><ele>207.0</ele><time>2026-04-19T14:56:04.564Z</time></trkpt><trkpt lat="45.6762118" lon="8.664406"><ele>208.66666666666669</ele><time>2026-04-19T14:56:06.564Z</time></trkpt><trkpt lat="45.6762457" lon="8.6645037"><ele>210.33333333333334</ele><time>2026-04-19T14:56:08.563Z</time></trkpt><trkpt lat="45.6762737" lon="8.664616"><ele>212.0</ele><time>2026-04-19T14:56:10.564Z</time></trkpt><trkpt lat="45.6763218" lon="8.6647336"><ele>212.0</ele><time>2026-04-19T14:56:12.564Z</time></trkpt><trkpt lat="45.6763656" lon="8.664838"><ele>212.0</ele><time>2026-04-19T14:56:14.564Z</time></trkpt><trkpt lat="45.6764278" lon="8.6649755"><ele>212.0</ele><time>2026-04-19T14:56:16.563Z</time></trkpt><trkpt lat="45.6764681" lon="8.6651062"><ele>212.0</ele><time>2026-04-19T14:56:18.563Z</time></trkpt><trkpt lat="45.6764133" lon="8.6651862"><ele>212.0</ele><time>2026-04-19T14:56:22.564Z</time></trkpt><trkpt lat="45.6763217" lon="8.6652143"><ele>212.00000000000003</ele><time>2026-04-19T14:56:25.564Z</time></trkpt><trkpt lat="45.6762345" lon="8.6652419"><ele>212.0</ele><time>2026-04-19T14:56:28.563Z</time></trkpt><trkpt lat="45.6763203" lon="8.6652157"><ele>212.0</ele><time>2026-04-19T14:56:46.564Z</time></trkpt><trkpt lat="45.6763912" lon="8.6652222"><ele>212.0</ele><time>2026-04-19T14:56:49.563Z</time></trkpt><trkpt lat="45.6764505" lon="8.6651499"><ele>212.00000000000003</ele><time>2026-04-19T14:56:51.564Z</time></trkpt><trkpt lat="45.6765122" lon="8.6652172"><ele>212.0</ele><time>2026-04-19T14:56:57.564Z</time></trkpt><trkpt lat="45.6765086" lon="8.6653512"><ele>210.2</ele><time>2026-04-19T14:56:59.564Z</time></trkpt><trkpt lat="45.6765101" lon="8.6654986"><ele>208.39999999999998</ele><time>2026-04-19T14:57:01.564Z</time></trkpt><trkpt lat="45.6765132" lon="8.6656512"><ele>206.60000000000002</ele><time>2026-04-19T14:57:03.563Z</time></trkpt><trkpt lat="45.6765215" lon="8.665813"><ele>204.8</ele><time>2026-04-19T14:57:05.564Z</time></trkpt><trkpt lat="45.6764938" lon="8.6659028"><ele>203.0</ele><time>2026-04-19T14:57:06.564Z</time></trkpt><trkpt lat="45.6764946" lon="8.6660695"><ele>201.75</ele><time>2026-04-19T14:57:08.564Z</time></trkpt><trkpt lat="45.6764989" lon="8.6662399"><ele>200.5</ele><time>2026-04-19T14:57:10.563Z</time></trkpt><trkpt lat="45.6765053" lon="8.6664084"><ele>199.25</ele><time>2026-04-19T14:57:12.564Z</time></trkpt><trkpt lat="45.6765042" lon="8.6665754"><ele>198.0</ele><time>2026-04-19T14:57:14.564Z</time></trkpt><trkpt lat="45.6765083" lon="8.6667403"><ele>198.0</ele><time>2026-04-19T14:57:16.564Z</time></trkpt><trkpt lat="45.6765211" lon="8.6668997"><ele>198.0</ele><time>2026-04-19T14:57:18.564Z</time></trkpt><trkpt lat="45.6765328" lon="8.6670545"><ele>198.0</ele><time>2026-04-19T14:57:20.563Z</time></trkpt><trkpt lat="45.6765413" lon="8.6672078"><ele>198.0</ele><time>2026-04-19T14:57:22.564Z</time></trkpt><trkpt lat="45.6765545" lon="8.6673575"><ele>198.0</ele><time>2026-04-19T14:57:24.564Z</time></trkpt><trkpt lat="45.6765647" lon="8.6675061"><ele>197.60000000000002</ele><time>2026-04-19T14:57:26.563Z</time></trkpt><trkpt lat="45.6765776" lon="8.6676529"><ele>197.20000000000002</ele><time>2026-04-19T14:57:28.564Z</time></trkpt><trkpt lat="45.6765978" lon="8.6677979"><ele>196.8</ele><time>2026-04-19T14:57:30.564Z</time></trkpt><trkpt lat="45.6766366" lon="8.6679368"><ele>196.4</ele><time>2026-04-19T14:57:32.564Z</time></trkpt><trkpt lat="45.6766909" lon="8.6680631"><ele>196.0</ele><time>2026-04-19T14:57:34.563Z</time></trkpt><trkpt lat="45.6767529" lon="8.6681861"><ele>195.4</ele><time>2026-04-19T14:57:36.564Z</time></trkpt><trkpt lat="45.6768243" lon="8.6682946"><ele>194.8</ele><time>2026-04-19T14:57:38.564Z</time></trkpt><trkpt lat="45.6768871" lon="8.6684061"><ele>194.20000000000002</ele><time>2026-04-19T14:57:40.564Z</time></trkpt><trkpt lat="45.6769466" lon="8.6685249"><ele>193.60000000000002</ele><time>2026-04-19T14:57:42.564Z</time></trkpt><trkpt lat="45.6769998" lon="8.6686452"><ele>193.0</ele><time>2026-04-19T14:57:44.564Z</time></trkpt><trkpt lat="45.677052" lon="8.6687635"><ele>194.2</ele><time>2026-04-19T14:57:46.564Z</time></trkpt><trkpt lat="45.6771042" lon="8.6688842"><ele>195.4</ele><time>2026-04-19T14:57:48.563Z</time></trkpt><trkpt lat="45.6771573" lon="8.6690048"><ele>196.6</ele><time>2026-04-19T14:57:50.563Z</time></trkpt><trkpt lat="45.6772095" lon="8.6691201"><ele>197.79999999999998</ele><time>2026-04-19T14:57:52.564Z</time></trkpt><trkpt lat="45.6772565" lon="8.6692251"><ele>199.0</ele><time>2026-04-19T14:57:54.564Z</time></trkpt><trkpt lat="45.6772987" lon="8.6693182"><ele>198.99999999999997</ele><time>2026-04-19T14:57:56.564Z</time></trkpt><trkpt lat="45.6773336" lon="8.6693978"><ele>199.0</ele><time>2026-04-19T14:57:58.564Z</time></trkpt><trkpt lat="45.6773839" lon="8.6694906"><ele>199.0</ele><time>2026-04-19T14:58:01.563Z</time></trkpt><trkpt lat="45.6774494" lon="8.6695218"><ele>199.0</ele><time>2026-04-19T14:58:04.564Z</time></trkpt><trkpt lat="45.6775104" lon="8.6695941"><ele>199.0</ele><time>2026-04-19T14:58:09.564Z</time></trkpt><trkpt lat="45.6775627" lon="8.669649"><ele>198.99999999999997</ele><time>2026-04-19T14:58:13.564Z</time></trkpt><trkpt lat="45.6774932" lon="8.6696043"><ele>199.0</ele><time>2026-04-19T14:58:37.563Z</time></trkpt><trkpt lat="45.6775115" lon="8.6694992"><ele>198.7142857142857</ele><time>2026-04-19T14:58:40.564Z</time></trkpt><trkpt lat="45.677592" lon="8.6694979"><ele>198.42857142857142</ele><time>2026-04-19T14:58:43.563Z</time></trkpt><trkpt lat="45.6776637" lon="8.6695173"><ele>198.14285714285714</ele><time>2026-04-19T14:58:47.564Z</time></trkpt><trkpt lat="45.6777249" lon="8.6695436"><ele>197.85714285714283</ele><time>2026-04-19T14:58:51.563Z</time></trkpt><trkpt lat="45.6778032" lon="8.6695716"><ele>197.57142857142858</ele><time>2026-04-19T14:58:55.564Z</time></trkpt><trkpt lat="45.6778771" lon="8.6695901"><ele>197.28571428571428</ele><time>2026-04-19T14:58:59.564Z</time></trkpt><trkpt lat="45.6779456" lon="8.6695949"><ele>197.0</ele><time>2026-04-19T14:59:05.564Z</time></trkpt><trkpt lat="45.6780088" lon="8.6696231"><ele>200.14285714285714</ele><time>2026-04-19T14:59:16.564Z</time></trkpt><trkpt lat="45.6780745" lon="8.6696453"><ele>203.28571428571428</ele><time>2026-04-19T14:59:25.563Z</time></trkpt><trkpt lat="45.6781402" lon="8.6696114"><ele>206.42857142857144</ele><time>2026-04-19T14:59:33.601Z</time></trkpt><trkpt lat="45.6781857" lon="8.6695378"><ele>209.57142857142856</ele><time>2026-04-19T14:59:42.521Z</time></trkpt><trkpt lat="45.678228" lon="8.6694639"><ele>212.7142857142857</ele><time>2026-04-19T14:59:50.556Z</time></trkpt><trkpt lat="45.678275" lon="8.6693911"><ele>215.85714285714286</ele><time>2026-04-19T14:59:59.562Z</time></trkpt><trkpt lat="45.6783145" lon="8.6693189"><ele>219.0</ele><time>2026-04-19T15:00:10.559Z</time></trkpt><trkpt lat="45.6783578" lon="8.6692481"><ele>219.14285714285714</ele><time>2026-04-19T15:00:23.555Z</time></trkpt><trkpt lat="45.6784106" lon="8.6691815"><ele>219.28571428571428</ele><time>2026-04-19T15:00:32.562Z</time></trkpt><trkpt lat="45.678461" lon="8.6691211"><ele>219.42857142857142</ele><time>2026-04-19T15:00:41.482Z</time></trkpt><trkpt lat="45.6785054" lon="8.6690548"><ele>219.57142857142856</ele><time>2026-04-19T15:00:50.557Z</time></trkpt><trkpt lat="45.6785657" lon="8.669007"><ele>219.71428571428572</ele><time>2026-04-19T15:01:11.559Z</time></trkpt><trkpt lat="45.6786039" lon="8.6689266"><ele>219.85714285714283</ele><time>2026-04-19T15:01:20.548Z</time></trkpt><trkpt lat="45.6786605" lon="8.6688695"><ele>220.0</ele><time>2026-04-19T15:01:30.563Z</time></trkpt><trkpt lat="45.6787223" lon="8.6688202"><ele>223.1428571428571</ele><time>2026-04-19T15:01:38.555Z</time></trkpt><trkpt lat="45.6787869" lon="8.6688004"><ele>226.28571428571428</ele><time>2026-04-19T15:01:46.555Z</time></trkpt><trkpt lat="45.6788401" lon="8.6687465"><ele>229.42857142857142</ele><time>2026-04-19T15:01:56.564Z</time></trkpt><trkpt lat="45.6789008" lon="8.6687181"><ele>232.57142857142856</ele><time>2026-04-19T15:02:03.557Z</time></trkpt><trkpt lat="45.6789613" lon="8.6686885"><ele>235.7142857142857</ele><time>2026-04-19T15:02:09.558Z</time></trkpt><trkpt lat="45.6790255" lon="8.6686529"><ele>238.85714285714283</ele><time>2026-04-19T15:02:17.553Z</time></trkpt><trkpt lat="45.6790878" lon="8.6686107"><ele>242.0</ele><time>2026-04-19T15:02:25.556Z</time></trkpt><trkpt lat="45.6791494" lon="8.6685667"><ele>242.14285714285714</ele><time>2026-04-19T15:02:33.485Z</time></trkpt><trkpt lat="45.6792025" lon="8.6685052"><ele>242.28571428571428</ele><time>2026-04-19T15:02:40.56Z</time></trkpt><trkpt lat="45.6792431" lon="8.668422"><ele>242.42857142857142</ele><time>2026-04-19T15:02:47.563Z</time></trkpt><trkpt lat="45.6792975" lon="8.6683577"><ele>242.57142857142856</ele><time>2026-04-19T15:02:54.584Z</time></trkpt><trkpt lat="45.6793663" lon="8.6683245"><ele>242.71428571428572</ele><time>2026-04-19T15:03:00.563Z</time></trkpt><trkpt lat="45.6794353" lon="8.6682924"><ele>242.85714285714283</ele><time>2026-04-19T15:03:06.486Z</time></trkpt><trkpt lat="45.6794901" lon="8.6682459"><ele>243.0</ele><time>2026-04-19T15:03:11.56Z</time></trkpt><trkpt lat="45.6795517" lon="8.6681955"><ele>244.0</ele><time>2026-04-19T15:03:17.565Z</time></trkpt><trkpt lat="45.6796072" lon="8.6681503"><ele>245.0</ele><time>2026-04-19T15:03:23.556Z</time></trkpt><trkpt lat="45.6796669" lon="8.6681045"><ele>246.0</ele><time>2026-04-19T15:03:29.551Z</time></trkpt><trkpt lat="45.6797239" lon="8.6680534"><ele>247.0</ele><time>2026-04-19T15:03:35.55Z</time></trkpt><trkpt lat="45.6797812" lon="8.6680111"><ele>248.0</ele><time>2026-04-19T15:03:41.559Z</time></trkpt><trkpt lat="45.6798409" lon="8.667977"><ele>249.0</ele><time>2026-04-19T15:03:47.579Z</time></trkpt><trkpt lat="45.6798846" lon="8.6679091"><ele>250.0</ele><time>2026-04-19T15:04:04.563Z</time></trkpt><trkpt lat="45.6799415" lon="8.6678596"><ele>250.0</ele><time>2026-04-19T15:04:10.552Z</time></trkpt><trkpt lat="45.6800028" lon="8.6678083"><ele>250.0</ele><time>2026-04-19T15:04:16.557Z</time></trkpt><trkpt lat="45.6800612" lon="8.6677424"><ele>250.0</ele><time>2026-04-19T15:04:22.525Z</time></trkpt><trkpt lat="45.6801196" lon="8.6676951"><ele>250.0</ele><time>2026-04-19T15:04:27.564Z</time></trkpt><trkpt lat="45.6801931" lon="8.6676444"><ele>250.0</ele><time>2026-04-19T15:04:48.559Z</time></trkpt><trkpt lat="45.680248" lon="8.6676003"><ele>250.0</ele><time>2026-04-19T15:04:52.559Z</time></trkpt><trkpt lat="45.6803108" lon="8.6675401"><ele>250.0</ele><time>2026-04-19T15:04:56.558Z</time></trkpt><trkpt lat="45.6803863" lon="8.6674985"><ele>250.0</ele><time>2026-04-19T15:05:00.558Z</time></trkpt><trkpt lat="45.6804575" lon="8.6674437"><ele>250.0</ele><time>2026-04-19T15:05:04.559Z</time></trkpt><trkpt lat="45.6805237" lon="8.6674171"><ele>250.0</ele><time>2026-04-19T15:05:08.559Z</time></trkpt><trkpt lat="45.6805976" lon="8.6674024"><ele>250.0</ele><time>2026-04-19T15:05:12.558Z</time></trkpt><trkpt lat="45.6806317" lon="8.6674793"><ele>250.0</ele><time>2026-04-19T15:05:15.558Z</time></trkpt><trkpt lat="45.6806324" lon="8.6675867"><ele>250.0</ele><time>2026-04-19T15:05:18.558Z</time></trkpt><trkpt lat="45.6806343" lon="8.667705"><ele>250.0</ele><time>2026-04-19T15:05:22.559Z</time></trkpt><trkpt lat="45.6806544" lon="8.6678005"><ele>250.0</ele><time>2026-04-19T15:05:25.558Z</time></trkpt><trkpt lat="45.6806646" lon="8.6679053"><ele>250.0</ele><time>2026-04-19T15:05:29.559Z</time></trkpt><trkpt lat="45.6806885" lon="8.6680163"><ele>250.0</ele><time>2026-04-19T15:05:33.558Z</time></trkpt><trkpt lat="45.6806898" lon="8.6681123"><ele>250.0</ele><time>2026-04-19T15:05:36.559Z</time></trkpt><trkpt lat="45.6806966" lon="8.6682049"><ele>250.0</ele><time>2026-04-19T15:05:39.559Z</time></trkpt><trkpt lat="45.6806989" lon="8.6683226"><ele>250.0</ele><time>2026-04-19T15:05:43.558Z</time></trkpt><trkpt lat="45.6806914" lon="8.6684158"><ele>250.0</ele><time>2026-04-19T15:05:46.559Z</time></trkpt><trkpt lat="45.6806915" lon="8.6685181"><ele>249.99999999999997</ele><time>2026-04-19T15:05:50.559Z</time></trkpt><trkpt lat="45.6806908" lon="8.6686236"><ele>250.0</ele><time>2026-04-19T15:05:54.559Z</time></trkpt><trkpt lat="45.6807082" lon="8.668737"><ele>250.0</ele><time>2026-04-19T15:05:58.558Z</time></trkpt><trkpt lat="45.6807189" lon="8.6688545"><ele>250.0</ele><time>2026-04-19T15:06:03.558Z</time></trkpt><trkpt lat="45.6807274" lon="8.6689638"><ele>249.99999999999997</ele><time>2026-04-19T15:06:06.559Z</time></trkpt><trkpt lat="45.6807358" lon="8.6690683"><ele>250.0</ele><time>2026-04-19T15:06:09.559Z</time></trkpt><trkpt lat="45.680745" lon="8.6691781"><ele>250.0</ele><time>2026-04-19T15:06:12.558Z</time></trkpt><trkpt lat="45.6807549" lon="8.669281"><ele>250.0</ele><time>2026-04-19T15:06:15.558Z</time></trkpt><trkpt lat="45.6807714" lon="8.6693804"><ele>250.0</ele><time>2026-04-19T15:06:18.559Z</time></trkpt><trkpt lat="45.6807816" lon="8.6694861"><ele>250.0</ele><time>2026-04-19T15:06:21.559Z</time></trkpt><trkpt lat="45.6807933" lon="8.6695787"><ele>250.0</ele><time>2026-04-19T15:06:24.558Z</time></trkpt><trkpt lat="45.6808088" lon="8.6696915"><ele>250.0</ele><time>2026-04-19T15:06:28.559Z</time></trkpt><trkpt lat="45.6808135" lon="8.669789"><ele>250.0</ele><time>2026-04-19T15:06:31.559Z</time></trkpt><trkpt lat="45.6808169" lon="8.6699048"><ele>249.49999999999997</ele><time>2026-04-19T15:06:34.559Z</time></trkpt><trkpt lat="45.6808217" lon="8.6700042"><ele>249.0</ele><time>2026-04-19T15:06:36.559Z</time></trkpt><trkpt lat="45.6808167" lon="8.6701018"><ele>248.5</ele><time>2026-04-19T15:06:39.559Z</time></trkpt><trkpt lat="45.6808416" lon="8.6702307"><ele>248.0</ele><time>2026-04-19T15:06:42.559Z</time></trkpt><trkpt lat="45.6808547" lon="8.6703305"><ele>247.49999999999997</ele><time>2026-04-19T15:06:44.558Z</time></trkpt><trkpt lat="45.6808767" lon="8.670463"><ele>247.0</ele><time>2026-04-19T15:06:47.558Z</time></trkpt><trkpt lat="45.6808824" lon="8.6705544"><ele>247.0</ele><time>2026-04-19T15:06:49.558Z</time></trkpt><trkpt lat="45.6808739" lon="8.6706678"><ele>247.0</ele><time>2026-04-19T15:06:52.559Z</time></trkpt><trkpt lat="45.6808933" lon="8.6707767"><ele>247.0</ele><time>2026-04-19T15:06:55.558Z</time></trkpt><trkpt lat="45.6809173" lon="8.6708937"><ele>247.0</ele><time>2026-04-19T15:06:58.559Z</time></trkpt><trkpt lat="45.6809254" lon="8.6709869"><ele>247.0</ele><time>2026-04-19T15:07:00.559Z</time></trkpt><trkpt lat="45.6809413" lon="8.6710749"><ele>247.0</ele><time>2026-04-19T15:07:02.558Z</time></trkpt><trkpt lat="45.6809504" lon="8.671172"><ele>247.0</ele><time>2026-04-19T15:07:04.559Z</time></trkpt><trkpt lat="45.6809588" lon="8.6712675"><ele>247.16666666666666</ele><time>2026-04-19T15:07:06.558Z</time></trkpt><trkpt lat="45.6809693" lon="8.6713848"><ele>247.33333333333331</ele><time>2026-04-19T15:07:09.559Z</time></trkpt><trkpt lat="45.6809818" lon="8.6715067"><ele>247.5</ele><time>2026-04-19T15:07:12.559Z</time></trkpt><trkpt lat="45.6809994" lon="8.6716137"><ele>247.66666666666669</ele><time>2026-04-19T15:07:14.559Z</time></trkpt><trkpt lat="45.6810056" lon="8.6717147"><ele>247.83333333333334</ele><time>2026-04-19T15:07:16.559Z</time></trkpt><trkpt lat="45.6810165" lon="8.6718419"><ele>248.0</ele><time>2026-04-19T15:07:19.559Z</time></trkpt><trkpt lat="45.6810512" lon="8.6719602"><ele>248.33333333333334</ele><time>2026-04-19T15:07:22.559Z</time></trkpt><trkpt lat="45.6810844" lon="8.6720617"><ele>248.66666666666669</ele><time>2026-04-19T15:07:25.559Z</time></trkpt><trkpt lat="45.681143" lon="8.6721308"><ele>249.0</ele><time>2026-04-19T15:07:29.559Z</time></trkpt><trkpt lat="45.6812152" lon="8.6721597"><ele>249.33333333333331</ele><time>2026-04-19T15:07:32.558Z</time></trkpt><trkpt lat="45.6812924" lon="8.672193"><ele>249.66666666666666</ele><time>2026-04-19T15:07:35.558Z</time></trkpt><trkpt lat="45.6813768" lon="8.6722179"><ele>250.0</ele><time>2026-04-19T15:07:38.559Z</time></trkpt><trkpt lat="45.6814504" lon="8.6722518"><ele>250.16666666666666</ele><time>2026-04-19T15:07:41.558Z</time></trkpt><trkpt lat="45.6815321" lon="8.6722794"><ele>250.33333333333331</ele><time>2026-04-19T15:07:44.559Z</time></trkpt><trkpt lat="45.6816135" lon="8.6722927"><ele>250.5</ele><time>2026-04-19T15:07:47.558Z</time></trkpt><trkpt lat="45.6816919" lon="8.6723284"><ele>250.66666666666669</ele><time>2026-04-19T15:07:50.559Z</time></trkpt><trkpt lat="45.6817687" lon="8.6723545"><ele>250.83333333333334</ele><time>2026-04-19T15:07:53.559Z</time></trkpt><trkpt lat="45.6818273" lon="8.6724045"><ele>251.0</ele><time>2026-04-19T15:07:55.559Z</time></trkpt><trkpt lat="45.6819027" lon="8.6724475"><ele>251.33333333333334</ele><time>2026-04-19T15:07:58.558Z</time></trkpt><trkpt lat="45.6819833" lon="8.672467"><ele>251.66666666666669</ele><time>2026-04-19T15:08:01.558Z</time></trkpt><trkpt lat="45.6820541" lon="8.6724653"><ele>252.0</ele><time>2026-04-19T15:08:03.558Z</time></trkpt><trkpt lat="45.6821272" lon="8.67246"><ele>252.33333333333331</ele><time>2026-04-19T15:08:05.559Z</time></trkpt><trkpt lat="45.6822214" lon="8.6724801"><ele>252.66666666666666</ele><time>2026-04-19T15:08:07.559Z</time></trkpt><trkpt lat="45.6823364" lon="8.6725331"><ele>253.0</ele><time>2026-04-19T15:08:09.558Z</time></trkpt><trkpt lat="45.6824377" lon="8.6725685"><ele>252.99999999999997</ele><time>2026-04-19T15:08:11.559Z</time></trkpt><trkpt lat="45.6825397" lon="8.6726003"><ele>253.0</ele><time>2026-04-19T15:08:13.559Z</time></trkpt><trkpt lat="45.6826149" lon="8.6726305"><ele>253.0</ele><time>2026-04-19T15:08:15.559Z</time></trkpt><trkpt lat="45.682679" lon="8.6726609"><ele>253.0</ele><time>2026-04-19T15:08:17.559Z</time></trkpt><trkpt lat="45.6827671" lon="8.6727134"><ele>252.99999999999997</ele><time>2026-04-19T15:08:20.559Z</time></trkpt><trkpt lat="45.6828205" lon="8.6727929"><ele>253.0</ele><time>2026-04-19T15:08:30.559Z</time></trkpt><trkpt lat="45.6828788" lon="8.6728609"><ele>252.71428571428575</ele><time>2026-04-19T15:08:34.558Z</time></trkpt><trkpt lat="45.6829473" lon="8.6728964"><ele>252.42857142857144</ele><time>2026-04-19T15:08:38.558Z</time></trkpt><trkpt lat="45.6830008" lon="8.6729618"><ele>252.14285714285714</ele><time>2026-04-19T15:08:42.559Z</time></trkpt><trkpt lat="45.6830556" lon="8.6730132"><ele>251.85714285714286</ele><time>2026-04-19T15:08:45.567Z</time></trkpt><trkpt lat="45.6831321" lon="8.6730333"><ele>251.57142857142856</ele><time>2026-04-19T15:08:48.559Z</time></trkpt><trkpt lat="45.6832131" lon="8.6730701"><ele>251.28571428571425</ele><time>2026-04-19T15:08:51.558Z</time></trkpt><trkpt lat="45.6832821" lon="8.6731027"><ele>250.99999999999997</ele><time>2026-04-19T15:08:54.559Z</time></trkpt><trkpt lat="45.6833382" lon="8.6731525"><ele>251.00000000000003</ele><time>2026-04-19T15:08:57.558Z</time></trkpt><trkpt lat="45.6834021" lon="8.6732273"><ele>251.0</ele><time>2026-04-19T15:09:00.559Z</time></trkpt><trkpt lat="45.6834511" lon="8.6732896"><ele>251.0</ele><time>2026-04-19T15:09:02.559Z</time></trkpt><trkpt lat="45.6834911" lon="8.6733612"><ele>251.0</ele><time>2026-04-19T15:09:04.559Z</time></trkpt><trkpt lat="45.683535" lon="8.6734621"><ele>251.00000000000003</ele><time>2026-04-19T15:09:07.559Z</time></trkpt><trkpt lat="45.6836012" lon="8.6735636"><ele>251.0</ele><time>2026-04-19T15:09:10.559Z</time></trkpt><trkpt lat="45.6836746" lon="8.6736386"><ele>251.33333333333334</ele><time>2026-04-19T15:09:12.559Z</time></trkpt><trkpt lat="45.6837492" lon="8.6736917"><ele>251.66666666666669</ele><time>2026-04-19T15:09:14.558Z</time></trkpt><trkpt lat="45.6838483" lon="8.6737136"><ele>252.0</ele><time>2026-04-19T15:09:16.559Z</time></trkpt><trkpt lat="45.6839571" lon="8.6737077"><ele>252.33333333333331</ele><time>2026-04-19T15:09:18.558Z</time></trkpt><trkpt lat="45.6840357" lon="8.6736786"><ele>252.66666666666666</ele><time>2026-04-19T15:09:20.559Z</time></trkpt><trkpt lat="45.6841005" lon="8.6736362"><ele>253.0</ele><time>2026-04-19T15:09:22.559Z</time></trkpt><trkpt lat="45.6841675" lon="8.6735891"><ele>252.99999999999997</ele><time>2026-04-19T15:09:24.558Z</time></trkpt><trkpt lat="45.68424" lon="8.6735497"><ele>253.0</ele><time>2026-04-19T15:09:26.559Z</time></trkpt><trkpt lat="45.6843254" lon="8.6735121"><ele>253.0</ele><time>2026-04-19T15:09:28.559Z</time></trkpt><trkpt lat="45.6844197" lon="8.6734651"><ele>253.0</ele><time>2026-04-19T15:09:30.558Z</time></trkpt><trkpt lat="45.6845082" lon="8.673439"><ele>252.99999999999997</ele><time>2026-04-19T15:09:32.558Z</time></trkpt><trkpt lat="45.6845777" lon="8.6734172"><ele>253.0</ele><time>2026-04-19T15:09:34.558Z</time></trkpt><trkpt lat="45.6846341" lon="8.673354"><ele>253.16666666666666</ele><time>2026-04-19T15:09:36.559Z</time></trkpt><trkpt lat="45.6847068" lon="8.673299"><ele>253.33333333333331</ele><time>2026-04-19T15:09:38.558Z</time></trkpt><trkpt lat="45.6847776" lon="8.6732383"><ele>253.5</ele><time>2026-04-19T15:09:40.558Z</time></trkpt><trkpt lat="45.6848466" lon="8.6731817"><ele>253.66666666666669</ele><time>2026-04-19T15:09:42.558Z</time></trkpt><trkpt lat="45.6849228" lon="8.6731272"><ele>253.83333333333334</ele><time>2026-04-19T15:09:44.559Z</time></trkpt><trkpt lat="45.6850031" lon="8.6730912"><ele>254.0</ele><time>2026-04-19T15:09:46.559Z</time></trkpt><trkpt lat="45.6850839" lon="8.6730656"><ele>254.00000000000003</ele><time>2026-04-19T15:09:48.558Z</time></trkpt><trkpt lat="45.6851557" lon="8.6730378"><ele>254.0</ele><time>2026-04-19T15:09:50.559Z</time></trkpt><trkpt lat="45.6852227" lon="8.6729789"><ele>254.0</ele><time>2026-04-19T15:09:52.559Z</time></trkpt><trkpt lat="45.6852892" lon="8.6729386"><ele>254.0</ele><time>2026-04-19T15:09:54.559Z</time></trkpt><trkpt lat="45.685353" lon="8.6729161"><ele>254.00000000000003</ele><time>2026-04-19T15:09:56.559Z</time></trkpt><trkpt lat="45.685439" lon="8.6728692"><ele>254.0</ele><time>2026-04-19T15:09:59.559Z</time></trkpt><trkpt lat="45.6855273" lon="8.6728342"><ele>253.33333333333334</ele><time>2026-04-19T15:10:02.559Z</time></trkpt><trkpt lat="45.6855878" lon="8.672903"><ele>252.66666666666669</ele><time>2026-04-19T15:10:04.559Z</time></trkpt><trkpt lat="45.6856014" lon="8.6730404"><ele>252.0</ele><time>2026-04-19T15:10:06.558Z</time></trkpt><trkpt lat="45.6856097" lon="8.6731448"><ele>251.33333333333331</ele><time>2026-04-19T15:10:08.559Z</time></trkpt><trkpt lat="45.6855978" lon="8.6732357"><ele>250.66666666666666</ele><time>2026-04-19T15:10:10.559Z</time></trkpt><trkpt lat="45.6855981" lon="8.6733635"><ele>250.0</ele><time>2026-04-19T15:10:13.558Z</time></trkpt><trkpt lat="45.6855812" lon="8.673467"><ele>250.0</ele><time>2026-04-19T15:10:15.559Z</time></trkpt><trkpt lat="45.6855654" lon="8.6735692"><ele>250.0</ele><time>2026-04-19T15:10:17.559Z</time></trkpt><trkpt lat="45.6855502" lon="8.6736747"><ele>250.0</ele><time>2026-04-19T15:10:19.559Z</time></trkpt><trkpt lat="45.6855308" lon="8.6737781"><ele>250.0</ele><time>2026-04-19T15:10:21.559Z</time></trkpt><trkpt lat="45.6855079" lon="8.673873"><ele>250.0</ele><time>2026-04-19T15:10:23.559Z</time></trkpt><trkpt lat="45.6854839" lon="8.6739652"><ele>250.0</ele><time>2026-04-19T15:10:25.559Z</time></trkpt><trkpt lat="45.6854556" lon="8.6740604"><ele>250.0</ele><time>2026-04-19T15:10:27.558Z</time></trkpt><trkpt lat="45.6854278" lon="8.6741539"><ele>250.16666666666666</ele><time>2026-04-19T15:10:29.558Z</time></trkpt><trkpt lat="45.685385" lon="8.6742747"><ele>250.33333333333331</ele><time>2026-04-19T15:10:32.558Z</time></trkpt><trkpt lat="45.685343" lon="8.6743952"><ele>250.5</ele><time>2026-04-19T15:10:35.559Z</time></trkpt><trkpt lat="45.6853034" lon="8.674514"><ele>250.66666666666669</ele><time>2026-04-19T15:10:38.558Z</time></trkpt><trkpt lat="45.6852739" lon="8.6746216"><ele>250.83333333333334</ele><time>2026-04-19T15:10:41.558Z</time></trkpt><trkpt lat="45.6852405" lon="8.6747214"><ele>251.0</ele><time>2026-04-19T15:10:44.558Z</time></trkpt><trkpt lat="45.685214" lon="8.6748187"><ele>251.28571428571425</ele><time>2026-04-19T15:10:47.559Z</time></trkpt><trkpt lat="45.6851941" lon="8.6749229"><ele>251.57142857142856</ele><time>2026-04-19T15:10:51.559Z</time></trkpt><trkpt lat="45.6851594" lon="8.6750199"><ele>251.85714285714286</ele><time>2026-04-19T15:11:05.559Z</time></trkpt><trkpt lat="45.685125" lon="8.6750958"><ele>252.14285714285714</ele><time>2026-04-19T15:11:12.558Z</time></trkpt><trkpt lat="45.6851006" lon="8.6751793"><ele>252.42857142857144</ele><time>2026-04-19T15:11:25.499Z</time></trkpt><trkpt lat="45.6850751" lon="8.6752751"><ele>252.71428571428575</ele><time>2026-04-19T15:11:31.559Z</time></trkpt><trkpt lat="45.6850437" lon="8.6753596"><ele>253.00000000000003</ele><time>2026-04-19T15:11:37.568Z</time></trkpt><trkpt lat="45.6850082" lon="8.6754381"><ele>253.28571428571433</ele><time>2026-04-19T15:11:43.559Z</time></trkpt><trkpt lat="45.6849797" lon="8.6755203"><ele>253.57142857142858</ele><time>2026-04-19T15:11:49.558Z</time></trkpt><trkpt lat="45.6849152" lon="8.6755652"><ele>253.8571428571429</ele><time>2026-04-19T15:11:56.559Z</time></trkpt><trkpt lat="45.6849887" lon="8.6755318"><ele>254.14285714285717</ele><time>2026-04-19T15:12:26.559Z</time></trkpt><trkpt lat="45.6849823" lon="8.6756406"><ele>254.42857142857144</ele><time>2026-04-19T15:12:31.559Z</time></trkpt><trkpt lat="45.6849322" lon="8.6757283"><ele>254.71428571428572</ele><time>2026-04-19T15:12:34.558Z</time></trkpt><trkpt lat="45.6848977" lon="8.6758261"><ele>255.0</ele><time>2026-04-19T15:12:38.558Z</time></trkpt><trkpt lat="45.6848699" lon="8.675915"><ele>255.0</ele><time>2026-04-19T15:12:41.559Z</time></trkpt><trkpt lat="45.6848403" lon="8.6760064"><ele>255.0</ele><time>2026-04-19T15:12:44.559Z</time></trkpt><trkpt lat="45.6848122" lon="8.6761076"><ele>255.0</ele><time>2026-04-19T15:12:47.559Z</time></trkpt><trkpt lat="45.684783" lon="8.6762115"><ele>255.0</ele><time>2026-04-19T15:12:50.559Z</time></trkpt><trkpt lat="45.6847507" lon="8.6763139"><ele>255.0</ele><time>2026-04-19T15:12:53.559Z</time></trkpt><trkpt lat="45.6847181" lon="8.6764183"><ele>255.0</ele><time>2026-04-19T15:12:56.558Z</time></trkpt><trkpt lat="45.6846872" lon="8.6765269"><ele>255.5</ele><time>2026-04-19T15:12:59.559Z</time></trkpt><trkpt lat="45.6846568" lon="8.6766229"><ele>256.0</ele><time>2026-04-19T15:13:02.559Z</time></trkpt><trkpt lat="45.6846213" lon="8.67672"><ele>256.5</ele><time>2026-04-19T15:13:05.559Z</time></trkpt><trkpt lat="45.6845849" lon="8.6768172"><ele>257.0</ele><time>2026-04-19T15:13:08.559Z</time></trkpt><trkpt lat="45.6845389" lon="8.6769057"><ele>257.5</ele><time>2026-04-19T15:13:11.559Z</time></trkpt><trkpt lat="45.6845043" lon="8.6770023"><ele>258.0</ele><time>2026-04-19T15:13:14.559Z</time></trkpt><trkpt lat="45.6844725" lon="8.677115"><ele>258.0</ele><time>2026-04-19T15:13:17.559Z</time></trkpt><trkpt lat="45.6844433" lon="8.677225"><ele>258.0</ele><time>2026-04-19T15:13:20.559Z</time></trkpt><trkpt lat="45.6844159" lon="8.6773324"><ele>258.0</ele><time>2026-04-19T15:13:23.559Z</time></trkpt><trkpt lat="45.6843877" lon="8.6774379"><ele>258.0</ele><time>2026-04-19T15:13:26.558Z</time></trkpt><trkpt lat="45.684352" lon="8.6775457"><ele>258.0</ele><time>2026-04-19T15:13:29.559Z</time></trkpt><trkpt lat="45.6843153" lon="8.6776526"><ele>258.0</ele><time>2026-04-19T15:13:32.559Z</time></trkpt><trkpt lat="45.6842841" lon="8.677763"><ele>257.6666666666667</ele><time>2026-04-19T15:13:35.559Z</time></trkpt><trkpt lat="45.6842595" lon="8.6778782"><ele>257.3333333333333</ele><time>2026-04-19T15:13:38.559Z</time></trkpt><trkpt lat="45.684224" lon="8.6779973"><ele>257.0</ele><time>2026-04-19T15:13:41.559Z</time></trkpt><trkpt lat="45.6842015" lon="8.6780863"><ele>256.66666666666663</ele><time>2026-04-19T15:13:44.559Z</time></trkpt><trkpt lat="45.6841741" lon="8.6782036"><ele>256.3333333333333</ele><time>2026-04-19T15:13:47.558Z</time></trkpt><trkpt lat="45.6841465" lon="8.6782957"><ele>256.0</ele><time>2026-04-19T15:13:49.559Z</time></trkpt><trkpt lat="45.6841118" lon="8.6783997"><ele>256.0</ele><time>2026-04-19T15:13:51.559Z</time></trkpt><trkpt lat="45.684084" lon="8.6784929"><ele>255.99999999999997</ele><time>2026-04-19T15:13:53.559Z</time></trkpt><trkpt lat="45.6840511" lon="8.6785889"><ele>256.0</ele><time>2026-04-19T15:13:55.559Z</time></trkpt><trkpt lat="45.6840117" lon="8.6786698"><ele>256.0</ele><time>2026-04-19T15:13:57.559Z</time></trkpt><trkpt lat="45.6839622" lon="8.678756"><ele>255.99999999999997</ele><time>2026-04-19T15:14:00.558Z</time></trkpt><trkpt lat="45.6839403" lon="8.6788493"><ele>256.0</ele><time>2026-04-19T15:14:45.559Z</time></trkpt><trkpt lat="45.6839056" lon="8.6789423"><ele>256.0</ele><time>2026-04-19T15:14:47.559Z</time></trkpt><trkpt lat="45.6838714" lon="8.6790462"><ele>255.60000000000002</ele><time>2026-04-19T15:14:49.559Z</time></trkpt><trkpt lat="45.6838457" lon="8.6791314"><ele>255.20000000000002</ele><time>2026-04-19T15:14:51.558Z</time></trkpt><trkpt lat="45.6838084" lon="8.6792844"><ele>254.79999999999998</ele><time>2026-04-19T15:14:54.559Z</time></trkpt><trkpt lat="45.683768" lon="8.6794342"><ele>254.39999999999998</ele><time>2026-04-19T15:14:56.559Z</time></trkpt><trkpt lat="45.6837315" lon="8.679555"><ele>254.0</ele><time>2026-04-19T15:14:58.559Z</time></trkpt><trkpt lat="45.6836988" lon="8.6796791"><ele>253.6</ele><time>2026-04-19T15:15:00.559Z</time></trkpt><trkpt lat="45.683666" lon="8.6797945"><ele>253.2</ele><time>2026-04-19T15:15:02.559Z</time></trkpt><trkpt lat="45.6836172" lon="8.6799518"><ele>252.79999999999998</ele><time>2026-04-19T15:15:04.558Z</time></trkpt><trkpt lat="45.6835748" lon="8.6801056"><ele>252.39999999999998</ele><time>2026-04-19T15:15:06.559Z</time></trkpt><trkpt lat="45.6835432" lon="8.6802296"><ele>252.0</ele><time>2026-04-19T15:15:08.559Z</time></trkpt><trkpt lat="45.6835093" lon="8.6803539"><ele>251.33333333333331</ele><time>2026-04-19T15:15:10.558Z</time></trkpt><trkpt lat="45.6834632" lon="8.6804572"><ele>250.66666666666666</ele><time>2026-04-19T15:15:13.559Z</time></trkpt><trkpt lat="45.6833194" lon="8.6807731"><ele>250.0</ele><time>2026-04-19T15:15:14.559Z</time></trkpt><trkpt lat="45.6832697" lon="8.6809285"><ele>250.0</ele><time>2026-04-19T15:15:16.559Z</time></trkpt><trkpt lat="45.6832197" lon="8.6810772"><ele>250.0</ele><time>2026-04-19T15:15:18.558Z</time></trkpt><trkpt lat="45.6831724" lon="8.6812209"><ele>250.0</ele><time>2026-04-19T15:15:20.559Z</time></trkpt><trkpt lat="45.6831513" lon="8.6813721"><ele>250.0</ele><time>2026-04-19T15:15:22.558Z</time></trkpt><trkpt lat="45.6831102" lon="8.6815233"><ele>250.0</ele><time>2026-04-19T15:15:24.559Z</time></trkpt><trkpt lat="45.6830579" lon="8.681658"><ele>249.8</ele><time>2026-04-19T15:15:26.559Z</time></trkpt><trkpt lat="45.6830113" lon="8.6817859"><ele>249.6</ele><time>2026-04-19T15:15:28.559Z</time></trkpt><trkpt lat="45.6829633" lon="8.681911"><ele>249.39999999999998</ele><time>2026-04-19T15:15:30.558Z</time></trkpt><trkpt lat="45.6829295" lon="8.6820391"><ele>249.2</ele><time>2026-04-19T15:15:32.558Z</time></trkpt><trkpt lat="45.6828891" lon="8.6821774"><ele>249.0</ele><time>2026-04-19T15:15:34.559Z</time></trkpt><trkpt lat="45.682839" lon="8.6823199"><ele>248.6</ele><time>2026-04-19T15:15:36.559Z</time></trkpt><trkpt lat="45.6827868" lon="8.6824664"><ele>248.2</ele><time>2026-04-19T15:15:38.558Z</time></trkpt><trkpt lat="45.6827351" lon="8.6826018"><ele>247.79999999999998</ele><time>2026-04-19T15:15:40.559Z</time></trkpt><trkpt lat="45.6826905" lon="8.6827272"><ele>247.39999999999998</ele><time>2026-04-19T15:15:42.559Z</time></trkpt><trkpt lat="45.6826501" lon="8.6828536"><ele>247.0</ele><time>2026-04-19T15:15:44.559Z</time></trkpt><trkpt lat="45.6826108" lon="8.6829787"><ele>245.6</ele><time>2026-04-19T15:15:46.558Z</time></trkpt><trkpt lat="45.6825748" lon="8.6831022"><ele>244.2</ele><time>2026-04-19T15:15:48.559Z</time></trkpt><trkpt lat="45.682544" lon="8.6832229"><ele>242.8</ele><time>2026-04-19T15:15:50.559Z</time></trkpt><trkpt lat="45.682514" lon="8.6833402"><ele>241.4</ele><time>2026-04-19T15:15:52.559Z</time></trkpt><trkpt lat="45.6824773" lon="8.6834543"><ele>240.0</ele><time>2026-04-19T15:15:54.558Z</time></trkpt><trkpt lat="45.6824444" lon="8.6835774"><ele>241.0</ele><time>2026-04-19T15:15:56.558Z</time></trkpt><trkpt lat="45.6824041" lon="8.6836982"><ele>242.0</ele><time>2026-04-19T15:15:58.559Z</time></trkpt><trkpt lat="45.6823637" lon="8.683824"><ele>243.0</ele><time>2026-04-19T15:16:00.559Z</time></trkpt><trkpt lat="45.6823198" lon="8.6839506"><ele>244.0</ele><time>2026-04-19T15:16:02.559Z</time></trkpt><trkpt lat="45.6822786" lon="8.6840717"><ele>245.0</ele><time>2026-04-19T15:16:04.559Z</time></trkpt><trkpt lat="45.6822286" lon="8.6841795"><ele>245.00000000000003</ele><time>2026-04-19T15:16:06.558Z</time></trkpt><trkpt lat="45.6821863" lon="8.6842794"><ele>245.0</ele><time>2026-04-19T15:16:08.559Z</time></trkpt><trkpt lat="45.6821597" lon="8.6843798"><ele>245.0</ele><time>2026-04-19T15:16:10.558Z</time></trkpt><trkpt lat="45.6821778" lon="8.6844768"><ele>245.0</ele><time>2026-04-19T15:16:12.559Z</time></trkpt><trkpt lat="45.6822534" lon="8.6845403"><ele>245.00000000000003</ele><time>2026-04-19T15:16:15.559Z</time></trkpt><trkpt lat="45.6823376" lon="8.6845976"><ele>245.0</ele><time>2026-04-19T15:16:18.558Z</time></trkpt><trkpt lat="45.6823987" lon="8.684667"><ele>245.33333333333334</ele><time>2026-04-19T15:16:20.558Z</time></trkpt><trkpt lat="45.6824539" lon="8.6847314"><ele>245.66666666666669</ele><time>2026-04-19T15:16:22.558Z</time></trkpt><trkpt lat="45.6825268" lon="8.6847202"><ele>246.0</ele><time>2026-04-19T15:16:26.558Z</time></trkpt><trkpt lat="45.6825795" lon="8.6847794"><ele>246.33333333333331</ele><time>2026-04-19T15:16:38.559Z</time></trkpt><trkpt lat="45.6825825" lon="8.6848764"><ele>246.66666666666666</ele><time>2026-04-19T15:16:43.558Z</time></trkpt><trkpt lat="45.6826467" lon="8.684968"><ele>247.0</ele><time>2026-04-19T15:16:53.558Z</time></trkpt><trkpt lat="45.682704" lon="8.6850669"><ele>246.6</ele><time>2026-04-19T15:16:56.559Z</time></trkpt><trkpt lat="45.6827993" lon="8.6851237"><ele>246.2</ele><time>2026-04-19T15:16:59.558Z</time></trkpt><trkpt lat="45.6828852" lon="8.6851848"><ele>245.8</ele><time>2026-04-19T15:17:01.558Z</time></trkpt><trkpt lat="45.6829752" lon="8.6852458"><ele>245.4</ele><time>2026-04-19T15:17:03.558Z</time></trkpt><trkpt lat="45.6830559" lon="8.685295"><ele>245.0</ele><time>2026-04-19T15:17:05.559Z</time></trkpt><trkpt lat="45.6831367" lon="8.6853248"><ele>244.33333333333334</ele><time>2026-04-19T15:17:07.559Z</time></trkpt><trkpt lat="45.6832239" lon="8.685366"><ele>243.66666666666669</ele><time>2026-04-19T15:17:09.559Z</time></trkpt><trkpt lat="45.6833019" lon="8.6854211"><ele>243.0</ele><time>2026-04-19T15:17:11.559Z</time></trkpt><trkpt lat="45.6833748" lon="8.6854817"><ele>242.33333333333331</ele><time>2026-04-19T15:17:13.559Z</time></trkpt><trkpt lat="45.6834497" lon="8.685531"><ele>241.66666666666666</ele><time>2026-04-19T15:17:15.559Z</time></trkpt><trkpt lat="45.6835022" lon="8.6855937"><ele>241.0</ele><time>2026-04-19T15:17:17.559Z</time></trkpt><trkpt lat="45.6835775" lon="8.6856858"><ele>241.20000000000002</ele><time>2026-04-19T15:17:19.559Z</time></trkpt><trkpt lat="45.6836466" lon="8.6857877"><ele>241.40000000000003</ele><time>2026-04-19T15:17:21.559Z</time></trkpt><trkpt lat="45.6837109" lon="8.6858909"><ele>241.6</ele><time>2026-04-19T15:17:23.558Z</time></trkpt><trkpt lat="45.6837668" lon="8.6860121"><ele>241.8</ele><time>2026-04-19T15:17:25.559Z</time></trkpt><trkpt lat="45.6838365" lon="8.6861319"><ele>242.0</ele><time>2026-04-19T15:17:27.558Z</time></trkpt><trkpt lat="45.6839187" lon="8.6862209"><ele>241.6</ele><time>2026-04-19T15:17:29.559Z</time></trkpt><trkpt lat="45.6840197" lon="8.6862396"><ele>241.2</ele><time>2026-04-19T15:17:31.558Z</time></trkpt><trkpt lat="45.6841188" lon="8.6862527"><ele>240.8</ele><time>2026-04-19T15:17:33.559Z</time></trkpt><trkpt lat="45.684218" lon="8.6862428"><ele>240.4</ele><time>2026-04-19T15:17:35.558Z</time></trkpt><trkpt lat="45.6843303" lon="8.6862243"><ele>240.0</ele><time>2026-04-19T15:17:37.559Z</time></trkpt><trkpt lat="45.6844416" lon="8.6862308"><ele>241.2</ele><time>2026-04-19T15:17:39.559Z</time></trkpt><trkpt lat="45.6845309" lon="8.6862415"><ele>242.4</ele><time>2026-04-19T15:17:41.559Z</time></trkpt><trkpt lat="45.6846161" lon="8.6862716"><ele>243.60000000000002</ele><time>2026-04-19T15:17:43.558Z</time></trkpt><trkpt lat="45.6847008" lon="8.6863112"><ele>244.8</ele><time>2026-04-19T15:17:45.558Z</time></trkpt><trkpt lat="45.6848055" lon="8.686393"><ele>246.0</ele><time>2026-04-19T15:17:47.559Z</time></trkpt><trkpt lat="45.6848946" lon="8.6864974"><ele>246.0</ele><time>2026-04-19T15:17:49.559Z</time></trkpt><trkpt lat="45.6849704" lon="8.6865859"><ele>246.0</ele><time>2026-04-19T15:17:51.559Z</time></trkpt><trkpt lat="45.6850423" lon="8.6866401"><ele>246.0</ele><time>2026-04-19T15:17:53.558Z</time></trkpt><trkpt lat="45.6851154" lon="8.6866604"><ele>246.0</ele><time>2026-04-19T15:17:55.559Z</time></trkpt><trkpt lat="45.6852005" lon="8.6866759"><ele>246.0</ele><time>2026-04-19T15:17:58.559Z</time></trkpt><trkpt lat="45.6852718" lon="8.6867048"><ele>246.0</ele><time>2026-04-19T15:18:01.558Z</time></trkpt><trkpt lat="45.6853361" lon="8.6867198"><ele>246.5714285714286</ele><time>2026-04-19T15:18:03.559Z</time></trkpt><trkpt lat="45.6854006" lon="8.6867265"><ele>247.14285714285717</ele><time>2026-04-19T15:18:05.558Z</time></trkpt><trkpt lat="45.6854765" lon="8.6867232"><ele>247.71428571428572</ele><time>2026-04-19T15:18:07.558Z</time></trkpt><trkpt lat="45.6855496" lon="8.6867368"><ele>248.2857142857143</ele><time>2026-04-19T15:18:09.558Z</time></trkpt><trkpt lat="45.685618" lon="8.6867576"><ele>248.8571428571429</ele><time>2026-04-19T15:18:11.559Z</time></trkpt><trkpt lat="45.6856785" lon="8.6867827"><ele>249.42857142857142</ele><time>2026-04-19T15:18:13.558Z</time></trkpt><trkpt lat="45.6857402" lon="8.6868097"><ele>250.0</ele><time>2026-04-19T15:18:15.558Z</time></trkpt><trkpt lat="45.6858016" lon="8.6868462"><ele>249.99999999999997</ele><time>2026-04-19T15:18:17.559Z</time></trkpt><trkpt lat="45.6858665" lon="8.6868789"><ele>250.0</ele><time>2026-04-19T15:18:19.559Z</time></trkpt><trkpt lat="45.6859308" lon="8.6868959"><ele>250.0</ele><time>2026-04-19T15:18:21.559Z</time></trkpt><trkpt lat="45.6860114" lon="8.6869358"><ele>250.0</ele><time>2026-04-19T15:18:24.559Z</time></trkpt><trkpt lat="45.6860872" lon="8.6869727"><ele>249.99999999999997</ele><time>2026-04-19T15:18:27.559Z</time></trkpt><trkpt lat="45.6861543" lon="8.6870472"><ele>250.0</ele><time>2026-04-19T15:18:30.559Z</time></trkpt><trkpt lat="45.6862235" lon="8.6871129"><ele>249.66666666666666</ele><time>2026-04-19T15:18:33.558Z</time></trkpt><trkpt lat="45.6862895" lon="8.6871986"><ele>249.33333333333331</ele><time>2026-04-19T15:18:36.559Z</time></trkpt><trkpt lat="45.6863543" lon="8.6872667"><ele>249.0</ele><time>2026-04-19T15:18:39.558Z</time></trkpt><trkpt lat="45.6864318" lon="8.6873206"><ele>248.66666666666669</ele><time>2026-04-19T15:18:42.559Z</time></trkpt><trkpt lat="45.6865167" lon="8.6873286"><ele>248.33333333333334</ele><time>2026-04-19T15:18:45.558Z</time></trkpt><trkpt lat="45.6865933" lon="8.6873021"><ele>248.0</ele><time>2026-04-19T15:18:48.559Z</time></trkpt><trkpt lat="45.6866828" lon="8.6872662"><ele>248.00000000000003</ele><time>2026-04-19T15:18:51.558Z</time></trkpt><trkpt lat="45.6867747" lon="8.6872551"><ele>248.0</ele><time>2026-04-19T15:18:54.559Z</time></trkpt><trkpt lat="45.6868626" lon="8.6872849"><ele>248.0</ele><time>2026-04-19T15:18:57.558Z</time></trkpt><trkpt lat="45.68694" lon="8.687356"><ele>248.0</ele><time>2026-04-19T15:19:00.559Z</time></trkpt><trkpt lat="45.6870012" lon="8.6874036"><ele>248.00000000000003</ele><time>2026-04-19T15:19:02.558Z</time></trkpt><trkpt lat="45.6870718" lon="8.6874571"><ele>248.0</ele><time>2026-04-19T15:19:05.559Z</time></trkpt><trkpt lat="45.6871289" lon="8.6875329"><ele>248.2857142857143</ele><time>2026-04-19T15:19:08.558Z</time></trkpt><trkpt lat="45.6871779" lon="8.6876056"><ele>248.5714285714286</ele><time>2026-04-19T15:19:11.559Z</time></trkpt><trkpt lat="45.6872373" lon="8.6876747"><ele>248.85714285714286</ele><time>2026-04-19T15:19:15.559Z</time></trkpt><trkpt lat="45.6873017" lon="8.6877095"><ele>249.14285714285717</ele><time>2026-04-19T15:19:33.559Z</time></trkpt><trkpt lat="45.6873723" lon="8.6876767"><ele>249.42857142857144</ele><time>2026-04-19T15:19:36.559Z</time></trkpt><trkpt lat="45.6874438" lon="8.6876685"><ele>249.71428571428572</ele><time>2026-04-19T15:19:38.559Z</time></trkpt><trkpt lat="45.6875077" lon="8.6876849"><ele>250.0</ele><time>2026-04-19T15:19:40.558Z</time></trkpt><trkpt lat="45.6875897" lon="8.6877104"><ele>249.99999999999997</ele><time>2026-04-19T15:19:43.559Z</time></trkpt><trkpt lat="45.6876489" lon="8.6876634"><ele>250.0</ele><time>2026-04-19T15:19:49.559Z</time></trkpt><trkpt lat="45.6877086" lon="8.6875991"><ele>250.0</ele><time>2026-04-19T15:19:54.559Z</time></trkpt><trkpt lat="45.6877886" lon="8.6875707"><ele>250.0</ele><time>2026-04-19T15:19:58.559Z</time></trkpt><trkpt lat="45.6878481" lon="8.6875261"><ele>249.99999999999997</ele><time>2026-04-19T15:20:01.558Z</time></trkpt><trkpt lat="45.6879319" lon="8.6874642"><ele>250.0</ele><time>2026-04-19T15:20:04.559Z</time></trkpt><trkpt lat="45.688001" lon="8.6874289"><ele>250.33333333333331</ele><time>2026-04-19T15:20:07.558Z</time></trkpt><trkpt lat="45.6880973" lon="8.6873806"><ele>250.66666666666666</ele><time>2026-04-19T15:20:10.559Z</time></trkpt><trkpt lat="45.6881615" lon="8.6873515"><ele>251.0</ele><time>2026-04-19T15:20:12.559Z</time></trkpt><trkpt lat="45.688242" lon="8.687313"><ele>251.33333333333331</ele><time>2026-04-19T15:20:15.559Z</time></trkpt><trkpt lat="45.6883158" lon="8.6872791"><ele>251.66666666666666</ele><time>2026-04-19T15:20:18.558Z</time></trkpt><trkpt lat="45.6883849" lon="8.6872524"><ele>252.0</ele><time>2026-04-19T15:20:21.558Z</time></trkpt><trkpt lat="45.6884528" lon="8.6872142"><ele>252.0</ele><time>2026-04-19T15:20:24.558Z</time></trkpt><trkpt lat="45.6885289" lon="8.6871807"><ele>252.0</ele><time>2026-04-19T15:20:27.559Z</time></trkpt><trkpt lat="45.688599" lon="8.6871479"><ele>252.0</ele><time>2026-04-19T15:20:30.559Z</time></trkpt><trkpt lat="45.6886852" lon="8.6871268"><ele>252.0</ele><time>2026-04-19T15:20:33.558Z</time></trkpt><trkpt lat="45.6887682" lon="8.6871233"><ele>252.0</ele><time>2026-04-19T15:20:36.559Z</time></trkpt><trkpt lat="45.6888448" lon="8.6870963"><ele>252.0</ele><time>2026-04-19T15:20:39.558Z</time></trkpt><trkpt lat="45.6889169" lon="8.687083"><ele>252.66666666666666</ele><time>2026-04-19T15:20:42.559Z</time></trkpt><trkpt lat="45.6889909" lon="8.687093"><ele>253.33333333333331</ele><time>2026-04-19T15:20:45.559Z</time></trkpt><trkpt lat="45.6890704" lon="8.6871053"><ele>254.0</ele><time>2026-04-19T15:20:48.559Z</time></trkpt><trkpt lat="45.6891569" lon="8.6871329"><ele>254.66666666666666</ele><time>2026-04-19T15:20:51.559Z</time></trkpt><trkpt lat="45.6892399" lon="8.6871567"><ele>255.33333333333331</ele><time>2026-04-19T15:20:54.558Z</time></trkpt><trkpt lat="45.6892986" lon="8.6871975"><ele>256.0</ele><time>2026-04-19T15:20:56.559Z</time></trkpt><trkpt lat="45.6893641" lon="8.6872153"><ele>255.66666666666666</ele><time>2026-04-19T15:20:58.559Z</time></trkpt><trkpt lat="45.6894441" lon="8.6872515"><ele>255.33333333333331</ele><time>2026-04-19T15:21:03.559Z</time></trkpt><trkpt lat="45.6895122" lon="8.6873039"><ele>255.0</ele><time>2026-04-19T15:21:05.558Z</time></trkpt><trkpt lat="45.6895847" lon="8.6873328"><ele>254.66666666666669</ele><time>2026-04-19T15:21:08.559Z</time></trkpt><trkpt lat="45.689654" lon="8.6873621"><ele>254.33333333333334</ele><time>2026-04-19T15:21:11.559Z</time></trkpt><trkpt lat="45.6897232" lon="8.6873877"><ele>254.0</ele><time>2026-04-19T15:21:14.558Z</time></trkpt><trkpt lat="45.6898001" lon="8.687413"><ele>254.00000000000003</ele><time>2026-04-19T15:21:17.559Z</time></trkpt><trkpt lat="45.6898767" lon="8.6874552"><ele>254.0</ele><time>2026-04-19T15:21:20.558Z</time></trkpt><trkpt lat="45.6899255" lon="8.6875148"><ele>254.0</ele><time>2026-04-19T15:21:22.559Z</time></trkpt><trkpt lat="45.6899776" lon="8.6875985"><ele>254.0</ele><time>2026-04-19T15:21:25.559Z</time></trkpt><trkpt lat="45.6900278" lon="8.6876696"><ele>254.00000000000003</ele><time>2026-04-19T15:21:28.559Z</time></trkpt><trkpt lat="45.6900806" lon="8.6877442"><ele>254.0</ele><time>2026-04-19T15:21:31.559Z</time></trkpt><trkpt lat="45.6901323" lon="8.6878329"><ele>253.33333333333334</ele><time>2026-04-19T15:21:34.558Z</time></trkpt><trkpt lat="45.690172" lon="8.6879201"><ele>252.66666666666669</ele><time>2026-04-19T15:21:37.558Z</time></trkpt><trkpt lat="45.6902409" lon="8.6880005"><ele>252.0</ele><time>2026-04-19T15:21:40.559Z</time></trkpt><trkpt lat="45.6902971" lon="8.6880828"><ele>251.33333333333331</ele><time>2026-04-19T15:21:43.559Z</time></trkpt><trkpt lat="45.6903605" lon="8.688148"><ele>250.66666666666666</ele><time>2026-04-19T15:21:46.558Z</time></trkpt><trkpt lat="45.6904413" lon="8.6882079"><ele>250.0</ele><time>2026-04-19T15:21:49.559Z</time></trkpt><trkpt lat="45.6905276" lon="8.6882406"><ele>249.99999999999997</ele><time>2026-04-19T15:21:52.559Z</time></trkpt><trkpt lat="45.690611" lon="8.6882609"><ele>250.0</ele><time>2026-04-19T15:21:55.559Z</time></trkpt><trkpt lat="45.6906881" lon="8.688283"><ele>250.0</ele><time>2026-04-19T15:21:58.558Z</time></trkpt><trkpt lat="45.6907578" lon="8.688309"><ele>250.0</ele><time>2026-04-19T15:22:00.559Z</time></trkpt><trkpt lat="45.6908487" lon="8.6883173"><ele>249.99999999999997</ele><time>2026-04-19T15:22:03.559Z</time></trkpt><trkpt lat="45.6909141" lon="8.6883441"><ele>250.0</ele><time>2026-04-19T15:22:05.558Z</time></trkpt><trkpt lat="45.6909737" lon="8.6883824"><ele>249.99999999999997</ele><time>2026-04-19T15:22:07.559Z</time></trkpt><trkpt lat="45.6910445" lon="8.6884001"><ele>250.0</ele><time>2026-04-19T15:22:09.559Z</time></trkpt><trkpt lat="45.6911108" lon="8.6884108"><ele>250.0</ele><time>2026-04-19T15:22:11.559Z</time></trkpt><trkpt lat="45.6911921" lon="8.6884059"><ele>250.0</ele><time>2026-04-19T15:22:14.558Z</time></trkpt><trkpt lat="45.6912454" lon="8.688329"><ele>249.99999999999997</ele><time>2026-04-19T15:22:17.558Z</time></trkpt><trkpt lat="45.6913155" lon="8.6882504"><ele>250.0</ele><time>2026-04-19T15:22:20.559Z</time></trkpt><trkpt lat="45.6913642" lon="8.6883172"><ele>250.28571428571428</ele><time>2026-04-19T15:22:22.559Z</time></trkpt><trkpt lat="45.6913804" lon="8.6884164"><ele>250.57142857142858</ele><time>2026-04-19T15:22:24.559Z</time></trkpt><trkpt lat="45.6913897" lon="8.6885319"><ele>250.85714285714286</ele><time>2026-04-19T15:22:26.559Z</time></trkpt><trkpt lat="45.691407" lon="8.6886375"><ele>251.14285714285714</ele><time>2026-04-19T15:22:28.558Z</time></trkpt><trkpt lat="45.6914271" lon="8.6887456"><ele>251.42857142857144</ele><time>2026-04-19T15:22:30.559Z</time></trkpt><trkpt lat="45.6914431" lon="8.6888456"><ele>251.71428571428572</ele><time>2026-04-19T15:22:32.559Z</time></trkpt><trkpt lat="45.6914663" lon="8.6889353"><ele>252.0</ele><time>2026-04-19T15:22:34.558Z</time></trkpt><trkpt lat="45.6915191" lon="8.6890508"><ele>252.2</ele><time>2026-04-19T15:22:37.558Z</time></trkpt><trkpt lat="45.6915569" lon="8.6891317"><ele>252.39999999999998</ele><time>2026-04-19T15:22:39.558Z</time></trkpt><trkpt lat="45.6916069" lon="8.6892415"><ele>252.60000000000002</ele><time>2026-04-19T15:22:42.559Z</time></trkpt><trkpt lat="45.6916555" lon="8.6893393"><ele>252.8</ele><time>2026-04-19T15:22:45.559Z</time></trkpt><trkpt lat="45.6916964" lon="8.6894717"><ele>253.0</ele><time>2026-04-19T15:22:48.559Z</time></trkpt><trkpt lat="45.6917769" lon="8.6895923"><ele>253.33333333333331</ele><time>2026-04-19T15:22:50.559Z</time></trkpt><trkpt lat="45.6918546" lon="8.6897096"><ele>253.66666666666666</ele><time>2026-04-19T15:22:52.558Z</time></trkpt><trkpt lat="45.6919163" lon="8.6897929"><ele>254.0</ele><time>2026-04-19T15:22:54.559Z</time></trkpt><trkpt lat="45.69196" lon="8.6898711"><ele>254.33333333333331</ele><time>2026-04-19T15:22:56.559Z</time></trkpt><trkpt lat="45.6920106" lon="8.6899711"><ele>254.66666666666666</ele><time>2026-04-19T15:22:58.559Z</time></trkpt><trkpt lat="45.6920674" lon="8.6900712"><ele>255.0</ele><time>2026-04-19T15:23:00.558Z</time></trkpt><trkpt lat="45.6921023" lon="8.6901809"><ele>255.14285714285717</ele><time>2026-04-19T15:23:03.559Z</time></trkpt><trkpt lat="45.6921458" lon="8.6902851"><ele>255.2857142857143</ele><time>2026-04-19T15:23:06.559Z</time></trkpt><trkpt lat="45.6921795" lon="8.6903666"><ele>255.42857142857144</ele><time>2026-04-19T15:23:08.559Z</time></trkpt><trkpt lat="45.6922082" lon="8.6904592"><ele>255.57142857142856</ele><time>2026-04-19T15:23:10.559Z</time></trkpt><trkpt lat="45.6922469" lon="8.6905501"><ele>255.7142857142857</ele><time>2026-04-19T15:23:12.558Z</time></trkpt><trkpt lat="45.6922861" lon="8.6906281"><ele>255.85714285714283</ele><time>2026-04-19T15:23:14.558Z</time></trkpt><trkpt lat="45.6923328" lon="8.6907294"><ele>256.0</ele><time>2026-04-19T15:23:16.559Z</time></trkpt><trkpt lat="45.6923655" lon="8.6908348"><ele>255.99999999999997</ele><time>2026-04-19T15:23:18.558Z</time></trkpt><trkpt lat="45.692389" lon="8.6909396"><ele>256.0</ele><time>2026-04-19T15:23:20.558Z</time></trkpt><trkpt lat="45.692423" lon="8.6910304"><ele>256.0</ele><time>2026-04-19T15:23:22.559Z</time></trkpt><trkpt lat="45.6924506" lon="8.6911383"><ele>256.0</ele><time>2026-04-19T15:23:24.558Z</time></trkpt><trkpt lat="45.6925011" lon="8.6912473"><ele>255.99999999999997</ele><time>2026-04-19T15:23:26.559Z</time></trkpt><trkpt lat="45.6926024" lon="8.6913244"><ele>256.0</ele><time>2026-04-19T15:23:28.558Z</time></trkpt><trkpt lat="45.6926951" lon="8.69141"><ele>255.99999999999997</ele><time>2026-04-19T15:23:30.559Z</time></trkpt><trkpt lat="45.6927708" lon="8.6914978"><ele>256.0</ele><time>2026-04-19T15:23:32.559Z</time></trkpt><trkpt lat="45.6928371" lon="8.6915841"><ele>256.0</ele><time>2026-04-19T15:23:34.559Z</time></trkpt><trkpt lat="45.6928956" lon="8.6916575"><ele>256.0</ele><time>2026-04-19T15:23:36.558Z</time></trkpt><trkpt lat="45.692945" lon="8.6917347"><ele>255.99999999999997</ele><time>2026-04-19T15:23:38.559Z</time></trkpt><trkpt lat="45.6929942" lon="8.6917999"><ele>256.0</ele><time>2026-04-19T15:23:40.558Z</time></trkpt><trkpt lat="45.6930593" lon="8.6918943"><ele>254.99999999999997</ele><time>2026-04-19T15:23:43.559Z</time></trkpt><trkpt lat="45.693115" lon="8.692004"><ele>254.0</ele><time>2026-04-19T15:23:46.559Z</time></trkpt><trkpt lat="45.6931061" lon="8.6921132"><ele>253.0</ele><time>2026-04-19T15:23:48.558Z</time></trkpt><trkpt lat="45.6930677" lon="8.6921993"><ele>252.0</ele><time>2026-04-19T15:23:50.558Z</time></trkpt><trkpt lat="45.6930676" lon="8.692326"><ele>250.99999999999997</ele><time>2026-04-19T15:23:53.558Z</time></trkpt><trkpt lat="45.6931272" lon="8.6924112"><ele>250.0</ele><time>2026-04-19T15:23:56.559Z</time></trkpt><trkpt lat="45.6931888" lon="8.692471"><ele>249.99999999999997</ele><time>2026-04-19T15:23:59.558Z</time></trkpt><trkpt lat="45.6932055" lon="8.692568"><ele>250.0</ele><time>2026-04-19T15:24:01.559Z</time></trkpt><trkpt lat="45.6931017" lon="8.69258"><ele>250.0</ele><time>2026-04-19T15:24:03.559Z</time></trkpt><trkpt lat="45.6930783" lon="8.692465"><ele>250.0</ele><time>2026-04-19T15:24:06.559Z</time></trkpt><trkpt lat="45.6930311" lon="8.6923696"><ele>249.99999999999997</ele><time>2026-04-19T15:24:09.559Z</time></trkpt><trkpt lat="45.6930295" lon="8.6922794"><ele>250.0</ele><time>2026-04-19T15:24:10.559Z</time></trkpt><trkpt lat="45.6930031" lon="8.6921938"><ele>250.0</ele><time>2026-04-19T15:24:12.559Z</time></trkpt><trkpt lat="45.6930074" lon="8.6920994"><ele>250.0</ele><time>2026-04-19T15:24:21.559Z</time></trkpt><trkpt lat="45.6930048" lon="8.6921941"><ele>250.0</ele><time>2026-04-19T15:26:05.495Z</time></trkpt><trkpt lat="45.6929823" lon="8.6922918"><ele>250.0</ele><time>2026-04-19T15:26:07.559Z</time></trkpt><trkpt lat="45.6931214" lon="8.6924304"><ele>250.0</ele><time>2026-04-19T15:26:09.558Z</time></trkpt><trkpt lat="45.6931924" lon="8.6924916"><ele>249.99999999999997</ele><time>2026-04-19T15:26:10.558Z</time></trkpt><trkpt lat="45.6932656" lon="8.692567"><ele>250.0</ele><time>2026-04-19T15:26:12.558Z</time></trkpt><trkpt lat="45.6933349" lon="8.6926304"><ele>250.0</ele><time>2026-04-19T15:26:14.559Z</time></trkpt><trkpt lat="45.6933856" lon="8.692706"><ele>250.0</ele><time>2026-04-19T15:26:16.559Z</time></trkpt><trkpt lat="45.6934298" lon="8.6927735"><ele>249.99999999999997</ele><time>2026-04-19T15:26:18.558Z</time></trkpt><trkpt lat="45.693479" lon="8.6928344"><ele>250.0</ele><time>2026-04-19T15:26:20.558Z</time></trkpt><trkpt lat="45.6935369" lon="8.6929193"><ele>251.49999999999997</ele><time>2026-04-19T15:26:22.559Z</time></trkpt><trkpt lat="45.6935956" lon="8.6929747"><ele>253.0</ele><time>2026-04-19T15:26:25.559Z</time></trkpt><trkpt lat="45.6936477" lon="8.6930591"><ele>254.5</ele><time>2026-04-19T15:26:30.559Z</time></trkpt><trkpt lat="45.6937021" lon="8.6931369"><ele>256.0</ele><time>2026-04-19T15:26:34.559Z</time></trkpt><trkpt lat="45.6937482" lon="8.6932132"><ele>257.5</ele><time>2026-04-19T15:26:38.559Z</time></trkpt><trkpt lat="45.6938163" lon="8.6932709"><ele>259.0</ele><time>2026-04-19T15:26:41.558Z</time></trkpt><trkpt lat="45.6938889" lon="8.6933368"><ele>259.0</ele><time>2026-04-19T15:26:44.558Z</time></trkpt><trkpt lat="45.6939515" lon="8.6934428"><ele>259.0</ele><time>2026-04-19T15:26:47.559Z</time></trkpt><trkpt lat="45.6940062" lon="8.6934908"><ele>259.0</ele><time>2026-04-19T15:26:49.559Z</time></trkpt><trkpt lat="45.6940787" lon="8.6935944"><ele>259.0</ele><time>2026-04-19T15:26:52.559Z</time></trkpt><trkpt lat="45.6941341" lon="8.6936825"><ele>259.0</ele><time>2026-04-19T15:26:55.558Z</time></trkpt><trkpt lat="45.6941786" lon="8.6937472"><ele>259.0</ele><time>2026-04-19T15:26:57.559Z</time></trkpt><trkpt lat="45.6942296" lon="8.6938255"><ele>258.66666666666663</ele><time>2026-04-19T15:26:59.558Z</time></trkpt><trkpt lat="45.6942739" lon="8.6939121"><ele>258.3333333333333</ele><time>2026-04-19T15:27:02.558Z</time></trkpt><trkpt lat="45.6943283" lon="8.693969"><ele>258.0</ele><time>2026-04-19T15:27:06.559Z</time></trkpt><trkpt lat="45.6943801" lon="8.6940213"><ele>257.6666666666667</ele><time>2026-04-19T15:27:08.558Z</time></trkpt><trkpt lat="45.694431" lon="8.6940973"><ele>257.33333333333337</ele><time>2026-04-19T15:27:11.559Z</time></trkpt><trkpt lat="45.6944877" lon="8.6941817"><ele>257.0</ele><time>2026-04-19T15:27:14.558Z</time></trkpt><trkpt lat="45.6945462" lon="8.6942869"><ele>257.1666666666667</ele><time>2026-04-19T15:27:17.559Z</time></trkpt><trkpt lat="45.6946101" lon="8.6943973"><ele>257.33333333333337</ele><time>2026-04-19T15:27:20.559Z</time></trkpt><trkpt lat="45.6946757" lon="8.6944502"><ele>257.5</ele><time>2026-04-19T15:27:23.559Z</time></trkpt><trkpt lat="45.6947269" lon="8.694529"><ele>257.6666666666667</ele><time>2026-04-19T15:27:26.559Z</time></trkpt><trkpt lat="45.6947741" lon="8.6945927"><ele>257.8333333333333</ele><time>2026-04-19T15:27:28.558Z</time></trkpt><trkpt lat="45.6948268" lon="8.6946689"><ele>258.0</ele><time>2026-04-19T15:27:30.559Z</time></trkpt><trkpt lat="45.6948702" lon="8.6947458"><ele>258.0</ele><time>2026-04-19T15:27:32.559Z</time></trkpt><trkpt lat="45.69494" lon="8.6948387"><ele>258.0</ele><time>2026-04-19T15:27:35.559Z</time></trkpt><trkpt lat="45.6949953" lon="8.6949074"><ele>258.0</ele><time>2026-04-19T15:27:36.559Z</time></trkpt><trkpt lat="45.695045" lon="8.6950128"><ele>258.0</ele><time>2026-04-19T15:27:39.559Z</time></trkpt><trkpt lat="45.6950984" lon="8.6950784"><ele>258.0</ele><time>2026-04-19T15:27:41.558Z</time></trkpt><trkpt lat="45.695149" lon="8.6951475"><ele>258.0</ele><time>2026-04-19T15:27:43.558Z</time></trkpt><trkpt lat="45.6952141" lon="8.695231"><ele>258.3333333333333</ele><time>2026-04-19T15:27:46.558Z</time></trkpt><trkpt lat="45.6952739" lon="8.6953177"><ele>258.6666666666667</ele><time>2026-04-19T15:27:48.559Z</time></trkpt><trkpt lat="45.6953247" lon="8.695409"><ele>259.0</ele><time>2026-04-19T15:27:50.559Z</time></trkpt><trkpt lat="45.6953923" lon="8.6954855"><ele>259.33333333333337</ele><time>2026-04-19T15:27:53.559Z</time></trkpt><trkpt lat="45.6954334" lon="8.6955547"><ele>259.6666666666667</ele><time>2026-04-19T15:27:55.559Z</time></trkpt><trkpt lat="45.6954871" lon="8.6956425"><ele>260.0</ele><time>2026-04-19T15:27:57.559Z</time></trkpt><trkpt lat="45.695567" lon="8.6957392"><ele>260.0</ele><time>2026-04-19T15:27:59.559Z</time></trkpt><trkpt lat="45.6956396" lon="8.6958192"><ele>260.0</ele><time>2026-04-19T15:28:01.558Z</time></trkpt><trkpt lat="45.6957029" lon="8.6958908"><ele>260.0</ele><time>2026-04-19T15:28:03.559Z</time></trkpt><trkpt lat="45.6957697" lon="8.695985"><ele>260.0</ele><time>2026-04-19T15:28:06.559Z</time></trkpt><trkpt lat="45.6958233" lon="8.6960635"><ele>260.0</ele><time>2026-04-19T15:28:08.559Z</time></trkpt><trkpt lat="45.6958784" lon="8.6961564"><ele>260.0</ele><time>2026-04-19T15:28:11.559Z</time></trkpt><trkpt lat="45.6959348" lon="8.6962165"><ele>260.33333333333337</ele><time>2026-04-19T15:28:13.559Z</time></trkpt><trkpt lat="45.6960059" lon="8.6963"><ele>260.6666666666667</ele><time>2026-04-19T15:28:15.559Z</time></trkpt><trkpt lat="45.6960589" lon="8.6963699"><ele>261.0</ele><time>2026-04-19T15:28:17.559Z</time></trkpt><trkpt lat="45.6961095" lon="8.6964601"><ele>261.3333333333333</ele><time>2026-04-19T15:28:19.559Z</time></trkpt><trkpt lat="45.6961537" lon="8.6965253"><ele>261.66666666666663</ele><time>2026-04-19T15:28:21.559Z</time></trkpt><trkpt lat="45.6962253" lon="8.6965832"><ele>262.0</ele><time>2026-04-19T15:28:24.559Z</time></trkpt><trkpt lat="45.6962701" lon="8.6965191"><ele>262.0</ele><time>2026-04-19T15:28:27.558Z</time></trkpt><trkpt lat="45.6963359" lon="8.6964712"><ele>262.0</ele><time>2026-04-19T15:28:30.559Z</time></trkpt><trkpt lat="45.6963982" lon="8.6965022"><ele>262.0</ele><time>2026-04-19T15:28:32.558Z</time></trkpt><trkpt lat="45.696455" lon="8.6965875"><ele>262.0</ele><time>2026-04-19T15:28:34.559Z</time></trkpt><trkpt lat="45.6965147" lon="8.6966766"><ele>262.0</ele><time>2026-04-19T15:28:36.559Z</time></trkpt><trkpt lat="45.6965693" lon="8.6967601"><ele>262.0</ele><time>2026-04-19T15:28:38.559Z</time></trkpt><trkpt lat="45.6966239" lon="8.6968302"><ele>261.8333333333333</ele><time>2026-04-19T15:28:40.559Z</time></trkpt><trkpt lat="45.6966792" lon="8.6969218"><ele>261.66666666666663</ele><time>2026-04-19T15:28:43.558Z</time></trkpt><trkpt lat="45.6966817" lon="8.697028"><ele>261.5</ele><time>2026-04-19T15:28:45.559Z</time></trkpt><trkpt lat="45.6967211" lon="8.6971144"><ele>261.3333333333333</ele><time>2026-04-19T15:28:47.559Z</time></trkpt><trkpt lat="45.6967061" lon="8.697262"><ele>261.1666666666667</ele><time>2026-04-19T15:28:49.559Z</time></trkpt><trkpt lat="45.6967603" lon="8.697334"><ele>261.0</ele><time>2026-04-19T15:28:53.558Z</time></trkpt><trkpt lat="45.6968025" lon="8.6974064"><ele>261.0</ele><time>2026-04-19T15:28:56.558Z</time></trkpt><trkpt lat="45.6968751" lon="8.697472"><ele>261.0</ele><time>2026-04-19T15:28:59.559Z</time></trkpt><trkpt lat="45.6969556" lon="8.6974895"><ele>261.0</ele><time>2026-04-19T15:29:01.559Z</time></trkpt><trkpt lat="45.697036" lon="8.6975279"><ele>261.0</ele><time>2026-04-19T15:29:04.559Z</time></trkpt><trkpt lat="45.6970933" lon="8.697609"><ele>261.0</ele><time>2026-04-19T15:29:07.558Z</time></trkpt><trkpt lat="45.6971425" lon="8.6977127"><ele>261.0</ele><time>2026-04-19T15:29:11.558Z</time></trkpt><trkpt lat="45.6971937" lon="8.697788"><ele>260.8333333333333</ele><time>2026-04-19T15:29:14.559Z</time></trkpt><trkpt lat="45.6972443" lon="8.6978912"><ele>260.6666666666667</ele><time>2026-04-19T15:29:17.559Z</time></trkpt><trkpt lat="45.6972997" lon="8.6979967"><ele>260.5</ele><time>2026-04-19T15:29:20.559Z</time></trkpt><trkpt lat="45.6973572" lon="8.6981041"><ele>260.33333333333337</ele><time>2026-04-19T15:29:23.559Z</time></trkpt><trkpt lat="45.6974143" lon="8.6981821"><ele>260.1666666666667</ele><time>2026-04-19T15:29:25.558Z</time></trkpt><trkpt lat="45.6974615" lon="8.6982611"><ele>260.0</ele><time>2026-04-19T15:29:27.558Z</time></trkpt><trkpt lat="45.697501" lon="8.6983392"><ele>260.00000000000006</ele><time>2026-04-19T15:29:29.559Z</time></trkpt><trkpt lat="45.6975524" lon="8.698418"><ele>260.0</ele><time>2026-04-19T15:29:31.558Z</time></trkpt><trkpt lat="45.6976023" lon="8.6984861"><ele>260.0</ele><time>2026-04-19T15:29:33.558Z</time></trkpt><trkpt lat="45.6976437" lon="8.6985596"><ele>260.0</ele><time>2026-04-19T15:29:35.559Z</time></trkpt><trkpt lat="45.6976762" lon="8.6986401"><ele>260.0</ele><time>2026-04-19T15:29:37.559Z</time></trkpt><trkpt lat="45.6977121" lon="8.6987405"><ele>260.00000000000006</ele><time>2026-04-19T15:29:39.558Z</time></trkpt><trkpt lat="45.6977604" lon="8.6988302"><ele>260.0</ele><time>2026-04-19T15:29:41.559Z</time></trkpt><trkpt lat="45.6978217" lon="8.6989258"><ele>260.1666666666667</ele><time>2026-04-19T15:29:43.559Z</time></trkpt><trkpt lat="45.6978631" lon="8.6990059"><ele>260.33333333333337</ele><time>2026-04-19T15:29:45.559Z</time></trkpt><trkpt lat="45.6979038" lon="8.6991263"><ele>260.5</ele><time>2026-04-19T15:29:48.559Z</time></trkpt><trkpt lat="45.6979344" lon="8.69922"><ele>260.6666666666667</ele><time>2026-04-19T15:29:51.559Z</time></trkpt><trkpt lat="45.6980023" lon="8.6992883"><ele>260.8333333333333</ele><time>2026-04-19T15:29:57.559Z</time></trkpt><trkpt lat="45.6980563" lon="8.6993588"><ele>261.0</ele><time>2026-04-19T15:30:00.559Z</time></trkpt><trkpt lat="45.698105" lon="8.6994252"><ele>260.57142857142856</ele><time>2026-04-19T15:30:03.558Z</time></trkpt><trkpt lat="45.6981706" lon="8.6995228"><ele>260.1428571428571</ele><time>2026-04-19T15:30:07.559Z</time></trkpt><trkpt lat="45.698218" lon="8.6996172"><ele>259.71428571428567</ele><time>2026-04-19T15:30:10.558Z</time></trkpt><trkpt lat="45.6982621" lon="8.6996907"><ele>259.2857142857143</ele><time>2026-04-19T15:30:13.558Z</time></trkpt><trkpt lat="45.6983081" lon="8.6997611"><ele>258.85714285714283</ele><time>2026-04-19T15:30:16.558Z</time></trkpt><trkpt lat="45.6983509" lon="8.6998345"><ele>258.4285714285714</ele><time>2026-04-19T15:30:18.558Z</time></trkpt><trkpt lat="45.6983919" lon="8.6999096"><ele>258.0</ele><time>2026-04-19T15:30:20.559Z</time></trkpt><trkpt lat="45.6984381" lon="8.7000032"><ele>257.99999999999994</ele><time>2026-04-19T15:30:22.558Z</time></trkpt><trkpt lat="45.6984783" lon="8.7000958"><ele>258.0</ele><time>2026-04-19T15:30:24.559Z</time></trkpt><trkpt lat="45.698521" lon="8.7001801"><ele>258.0</ele><time>2026-04-19T15:30:26.559Z</time></trkpt><trkpt lat="45.6985589" lon="8.7002542"><ele>258.0</ele><time>2026-04-19T15:30:28.559Z</time></trkpt><trkpt lat="45.6985994" lon="8.700335"><ele>258.0</ele><time>2026-04-19T15:30:30.559Z</time></trkpt><trkpt lat="45.6986299" lon="8.7004329"><ele>257.99999999999994</ele><time>2026-04-19T15:30:32.559Z</time></trkpt><trkpt lat="45.698665" lon="8.7005317"><ele>258.0</ele><time>2026-04-19T15:30:34.559Z</time></trkpt><trkpt lat="45.6987004" lon="8.7006248"><ele>258.0</ele><time>2026-04-19T15:30:36.558Z</time></trkpt><trkpt lat="45.6987333" lon="8.700719"><ele>258.0</ele><time>2026-04-19T15:30:38.558Z</time></trkpt><trkpt lat="45.6987551" lon="8.7008134"><ele>258.0</ele><time>2026-04-19T15:30:40.559Z</time></trkpt><trkpt lat="45.6987763" lon="8.7009053"><ele>258.0</ele><time>2026-04-19T15:30:42.558Z</time></trkpt><trkpt lat="45.6987573" lon="8.7010208"><ele>258.0</ele><time>2026-04-19T15:30:45.559Z</time></trkpt><trkpt lat="45.6987088" lon="8.7011133"><ele>258.0</ele><time>2026-04-19T15:30:48.558Z</time></trkpt><trkpt lat="45.6986394" lon="8.70118"><ele>257.85714285714283</ele><time>2026-04-19T15:30:51.559Z</time></trkpt><trkpt lat="45.6986006" lon="8.701262"><ele>257.7142857142857</ele><time>2026-04-19T15:31:27.559Z</time></trkpt><trkpt lat="45.6985261" lon="8.7012289"><ele>257.57142857142856</ele><time>2026-04-19T15:31:31.559Z</time></trkpt><trkpt lat="45.6985593" lon="8.7011516"><ele>257.42857142857144</ele><time>2026-04-19T15:32:09.559Z</time></trkpt><trkpt lat="45.6985246" lon="8.7012376"><ele>257.2857142857143</ele><time>2026-04-19T15:33:06.558Z</time></trkpt><trkpt lat="45.6984718" lon="8.7012952"><ele>257.1428571428571</ele><time>2026-04-19T15:33:11.558Z</time></trkpt><trkpt lat="45.6984157" lon="8.7013477"><ele>257.0</ele><time>2026-04-19T15:33:17.559Z</time></trkpt><trkpt lat="45.6983485" lon="8.7013994"><ele>257.0</ele><time>2026-04-19T15:33:24.559Z</time></trkpt><trkpt lat="45.6983057" lon="8.7014698"><ele>257.0</ele><time>2026-04-19T15:33:32.558Z</time></trkpt><trkpt lat="45.6982512" lon="8.701534"><ele>257.0</ele><time>2026-04-19T15:33:40.559Z</time></trkpt><trkpt lat="45.6982216" lon="8.7016225"><ele>257.0</ele><time>2026-04-19T15:33:48.559Z</time></trkpt><trkpt lat="45.6981812" lon="8.7017035"><ele>257.0</ele><time>2026-04-19T15:33:55.559Z</time></trkpt><trkpt lat="45.6981185" lon="8.7017621"><ele>257.0</ele><time>2026-04-19T15:34:01.558Z</time></trkpt><trkpt lat="45.6980647" lon="8.7018325"><ele>257.0</ele><time>2026-04-19T15:34:07.559Z</time></trkpt><trkpt lat="45.698009" lon="8.7018836"><ele>257.0</ele><time>2026-04-19T15:34:14.559Z</time></trkpt><trkpt lat="45.6979414" lon="8.7019145"><ele>257.0</ele><time>2026-04-19T15:34:22.499Z</time></trkpt><trkpt lat="45.697871" lon="8.7019069"><ele>257.0</ele><time>2026-04-19T15:34:30.517Z</time></trkpt><trkpt lat="45.6978144" lon="8.7018626"><ele>257.0</ele><time>2026-04-19T15:34:38.559Z</time></trkpt><trkpt lat="45.6977545" lon="8.7018339"><ele>257.0</ele><time>2026-04-19T15:34:46.558Z</time></trkpt><trkpt lat="45.6976899" lon="8.7017971"><ele>257.0</ele><time>2026-04-19T15:34:54.559Z</time></trkpt><trkpt lat="45.6976168" lon="8.7017641"><ele>257.0</ele><time>2026-04-19T15:35:05.559Z</time></trkpt><trkpt lat="45.6975523" lon="8.7017315"><ele>258.1428571428571</ele><time>2026-04-19T15:35:12.559Z</time></trkpt><trkpt lat="45.6974903" lon="8.7016947"><ele>259.2857142857143</ele><time>2026-04-19T15:35:20.559Z</time></trkpt><trkpt lat="45.6974211" lon="8.7016854"><ele>260.42857142857144</ele><time>2026-04-19T15:35:28.559Z</time></trkpt><trkpt lat="45.6973571" lon="8.7016594"><ele>261.57142857142856</ele><time>2026-04-19T15:36:14.559Z</time></trkpt><trkpt lat="45.6972753" lon="8.701723"><ele>262.7142857142857</ele><time>2026-04-19T15:36:20.558Z</time></trkpt><trkpt lat="45.6972071" lon="8.7017228"><ele>263.85714285714283</ele><time>2026-04-19T15:36:23.499Z</time></trkpt><trkpt lat="45.6971352" lon="8.701672"><ele>265.0</ele><time>2026-04-19T15:36:26.558Z</time></trkpt><trkpt lat="45.6970647" lon="8.7016342"><ele>265.0</ele><time>2026-04-19T15:36:29.559Z</time></trkpt><trkpt lat="45.6969897" lon="8.7015961"><ele>265.0</ele><time>2026-04-19T15:36:32.559Z</time></trkpt><trkpt lat="45.6969146" lon="8.7015503"><ele>265.0</ele><time>2026-04-19T15:36:35.559Z</time></trkpt><trkpt lat="45.6968375" lon="8.7015051"><ele>265.0</ele><time>2026-04-19T15:36:38.559Z</time></trkpt><trkpt lat="45.6967614" lon="8.7014632"><ele>265.0</ele><time>2026-04-19T15:36:41.559Z</time></trkpt><trkpt lat="45.6966876" lon="8.7014233"><ele>265.0</ele><time>2026-04-19T15:36:44.559Z</time></trkpt><trkpt lat="45.6966189" lon="8.7013838"><ele>265.85714285714283</ele><time>2026-04-19T15:36:47.559Z</time></trkpt><trkpt lat="45.6965531" lon="8.7013383"><ele>266.7142857142857</ele><time>2026-04-19T15:36:50.559Z</time></trkpt><trkpt lat="45.6964864" lon="8.7012955"><ele>267.57142857142856</ele><time>2026-04-19T15:36:53.559Z</time></trkpt><trkpt lat="45.6964222" lon="8.7012535"><ele>268.42857142857144</ele><time>2026-04-19T15:36:56.558Z</time></trkpt><trkpt lat="45.6963589" lon="8.7012153"><ele>269.2857142857143</ele><time>2026-04-19T15:36:59.558Z</time></trkpt><trkpt lat="45.696291" lon="8.7011752"><ele>270.1428571428571</ele><time>2026-04-19T15:37:02.559Z</time></trkpt><trkpt lat="45.6962256" lon="8.7011383"><ele>271.0</ele><time>2026-04-19T15:37:05.559Z</time></trkpt><trkpt lat="45.6961605" lon="8.7011056"><ele>271.42857142857144</ele><time>2026-04-19T15:37:08.559Z</time></trkpt><trkpt lat="45.6960953" lon="8.7010714"><ele>271.8571428571429</ele><time>2026-04-19T15:37:11.559Z</time></trkpt><trkpt lat="45.696029" lon="8.7010475"><ele>272.28571428571433</ele><time>2026-04-19T15:37:14.559Z</time></trkpt><trkpt lat="45.6959638" lon="8.7010203"><ele>272.7142857142857</ele><time>2026-04-19T15:37:17.559Z</time></trkpt><trkpt lat="45.6958947" lon="8.7009975"><ele>273.14285714285717</ele><time>2026-04-19T15:37:20.559Z</time></trkpt><trkpt lat="45.6958278" lon="8.7009799"><ele>273.5714285714286</ele><time>2026-04-19T15:37:23.559Z</time></trkpt><trkpt lat="45.6957557" lon="8.700979"><ele>274.0</ele><time>2026-04-19T15:37:26.559Z</time></trkpt><trkpt lat="45.6956852" lon="8.7009801"><ele>274.00000000000006</ele><time>2026-04-19T15:37:29.559Z</time></trkpt><trkpt lat="45.695616" lon="8.7009848"><ele>274.0</ele><time>2026-04-19T15:37:32.558Z</time></trkpt><trkpt lat="45.6955515" lon="8.7009955"><ele>274.0</ele><time>2026-04-19T15:37:35.558Z</time></trkpt><trkpt lat="45.6954854" lon="8.7010126"><ele>274.0</ele><time>2026-04-19T15:37:38.559Z</time></trkpt><trkpt lat="45.6954218" lon="8.701034"><ele>274.0</ele><time>2026-04-19T15:37:41.558Z</time></trkpt><trkpt lat="45.695359" lon="8.7010603"><ele>274.00000000000006</ele><time>2026-04-19T15:37:44.558Z</time></trkpt><trkpt lat="45.6952974" lon="8.7010999"><ele>274.0</ele><time>2026-04-19T15:37:47.559Z</time></trkpt><trkpt lat="45.6952399" lon="8.7011445"><ele>274.14285714285717</ele><time>2026-04-19T15:37:50.559Z</time></trkpt><trkpt lat="45.6951834" lon="8.701201"><ele>274.2857142857143</ele><time>2026-04-19T15:37:53.559Z</time></trkpt><trkpt lat="45.6951135" lon="8.7012149"><ele>274.42857142857144</ele><time>2026-04-19T15:37:56.558Z</time></trkpt><trkpt lat="45.6950458" lon="8.7012395"><ele>274.57142857142856</ele><time>2026-04-19T15:37:59.558Z</time></trkpt><trkpt lat="45.694981" lon="8.7012788"><ele>274.7142857142857</ele><time>2026-04-19T15:38:02.559Z</time></trkpt><trkpt lat="45.6949137" lon="8.7013336"><ele>274.8571428571429</ele><time>2026-04-19T15:38:05.558Z</time></trkpt><trkpt lat="45.694846" lon="8.7013812"><ele>275.0</ele><time>2026-04-19T15:38:08.558Z</time></trkpt><trkpt lat="45.6947749" lon="8.7014284"><ele>275.0</ele><time>2026-04-19T15:38:12.559Z</time></trkpt><trkpt lat="45.6947176" lon="8.7014761"><ele>275.0</ele><time>2026-04-19T15:38:15.559Z</time></trkpt><trkpt lat="45.6946436" lon="8.7015283"><ele>275.0</ele><time>2026-04-19T15:38:18.559Z</time></trkpt><trkpt lat="45.6945696" lon="8.7015912"><ele>275.0</ele><time>2026-04-19T15:38:21.559Z</time></trkpt><trkpt lat="45.6944929" lon="8.7016428"><ele>275.0</ele><time>2026-04-19T15:38:24.558Z</time></trkpt><trkpt lat="45.694417" lon="8.7016896"><ele>275.0</ele><time>2026-04-19T15:38:27.558Z</time></trkpt><trkpt lat="45.6943367" lon="8.7017396"><ele>275.5</ele><time>2026-04-19T15:38:30.559Z</time></trkpt><trkpt lat="45.6942591" lon="8.7017829"><ele>276.0</ele><time>2026-04-19T15:38:33.559Z</time></trkpt><trkpt lat="45.6941831" lon="8.7018335"><ele>276.5</ele><time>2026-04-19T15:38:36.558Z</time></trkpt><trkpt lat="45.6941071" lon="8.7018885"><ele>277.0</ele><time>2026-04-19T15:38:39.559Z</time></trkpt><trkpt lat="45.6940411" lon="8.7019337"><ele>277.5</ele><time>2026-04-19T15:38:42.559Z</time></trkpt><trkpt lat="45.6939725" lon="8.7019858"><ele>278.0</ele><time>2026-04-19T15:38:45.559Z</time></trkpt><trkpt lat="45.6939032" lon="8.702046"><ele>278.0</ele><time>2026-04-19T15:38:48.559Z</time></trkpt><trkpt lat="45.6938353" lon="8.7021086"><ele>278.0</ele><time>2026-04-19T15:38:51.559Z</time></trkpt><trkpt lat="45.6937676" lon="8.702169"><ele>278.0</ele><time>2026-04-19T15:38:54.559Z</time></trkpt><trkpt lat="45.6936948" lon="8.7022286"><ele>278.0</ele><time>2026-04-19T15:38:57.559Z</time></trkpt><trkpt lat="45.6936217" lon="8.7022889"><ele>278.0</ele><time>2026-04-19T15:39:00.559Z</time></trkpt><trkpt lat="45.6935486" lon="8.7023509"><ele>278.0</ele><time>2026-04-19T15:39:03.558Z</time></trkpt><trkpt lat="45.6934924" lon="8.7023954"><ele>278.33333333333337</ele><time>2026-04-19T15:39:05.558Z</time></trkpt><trkpt lat="45.6934334" lon="8.7024419"><ele>278.6666666666667</ele><time>2026-04-19T15:39:07.558Z</time></trkpt><trkpt lat="45.6933524" lon="8.7025012"><ele>279.0</ele><time>2026-04-19T15:39:10.559Z</time></trkpt><trkpt lat="45.693275" lon="8.7025467"><ele>279.3333333333333</ele><time>2026-04-19T15:39:13.559Z</time></trkpt><trkpt lat="45.6931916" lon="8.7025987"><ele>279.66666666666663</ele><time>2026-04-19T15:39:16.559Z</time></trkpt><trkpt lat="45.693132" lon="8.7026355"><ele>280.0</ele><time>2026-04-19T15:39:18.559Z</time></trkpt><trkpt lat="45.6930605" lon="8.7026792"><ele>280.0</ele><time>2026-04-19T15:39:21.558Z</time></trkpt><trkpt lat="45.6929982" lon="8.7027134"><ele>280.0</ele><time>2026-04-19T15:39:23.559Z</time></trkpt><trkpt lat="45.6929382" lon="8.7027422"><ele>280.0</ele><time>2026-04-19T15:39:25.559Z</time></trkpt><trkpt lat="45.692873" lon="8.7027565"><ele>280.0</ele><time>2026-04-19T15:39:27.559Z</time></trkpt><trkpt lat="45.6927883" lon="8.7028011"><ele>280.0</ele><time>2026-04-19T15:39:30.559Z</time></trkpt><trkpt lat="45.6927024" lon="8.7028465"><ele>280.0</ele><time>2026-04-19T15:39:33.559Z</time></trkpt><trkpt lat="45.6926195" lon="8.7028958"><ele>280.2857142857143</ele><time>2026-04-19T15:39:36.559Z</time></trkpt><trkpt lat="45.6925309" lon="8.7029066"><ele>280.57142857142856</ele><time>2026-04-19T15:39:39.559Z</time></trkpt><trkpt lat="45.6924656" lon="8.7029167"><ele>280.8571428571429</ele><time>2026-04-19T15:39:41.559Z</time></trkpt><trkpt lat="45.6923984" lon="8.7029207"><ele>281.1428571428571</ele><time>2026-04-19T15:39:43.558Z</time></trkpt><trkpt lat="45.692328" lon="8.7029097"><ele>281.42857142857144</ele><time>2026-04-19T15:39:45.559Z</time></trkpt><trkpt lat="45.6922611" lon="8.7028939"><ele>281.7142857142857</ele><time>2026-04-19T15:39:47.558Z</time></trkpt><trkpt lat="45.6921937" lon="8.7028676"><ele>282.0</ele><time>2026-04-19T15:39:49.559Z</time></trkpt><trkpt lat="45.6921311" lon="8.7028363"><ele>282.0</ele><time>2026-04-19T15:39:51.559Z</time></trkpt><trkpt lat="45.6920687" lon="8.7028114"><ele>282.0</ele><time>2026-04-19T15:39:53.559Z</time></trkpt><trkpt lat="45.692006" lon="8.7027898"><ele>282.0</ele><time>2026-04-19T15:39:55.558Z</time></trkpt><trkpt lat="45.6919428" lon="8.70277"><ele>282.0</ele><time>2026-04-19T15:39:57.559Z</time></trkpt><trkpt lat="45.691853" lon="8.7027366"><ele>282.0</ele><time>2026-04-19T15:40:00.559Z</time></trkpt><trkpt lat="45.6917701" lon="8.7026997"><ele>282.0</ele><time>2026-04-19T15:40:03.559Z</time></trkpt><trkpt lat="45.6916877" lon="8.7026653"><ele>282.0</ele><time>2026-04-19T15:40:06.559Z</time></trkpt><trkpt lat="45.6916089" lon="8.702613"><ele>282.0</ele><time>2026-04-19T15:40:09.559Z</time></trkpt><trkpt lat="45.6915277" lon="8.7026396"><ele>282.0</ele><time>2026-04-19T15:40:12.559Z</time></trkpt><trkpt lat="45.6914536" lon="8.7026843"><ele>282.0</ele><time>2026-04-19T15:40:15.559Z</time></trkpt><trkpt lat="45.6913675" lon="8.7027345"><ele>282.0</ele><time>2026-04-19T15:40:18.558Z</time></trkpt><trkpt lat="45.6912921" lon="8.7027565"><ele>282.0</ele><time>2026-04-19T15:40:20.558Z</time></trkpt><trkpt lat="45.6912088" lon="8.7027824"><ele>282.0</ele><time>2026-04-19T15:40:22.558Z</time></trkpt><trkpt lat="45.6911168" lon="8.7028025"><ele>282.0</ele><time>2026-04-19T15:40:24.559Z</time></trkpt><trkpt lat="45.6910163" lon="8.70282"><ele>282.0</ele><time>2026-04-19T15:40:26.559Z</time></trkpt><trkpt lat="45.6908988" lon="8.7028447"><ele>282.0</ele><time>2026-04-19T15:40:28.558Z</time></trkpt><trkpt lat="45.6907751" lon="8.7027978"><ele>282.0</ele><time>2026-04-19T15:40:30.559Z</time></trkpt><trkpt lat="45.6906625" lon="8.7027207"><ele>281.6666666666667</ele><time>2026-04-19T15:40:32.559Z</time></trkpt><trkpt lat="45.6905575" lon="8.7026204"><ele>281.3333333333333</ele><time>2026-04-19T15:40:34.558Z</time></trkpt><trkpt lat="45.6905054" lon="8.7025678"><ele>281.0</ele><time>2026-04-19T15:40:35.559Z</time></trkpt><trkpt lat="45.6904532" lon="8.7025083"><ele>280.66666666666663</ele><time>2026-04-19T15:40:36.559Z</time></trkpt><trkpt lat="45.6904016" lon="8.7024515"><ele>280.3333333333333</ele><time>2026-04-19T15:40:37.559Z</time></trkpt><trkpt lat="45.6903471" lon="8.7023999"><ele>280.0</ele><time>2026-04-19T15:40:38.558Z</time></trkpt><trkpt lat="45.6902898" lon="8.7023612"><ele>279.57142857142856</ele><time>2026-04-19T15:40:39.559Z</time></trkpt><trkpt lat="45.6902314" lon="8.7023175"><ele>279.1428571428571</ele><time>2026-04-19T15:40:40.559Z</time></trkpt><trkpt lat="45.6901684" lon="8.702287"><ele>278.7142857142857</ele><time>2026-04-19T15:40:41.558Z</time></trkpt><trkpt lat="45.6901002" lon="8.7022742"><ele>278.2857142857143</ele><time>2026-04-19T15:40:42.558Z</time></trkpt><trkpt lat="45.6900301" lon="8.702263"><ele>277.85714285714283</ele><time>2026-04-19T15:40:43.558Z</time></trkpt><trkpt lat="45.6899597" lon="8.7022533"><ele>277.42857142857144</ele><time>2026-04-19T15:40:44.559Z</time></trkpt><trkpt lat="45.6898875" lon="8.7022411"><ele>277.0</ele><time>2026-04-19T15:40:45.559Z</time></trkpt><trkpt lat="45.6898195" lon="8.7022344"><ele>277.0</ele><time>2026-04-19T15:40:46.559Z</time></trkpt><trkpt lat="45.6897533" lon="8.7022101"><ele>277.0</ele><time>2026-04-19T15:40:47.559Z</time></trkpt><trkpt lat="45.6896276" lon="8.7021834"><ele>277.0</ele><time>2026-04-19T15:40:49.558Z</time></trkpt><trkpt lat="45.6895044" lon="8.7021678"><ele>277.0</ele><time>2026-04-19T15:40:51.559Z</time></trkpt><trkpt lat="45.6894423" lon="8.7021459"><ele>277.0</ele><time>2026-04-19T15:40:52.559Z</time></trkpt><trkpt lat="45.6893289" lon="8.7020955"><ele>277.0</ele><time>2026-04-19T15:40:54.559Z</time></trkpt><trkpt lat="45.689219" lon="8.7020747"><ele>277.0</ele><time>2026-04-19T15:40:56.559Z</time></trkpt><trkpt lat="45.689113" lon="8.7020698"><ele>277.0</ele><time>2026-04-19T15:40:58.559Z</time></trkpt><trkpt lat="45.6890106" lon="8.7020696"><ele>277.0</ele><time>2026-04-19T15:41:00.559Z</time></trkpt><trkpt lat="45.6888942" lon="8.7020676"><ele>277.0</ele><time>2026-04-19T15:41:02.559Z</time></trkpt><trkpt lat="45.6887737" lon="8.7020468"><ele>277.0</ele><time>2026-04-19T15:41:04.559Z</time></trkpt><trkpt lat="45.6886559" lon="8.7020452"><ele>277.0</ele><time>2026-04-19T15:41:06.558Z</time></trkpt><trkpt lat="45.6885425" lon="8.7020383"><ele>277.0</ele><time>2026-04-19T15:41:08.559Z</time></trkpt><trkpt lat="45.6884339" lon="8.7020234"><ele>277.0</ele><time>2026-04-19T15:41:10.559Z</time></trkpt><trkpt lat="45.6883253" lon="8.7020065"><ele>277.0</ele><time>2026-04-19T15:41:12.559Z</time></trkpt><trkpt lat="45.6882306" lon="8.7020356"><ele>277.0</ele><time>2026-04-19T15:41:14.559Z</time></trkpt><trkpt lat="45.6881201" lon="8.7020273"><ele>277.0</ele><time>2026-04-19T15:41:16.559Z</time></trkpt><trkpt lat="45.6880107" lon="8.7020216"><ele>277.0</ele><time>2026-04-19T15:41:18.558Z</time></trkpt><trkpt lat="45.6879023" lon="8.7020226"><ele>277.0</ele><time>2026-04-19T15:41:20.558Z</time></trkpt><trkpt lat="45.6877975" lon="8.7020196"><ele>277.6</ele><time>2026-04-19T15:41:22.559Z</time></trkpt><trkpt lat="45.6876952" lon="8.7020191"><ele>278.2</ele><time>2026-04-19T15:41:24.559Z</time></trkpt><trkpt lat="45.687596" lon="8.702008"><ele>278.8</ele><time>2026-04-19T15:41:26.559Z</time></trkpt><trkpt lat="45.6875112" lon="8.7020017"><ele>279.4</ele><time>2026-04-19T15:41:28.559Z</time></trkpt><trkpt lat="45.6874162" lon="8.7020108"><ele>280.0</ele><time>2026-04-19T15:41:30.558Z</time></trkpt><trkpt lat="45.687323" lon="8.7020317"><ele>280.0</ele><time>2026-04-19T15:41:32.558Z</time></trkpt><trkpt lat="45.6872232" lon="8.7020542"><ele>280.0</ele><time>2026-04-19T15:41:34.559Z</time></trkpt><trkpt lat="45.6871179" lon="8.7020712"><ele>280.0</ele><time>2026-04-19T15:41:36.558Z</time></trkpt><trkpt lat="45.6870026" lon="8.7020801"><ele>280.0</ele><time>2026-04-19T15:41:38.559Z</time></trkpt><trkpt lat="45.6868893" lon="8.7020831"><ele>280.0</ele><time>2026-04-19T15:41:40.559Z</time></trkpt><trkpt lat="45.686825" lon="8.7020809"><ele>279.6</ele><time>2026-04-19T15:41:41.558Z</time></trkpt><trkpt lat="45.6866488" lon="8.7020857"><ele>279.2</ele><time>2026-04-19T15:41:44.558Z</time></trkpt><trkpt lat="45.6865306" lon="8.7020764"><ele>278.8</ele><time>2026-04-19T15:41:46.559Z</time></trkpt><trkpt lat="45.6864673" lon="8.7020778"><ele>278.4</ele><time>2026-04-19T15:41:47.559Z</time></trkpt><trkpt lat="45.6864017" lon="8.7020787"><ele>278.0</ele><time>2026-04-19T15:41:48.559Z</time></trkpt><trkpt lat="45.6863384" lon="8.7020859"><ele>278.0</ele><time>2026-04-19T15:41:49.558Z</time></trkpt><trkpt lat="45.6862776" lon="8.7020612"><ele>278.0</ele><time>2026-04-19T15:41:50.559Z</time></trkpt><trkpt lat="45.6861543" lon="8.7020572"><ele>278.0</ele><time>2026-04-19T15:41:52.559Z</time></trkpt><trkpt lat="45.6860895" lon="8.702051"><ele>278.0</ele><time>2026-04-19T15:41:53.559Z</time></trkpt><trkpt lat="45.6859616" lon="8.7020473"><ele>278.0</ele><time>2026-04-19T15:41:55.559Z</time></trkpt><trkpt lat="45.685896" lon="8.7020502"><ele>278.0</ele><time>2026-04-19T15:41:56.559Z</time></trkpt><trkpt lat="45.6858273" lon="8.7020492"><ele>277.83333333333337</ele><time>2026-04-19T15:41:57.559Z</time></trkpt><trkpt lat="45.6857026" lon="8.7020564"><ele>277.6666666666667</ele><time>2026-04-19T15:41:59.559Z</time></trkpt><trkpt lat="45.6856369" lon="8.7020551"><ele>277.5</ele><time>2026-04-19T15:42:00.558Z</time></trkpt><trkpt lat="45.6855731" lon="8.7020513"><ele>277.3333333333333</ele><time>2026-04-19T15:42:01.559Z</time></trkpt><trkpt lat="45.6854459" lon="8.7020408"><ele>277.16666666666663</ele><time>2026-04-19T15:42:03.559Z</time></trkpt><trkpt lat="45.6853801" lon="8.7020437"><ele>277.0</ele><time>2026-04-19T15:42:04.559Z</time></trkpt><trkpt lat="45.6852582" lon="8.7020397"><ele>276.66666666666663</ele><time>2026-04-19T15:42:06.558Z</time></trkpt><trkpt lat="45.6851936" lon="8.702032"><ele>276.3333333333333</ele><time>2026-04-19T15:42:07.558Z</time></trkpt><trkpt lat="45.6850644" lon="8.7020385"><ele>276.0</ele><time>2026-04-19T15:42:09.558Z</time></trkpt><trkpt lat="45.6849987" lon="8.7020339"><ele>275.6666666666667</ele><time>2026-04-19T15:42:10.558Z</time></trkpt><trkpt lat="45.6849321" lon="8.702028"><ele>275.33333333333337</ele><time>2026-04-19T15:42:11.558Z</time></trkpt><trkpt lat="45.6848681" lon="8.702024"><ele>275.0</ele><time>2026-04-19T15:42:12.558Z</time></trkpt><trkpt lat="45.6848021" lon="8.7020326"><ele>275.0</ele><time>2026-04-19T15:42:13.559Z</time></trkpt><trkpt lat="45.6847371" lon="8.7020211"><ele>275.0</ele><time>2026-04-19T15:42:14.559Z</time></trkpt><trkpt lat="45.684675" lon="8.7020044"><ele>275.0</ele><time>2026-04-19T15:42:15.558Z</time></trkpt><trkpt lat="45.68455" lon="8.7019989"><ele>275.0</ele><time>2026-04-19T15:42:17.558Z</time></trkpt><trkpt lat="45.6844384" lon="8.7019871"><ele>275.0</ele><time>2026-04-19T15:42:19.559Z</time></trkpt><trkpt lat="45.6843221" lon="8.7019748"><ele>274.75</ele><time>2026-04-19T15:42:21.559Z</time></trkpt><trkpt lat="45.6842043" lon="8.7019704"><ele>274.5</ele><time>2026-04-19T15:42:23.559Z</time></trkpt><trkpt lat="45.6840874" lon="8.7019594"><ele>274.25</ele><time>2026-04-19T15:42:25.559Z</time></trkpt><trkpt lat="45.6839692" lon="8.7019726"><ele>274.0</ele><time>2026-04-19T15:42:27.559Z</time></trkpt><trkpt lat="45.683849" lon="8.7019765"><ele>274.0</ele><time>2026-04-19T15:42:29.559Z</time></trkpt><trkpt lat="45.6837291" lon="8.702"><ele>274.0</ele><time>2026-04-19T15:42:31.559Z</time></trkpt><trkpt lat="45.6836679" lon="8.7020269"><ele>274.0</ele><time>2026-04-19T15:42:32.559Z</time></trkpt><trkpt lat="45.6836041" lon="8.702024"><ele>274.0</ele><time>2026-04-19T15:42:33.558Z</time></trkpt><trkpt lat="45.6835397" lon="8.702022"><ele>274.0</ele><time>2026-04-19T15:42:34.558Z</time></trkpt><trkpt lat="45.6834181" lon="8.7020171"><ele>274.0</ele><time>2026-04-19T15:42:36.559Z</time></trkpt><trkpt lat="45.6832925" lon="8.7020091"><ele>274.0</ele><time>2026-04-19T15:42:38.558Z</time></trkpt><trkpt lat="45.6831711" lon="8.7020239"><ele>274.0</ele><time>2026-04-19T15:42:40.559Z</time></trkpt><trkpt lat="45.683052" lon="8.7020473"><ele>274.0</ele><time>2026-04-19T15:42:42.559Z</time></trkpt><trkpt lat="45.6829398" lon="8.7020427"><ele>274.0</ele><time>2026-04-19T15:42:44.559Z</time></trkpt><trkpt lat="45.6828261" lon="8.7020854"><ele>273.2</ele><time>2026-04-19T15:42:46.559Z</time></trkpt><trkpt lat="45.6827194" lon="8.7021181"><ele>272.4</ele><time>2026-04-19T15:42:48.558Z</time></trkpt><trkpt lat="45.6826127" lon="8.7021727"><ele>271.6</ele><time>2026-04-19T15:42:50.559Z</time></trkpt><trkpt lat="45.682508" lon="8.7022329"><ele>270.8</ele><time>2026-04-19T15:42:52.558Z</time></trkpt><trkpt lat="45.6824202" lon="8.7023124"><ele>270.0</ele><time>2026-04-19T15:42:54.559Z</time></trkpt><trkpt lat="45.6823322" lon="8.7024154"><ele>270.0</ele><time>2026-04-19T15:42:56.559Z</time></trkpt><trkpt lat="45.682263" lon="8.7025108"><ele>270.0</ele><time>2026-04-19T15:42:58.559Z</time></trkpt><trkpt lat="45.6821774" lon="8.7025843"><ele>270.0</ele><time>2026-04-19T15:43:00.559Z</time></trkpt><trkpt lat="45.6820857" lon="8.702502"><ele>270.0</ele><time>2026-04-19T15:43:02.559Z</time></trkpt><trkpt lat="45.6820278" lon="8.7024239"><ele>270.0</ele><time>2026-04-19T15:43:04.558Z</time></trkpt><trkpt lat="45.6819808" lon="8.7023401"><ele>270.0</ele><time>2026-04-19T15:43:06.558Z</time></trkpt><trkpt lat="45.6819424" lon="8.7022433"><ele>270.0</ele><time>2026-04-19T15:43:08.559Z</time></trkpt><trkpt lat="45.6819029" lon="8.7021315"><ele>270.0</ele><time>2026-04-19T15:43:10.559Z</time></trkpt><trkpt lat="45.6818656" lon="8.7020124"><ele>270.0</ele><time>2026-04-19T15:43:12.559Z</time></trkpt><trkpt lat="45.6818242" lon="8.7018761"><ele>270.0</ele><time>2026-04-19T15:43:14.559Z</time></trkpt><trkpt lat="45.6817765" lon="8.7017637"><ele>270.0</ele><time>2026-04-19T15:43:16.559Z</time></trkpt><trkpt lat="45.6817423" lon="8.7016407"><ele>270.0</ele><time>2026-04-19T15:43:18.558Z</time></trkpt><trkpt lat="45.6817227" lon="8.7015199"><ele>270.0</ele><time>2026-04-19T15:43:20.559Z</time></trkpt><trkpt lat="45.6817019" lon="8.7014043"><ele>270.0</ele><time>2026-04-19T15:43:22.558Z</time></trkpt><trkpt lat="45.6816887" lon="8.7012917"><ele>270.0</ele><time>2026-04-19T15:43:24.558Z</time></trkpt><trkpt lat="45.6816789" lon="8.7011809"><ele>270.0</ele><time>2026-04-19T15:43:26.559Z</time></trkpt><trkpt lat="45.681663" lon="8.7010711"><ele>270.0</ele><time>2026-04-19T15:43:28.558Z</time></trkpt><trkpt lat="45.6816472" lon="8.7009735"><ele>270.0</ele><time>2026-04-19T15:43:30.558Z</time></trkpt><trkpt lat="45.6816394" lon="8.7008557"><ele>270.0</ele><time>2026-04-19T15:43:33.558Z</time></trkpt><trkpt lat="45.6816458" lon="8.7009648"><ele>270.0</ele><time>2026-04-19T15:43:41.558Z</time></trkpt><trkpt lat="45.6816683" lon="8.7010955"><ele>270.0</ele><time>2026-04-19T15:43:44.559Z</time></trkpt><trkpt lat="45.6816918" lon="8.7011881"><ele>270.0</ele><time>2026-04-19T15:43:46.559Z</time></trkpt><trkpt lat="45.6817151" lon="8.7012818"><ele>270.0</ele><time>2026-04-19T15:43:48.558Z</time></trkpt><trkpt lat="45.6817358" lon="8.7013782"><ele>270.0</ele><time>2026-04-19T15:43:50.559Z</time></trkpt><trkpt lat="45.6817612" lon="8.701476"><ele>270.0</ele><time>2026-04-19T15:43:52.558Z</time></trkpt><trkpt lat="45.6817847" lon="8.7015778"><ele>270.0</ele><time>2026-04-19T15:43:54.558Z</time></trkpt><trkpt lat="45.6817899" lon="8.7016792"><ele>270.0</ele><time>2026-04-19T15:43:56.559Z</time></trkpt><trkpt lat="45.6818107" lon="8.7017711"><ele>270.0</ele><time>2026-04-19T15:43:58.558Z</time></trkpt><trkpt lat="45.681832" lon="8.7018564"><ele>270.0</ele><time>2026-04-19T15:44:00.558Z</time></trkpt><trkpt lat="45.681862" lon="8.7019796"><ele>270.0</ele><time>2026-04-19T15:44:03.559Z</time></trkpt><trkpt lat="45.6818848" lon="8.7021013"><ele>270.0</ele><time>2026-04-19T15:44:06.559Z</time></trkpt><trkpt lat="45.6819232" lon="8.702198"><ele>270.0</ele><time>2026-04-19T15:44:09.559Z</time></trkpt><trkpt lat="45.6819673" lon="8.7022844"><ele>270.0</ele><time>2026-04-19T15:44:12.558Z</time></trkpt><trkpt lat="45.6819833" lon="8.7023876"><ele>270.0</ele><time>2026-04-19T15:44:15.559Z</time></trkpt><trkpt lat="45.6819674" lon="8.7024987"><ele>270.0</ele><time>2026-04-19T15:44:18.559Z</time></trkpt><trkpt lat="45.6819163" lon="8.702588"><ele>271.0</ele><time>2026-04-19T15:44:21.559Z</time></trkpt><trkpt lat="45.6818775" lon="8.7026899"><ele>271.0</ele><time>2026-04-19T15:44:24.558Z</time></trkpt><trkpt lat="45.6818308" lon="8.7027671"><ele>272.0</ele><time>2026-04-19T15:44:27.559Z</time></trkpt><trkpt lat="45.6817785" lon="8.7028213"><ele>272.0</ele><time>2026-04-19T15:44:30.558Z</time></trkpt><trkpt lat="45.6818071" lon="8.7029049"><ele>272.0</ele><time>2026-04-19T15:44:35.558Z</time></trkpt></trkseg></trk></gpx>